[[{"header":{"parameterUnit":"m.s-1","parameterCategory":1,"la1":30.6,"la2":28.766,"lo1":-90.7593,"lo2":-88.6598,"dy":0.0162,"dx":0.0183,"nx":116,"ny":114,"refTime":"2024-08-03T12:00:00:Z","depth":0,"parameterNumber":2,"parameterNumberName":"U-component_of_WINDS"},"data":[0.0,0.0,0.0,0.0,0.0,0.0,0.0,0.0,0.0,0.0,0.0,0.0,0.0,0.0,0.0,0.0,0.0,0.0,0.0,0.0,0.0,0.0,0.0,0.0,0.0,0.0,0.0,0.0,0.0,0.0,0.0,0.0,0.0,0.0,0.0,0.0,0.0,0.0,0.0,0.0,0.0,0.0,0.0,0.0,0.0,0.0,0.0,0.0,0.0,0.0,0.0,0.0,0.0,0.0,0.0,0.0,0.0,0.0,0.0,0.0,0.0,0.0,0.0,0.0,0.0,0.0,0.0,0.0,0.0,0.0,0.0,0.0,0.0,0.0,0.0,0.0,0.0,0.0,0.0,0.0,0.0,0.0,0.0,0.0,0.0,0.0,0.0,0.0,0.0,0.0,0.0,0.0,0.0,0.0,0.0,0.0,0.0,0.0,0.0,0.0,0.0,0.0,0.0,0.0,0.0,0.0,0.0,0.0,0.0,0.0,0.0,0.0,0.0,0.0,0.0,0.0,0.0,0.0,0.0,0.0,0.0,0.0,0.0,0.0,0.0,0.0,0.0,0.0,0.0,0.0,0.0,0.0,0.0,0.0,0.0,0.0,0.0,0.0,0.0,0.0,0.0,0.0,0.0,0.0,0.0,0.0,0.0,0.0,0.0,0.0,0.0,0.0,0.0,0.0,0.0,0.0,0.0,0.0,0.0,0.0,0.0,0.0,0.0,0.0,0.0,0.0,0.0,0.0,0.0,0.0,0.0,0.0,0.0,0.0,0.0,0.0,0.0,0.0,0.0,0.0,0.0,0.0,0.0,0.0,0.0,0.0,0.0,0.0,0.0,0.0,0.0,0.0,0.0,0.0,0.0,0.0,0.0,0.0,0.0,0.0,0.0,0.0,0.0,0.0,0.0,0.0,0.0,0.0,0.0,0.0,0.0,0.0,0.0,0.0,0.0,0.0,0.0,0.0,0.0,0.0,0.0,0.0,0.0,0.0,0.0,0.0,0.0,0.0,0.0,0.0,0.0,0.0,0.0,0.0,0.0,0.0,0.0,0.0,0.0,0.0,0.0,0.0,0.0,0.0,0.0,0.0,0.0,0.0,0.0,0.0,0.0,0.0,0.0,0.0,0.0,0.0,0.0,0.0,0.0,0.0,0.0,0.0,0.0,0.0,0.0,0.0,0.0,0.0,0.0,0.0,0.0,0.0,0.0,0.0,0.0,0.0,0.0,0.0,0.0,0.0,0.0,0.0,0.0,0.0,0.0,0.0,0.0,0.0,0.0,0.0,0.0,0.0,0.0,0.0,0.0,0.0,0.0,0.0,0.0,0.0,0.0,0.0,0.0,0.0,0.0,0.0,0.0,0.0,0.0,0.0,0.0,0.0,0.0,0.0,0.0,0.0,0.0,0.0,0.0,0.0,0.0,0.0,0.0,0.0,0.0,0.0,0.0,0.0,0.0,0.0,0.0,0.0,0.0,0.0,0.0,0.0,0.0,0.0,0.0,0.0,0.0,0.0,0.0,0.0,0.0,0.0,0.0,0.0,0.0,0.0,0.0,0.0,0.0,0.0,0.0,0.0,0.0,0.0,0.0,0.0,0.0,0.0,0.0,0.0,0.0,0.0,0.0,0.0,0.0,0.0,0.0,0.0,0.0,0.0,0.0,0.0,0.0,0.0,0.0,0.0,0.0,0.0,0.0,0.0,0.0,0.0,0.0,0.0,0.0,0.0,0.0,0.0,0.0,0.0,0.0,0.0,0.0,0.0,0.0,0.0,0.0,0.0,0.0,0.0,0.0,0.0,0.0,0.0,0.0,0.0,0.0,0.0,0.0,0.0,0.0,0.0,0.0,0.0,0.0,0.0,0.0,0.0,0.0,0.0,0.0,0.0,0.0,0.0,0.0,0.0,0.0,0.0,0.0,0.0,0.0,0.0,0.0,0.0,0.0,0.0,0.0,0.0,0.0,0.0,0.0,0.0,0.0,0.0,0.0,0.0,0.0,0.0,0.0,0.0,0.0,0.0,0.0,0.0,0.0,0.0,0.0,0.0,0.0,0.0,0.0,0.0,0.0,0.0,0.0,0.0,0.0,0.0,0.0,0.0,0.0,0.0,0.0,0.0,0.0,0.0,0.0,0.0,0.0,0.0,0.0,0.0,0.0,0.0,0.0,0.0,0.0,0.0,0.0,0.0,0.0,0.0,0.0,0.0,0.0,0.0,0.0,0.0,0.0,0.0,0.0,0.0,0.0,0.0,0.0,0.0,0.0,0.0,0.0,0.0,0.0,0.0,0.0,0.0,0.0,0.0,0.0,0.0,0.0,0.0,0.0,0.0,0.0,0.0,0.0,0.0,0.0,0.0,0.0,0.0,0.0,0.0,0.0,0.0,0.0,0.0,0.0,0.0,0.0,0.0,0.0,0.0,0.0,0.0,0.0,0.0,0.0,0.0,0.0,0.0,0.0,0.0,0.0,0.0,0.0,0.0,0.0,0.0,0.0,0.0,0.0,0.0,0.0,0.0,0.0,0.0,0.0,0.0,0.0,0.0,0.0,0.0,0.0,0.0,0.0,0.0,0.0,0.0,0.0,0.0,0.0,0.0,0.0,0.0,0.0,0.0,0.0,0.0,0.0,0.0,0.0,0.0,0.0,0.0,0.0,0.0,0.0,0.0,0.0,0.0,0.0,0.0,0.0,0.0,0.0,0.0,0.0,0.0,0.0,0.0,0.0,0.0,0.0,0.0,0.0,0.0,0.0,0.0,0.0,0.0,0.0,0.0,0.0,0.0,0.0,0.0,0.0,0.0,0.0,0.0,0.0,0.0,0.0,0.0,0.0,0.0,0.0,0.0,0.0,0.0,0.0,0.0,0.0,0.0,0.0,0.0,0.0,0.0,0.0,0.0,0.0,0.0,0.0,0.0,0.0,0.0,0.0,0.0,0.0,0.0,0.0,0.0,0.0,0.0,0.0,0.0,0.0,0.0,0.0,0.0,0.0,0.0,0.0,0.0,0.0,0.0,0.0,0.0,0.0,0.0,0.0,0.0,0.0,0.0,0.0,0.0,0.0,0.0,0.0,0.0,0.0,0.0,0.0,0.0,0.0,0.0,0.0,0.0,0.0,0.0,0.0,0.0,0.0,0.0,0.0,0.0,0.0,0.0,0.0,0.0,0.0,0.0,0.0,0.0,0.0,0.0,0.0,0.0,0.0,0.0,0.0,0.0,0.0,0.0,0.0,0.0,0.0,0.0,0.0,0.0,0.0,0.0,0.0,0.0,0.0,0.0,0.0,0.0,0.0,0.0,0.0,0.0,0.0,0.0,0.0,0.0,0.0,0.0,0.0,0.0,0.0,0.0,0.0,0.0,0.0,0.0,0.0,0.0,0.0,0.0,0.0,0.0,0.0,0.0,0.0,0.0,0.0,0.0,0.0,0.0,0.0,0.0,0.0,0.0,0.0,0.0,0.0,0.0,0.0,0.0,0.0,0.0,0.0,0.0,0.0,0.0,0.0,0.0,0.0,0.0,0.0,0.0,0.0,0.0,0.0,0.0,0.0,0.0,0.0,0.0,0.0,0.0,0.0,0.0,0.0,0.0,0.0,0.0,0.0,0.0,0.0,0.0,0.0,0.0,0.0,0.0,0.0,0.0,0.0,0.0,0.0,0.0,0.0,0.0,0.0,0.0,0.0,0.0,0.0,0.0,0.0,0.0,0.0,0.0,0.0,0.0,0.0,0.0,0.0,0.0,0.0,0.0,0.0,0.0,0.0,0.0,0.0,0.0,0.0,0.0,0.0,0.0,0.0,0.0,0.0,0.0,0.0,0.0,0.0,0.0,0.0,0.0,0.0,0.0,0.0,0.0,0.0,0.0,0.0,0.0,0.0,0.0,0.0,0.0,0.0,0.0,0.0,0.0,0.0,0.0,0.0,0.0,0.0,0.0,0.0,0.0,0.0,0.0,0.0,0.0,0.0,0.0,0.0,0.0,0.0,0.0,0.0,0.0,0.0,0.0,0.0,0.0,0.0,0.0,0.0,0.0,0.0,0.0,0.0,0.0,0.0,0.0,0.0,0.0,0.0,0.0,0.0,0.0,0.0,0.0,0.0,0.0,0.0,0.0,0.0,0.0,0.0,0.0,0.0,0.0,0.0,0.0,0.0,0.0,0.0,0.0,0.0,0.0,0.0,0.0,0.0,0.0,0.0,0.0,0.0,0.0,0.0,0.0,0.0,0.0,0.0,0.0,0.0,0.0,0.0,0.0,0.0,0.0,0.0,0.0,0.0,0.0,0.0,0.0,0.0,0.0,0.0,0.0,0.0,0.0,0.0,0.0,0.0,0.0,0.0,0.0,0.0,0.0,0.0,0.0,0.0,0.0,0.0,0.0,0.0,0.0,0.0,0.0,0.0,0.0,0.0,0.0,0.0,0.0,0.0,0.0,0.0,0.0,0.0,0.0,0.0,0.0,0.0,0.0,0.0,0.0,0.0,0.0,0.0,0.0,0.0,0.0,0.0,0.0,0.0,0.0,0.0,0.0,0.0,0.0,0.0,0.0,0.0,0.0,0.0,0.0,0.0,0.0,0.0,0.0,0.0,0.0,0.0,0.0,0.0,0.0,0.0,0.0,0.0,0.0,0.0,0.0,0.0,0.0,0.0,0.0,0.0,0.0,0.0,0.0,0.0,0.0,0.0,0.0,0.0,0.0,0.0,0.0,0.0,0.0,0.0,0.0,0.0,0.0,0.0,0.0,0.0,0.0,0.0,0.0,0.0,0.0,0.0,0.0,0.0,0.0,0.0,0.0,0.0,0.0,0.0,0.0,0.0,0.0,0.0,0.0,0.0,0.0,0.0,0.0,0.0,0.0,0.0,0.0,0.0,0.0,0.0,0.0,0.0,0.0,0.0,0.0,0.0,0.0,0.0,0.0,0.0,0.0,0.0,0.0,0.0,0.0,0.0,0.0,0.0,0.0,0.0,0.0,0.0,0.0,0.0,0.0,0.0,0.0,0.0,0.0,0.0,0.0,0.0,0.0,0.0,0.0,0.0,0.0,0.0,0.0,0.0,0.0,0.0,0.0,0.0,0.0,0.0,0.0,0.0,0.0,0.0,0.0,0.0,0.0,0.0,0.0,0.0,0.0,0.0,0.0,0.0,0.0,0.0,0.0,0.0,0.0,0.0,0.0,0.0,0.0,0.0,0.0,0.0,0.0,0.0,0.0,0.0,0.0,0.0,0.0,0.0,0.0,0.0,0.0,0.0,0.0,0.0,0.0,0.0,0.0,0.0,0.0,0.0,0.0,0.0,0.0,0.0,0.0,0.0,0.0,0.0,0.0,0.0,0.0,0.0,0.0,0.0,0.0,0.0,0.0,0.0,0.0,0.0,0.0,0.0,0.0,0.0,0.0,0.0,0.0,0.0,0.0,0.0,0.0,0.0,0.0,0.0,0.0,0.0,0.0,0.0,0.0,0.0,0.0,0.0,0.0,0.0,0.0,0.0,0.0,0.0,0.0,0.0,0.0,0.0,0.0,0.0,0.0,0.0,0.0,0.0,0.0,0.0,0.0,0.0,0.0,0.0,0.0,0.0,0.0,0.0,0.0,0.0,0.0,0.0,0.0,0.0,0.0,0.0,0.0,0.0,0.0,0.0,0.0,0.0,0.0,0.0,0.0,0.0,0.0,0.0,0.0,0.0,0.0,0.0,0.0,0.0,0.0,0.0,0.0,0.0,0.0,0.0,0.0,0.0,0.0,0.0,0.0,0.0,0.0,0.0,0.0,0.0,0.0,0.0,0.0,0.0,0.0,0.0,0.0,0.0,0.0,0.0,0.0,0.0,0.0,0.0,0.0,0.0,0.0,0.0,0.0,0.0,0.0,0.0,0.0,0.0,0.0,0.0,0.0,0.0,0.0,0.0,0.0,0.0,0.0,0.0,0.0,0.0,0.0,0.0,0.0,0.0,0.0,0.0,0.0,0.0,0.0,0.0,0.0,0.0,0.0,0.0,0.0,0.0,0.0,0.0,0.0,0.0,0.0,0.0,0.0,0.0,0.0,0.0,0.0,0.0,0.0,0.0,0.0,0.0,0.0,0.0,0.0,0.0,0.0,0.0,0.0,0.0,0.0,3.6797,3.4922,0.0,0.0,0.0,0.0,0.0,0.0,0.0,0.0,0.0,0.0,0.0,0.0,0.0,0.0,0.0,0.0,0.0,0.0,0.0,0.0,0.0,0.0,0.0,1.4887,1.5906,1.5945,1.6276,1.6679,1.7147,0.0,0.0,0.0,0.0,0.0,1.718,1.7164,1.76,1.8401,1.8091,1.8793,2.0508,2.043,2.0,1.9258,0.0,0.0,0.0,0.0,0.0,0.0,0.0,0.0,0.0,0.0,0.0,0.0,0.0,0.0,0.0,0.0,0.0,0.0,0.0,0.0,0.0,0.0,0.0,0.0,0.0,0.0,0.0,0.0,0.0,0.0,0.0,0.0,0.0,0.0,0.0,0.0,0.0,0.0,0.0,0.0,0.0,0.0,0.0,0.0,0.0,0.0,0.0,0.0,0.0,0.0,0.0,0.0,0.0,0.0,0.0,0.0,0.0,0.0,0.0,0.0,0.0,0.0,0.0,0.0,0.0,0.0,0.0,0.0,0.0,0.0,4.1367,3.9805,0.0,0.0,0.0,0.0,0.0,0.0,0.0,0.0,0.0,0.0,0.0,0.0,0.0,0.0,0.0,0.0,0.0,0.0,0.0,0.0,0.0,1.2886,1.3097,1.5162,1.6636,1.6933,1.7445,1.7926,1.8241,1.796,0.0,0.0,0.0,1.8028,1.8014,1.8168,1.8682,1.955,2.0073,2.1157,2.2812,2.4375,2.3945,2.1914,2.1602,0.0,0.0,0.0,0.0,0.0,0.0,0.0,0.0,0.0,0.0,0.0,0.0,0.0,0.0,0.0,0.0,0.0,0.0,0.0,0.0,0.0,0.0,0.0,0.0,0.0,0.0,0.0,0.0,0.0,0.0,0.0,0.0,0.0,0.0,0.0,0.0,0.0,0.0,0.0,0.0,0.0,0.0,0.0,0.0,0.0,0.0,0.0,0.0,0.0,0.0,0.0,0.0,0.0,0.0,0.0,0.0,0.0,0.0,0.0,0.0,0.0,0.0,0.0,4.5616,4.659,4.7891,4.8789,4.9648,5.0273,4.6484,4.5664,4.668,4.2656,0.0,0.0,0.0,0.0,0.0,0.0,0.0,0.0,0.0,0.0,0.0,0.0,0.0,0.0,0.0,0.0,0.0,0.0,0.0,1.3242,1.4728,1.5847,1.7123,1.8641,1.8121,1.8381,1.9879,1.8559,0.0,0.0,1.8857,1.885,1.8835,1.9565,2.0389,2.1259,2.3597,2.5318,2.6367,2.7344,2.7617,2.7226,2.5703,2.4961,2.4727,0.0,0.0,0.0,0.0,0.0,0.0,0.0,0.0,0.0,0.0,0.0,0.0,0.0,0.0,0.0,0.0,0.0,0.0,0.0,0.0,0.0,0.0,0.0,0.0,0.0,0.0,0.0,0.0,0.0,0.0,0.0,0.0,0.0,0.0,0.0,0.0,0.0,0.0,0.0,0.0,0.0,3.0312,3.1211,0.0,0.0,0.0,0.0,0.0,0.0,0.0,0.0,0.0,0.0,0.0,0.0,0.0,4.4122,4.6367,4.8711,5.0037,5.0415,5.3339,5.4497,5.4141,5.5039,5.5898,5.664,5.5312,0.0,4.9453,4.6641,0.0,0.0,0.0,0.0,0.0,0.0,0.0,0.0,0.0,0.0,0.0,0.0,0.0,0.0,0.0,0.0,0.0,0.0,0.0,0.0,0.0,1.7255,1.8948,1.976,2.0318,2.0735,2.1004,2.0327,1.9827,1.9735,1.9735,1.9927,2.0381,2.082,2.1976,2.3829,2.6502,2.8034,2.8476,2.9844,3.0508,3.0469,3.0156,2.8672,2.6328,2.4727,0.0,0.0,0.0,0.0,0.0,0.0,0.0,0.0,0.0,0.0,0.0,0.0,0.0,0.0,0.0,0.0,0.0,0.0,0.0,0.0,0.0,0.0,0.0,0.0,0.0,0.0,0.0,0.0,0.0,0.0,0.0,0.0,0.0,0.0,0.0,0.0,0.0,0.0,0.0,2.9833,3.2325,3.2733,3.4062,3.4258,0.0,0.0,0.0,0.0,0.0,0.0,0.0,0.0,0.0,4.5976,4.7796,4.9737,5.1794,5.3416,5.4492,5.5078,5.6542,5.7328,5.75,5.789,5.8281,5.8594,5.8242,5.6992,5.4961,5.1367,4.8906,4.7148,0.0,0.0,0.0,0.0,4.5937,4.6641,0.0,0.0,0.0,0.0,0.0,0.0,0.0,0.0,0.0,0.0,0.0,0.0,1.6029,1.8659,2.0578,2.1295,2.23,2.2716,0.0,2.1822,2.1297,2.0658,2.0427,2.0696,2.1466,2.2207,2.3906,2.6597,2.8768,3.0117,3.0586,3.1914,3.25,3.2539,3.3125,3.1523,2.8242,2.7148,2.5352,0.0,0.0,0.0,0.0,0.0,0.0,0.0,0.0,0.0,0.0,0.0,0.0,0.0,0.0,0.0,0.0,0.0,0.0,0.0,0.0,0.0,0.0,0.0,0.0,0.0,0.0,0.0,0.0,0.0,0.0,0.0,0.0,0.0,0.0,0.0,0.0,0.0,0.0,3.2429,3.4334,3.4852,3.6967,3.7485,0.0,0.0,0.0,0.0,0.0,0.0,4.4531,4.6372,4.8632,5.1557,5.3142,5.4671,5.6136,5.7074,5.7851,5.8555,5.8789,5.9219,5.9844,5.9844,5.9844,5.9844,5.9844,5.9844,5.9531,5.539,5.2969,5.1641,4.9922,4.8828,4.8516,5.0703,5.1641,5.2344,0.0,0.0,0.0,0.0,0.0,0.0,0.0,0.0,0.0,0.0,0.0,1.6068,1.8544,1.9711,2.1295,2.3698,2.3295,2.3213,0.0,0.0,2.1567,2.1427,2.0696,2.0696,2.1466,2.4008,2.6617,2.9313,3.0349,3.164,3.3203,3.3281,3.3359,3.3359,3.3398,3.2851,3.1836,3.0117,2.8359,2.6523,0.0,0.0,0.0,0.0,0.0,0.0,0.0,0.0,0.0,0.0,0.0,0.0,0.0,0.0,0.0,0.0,0.0,0.0,0.0,0.0,0.0,0.0,0.0,0.0,0.0,0.0,0.0,0.0,0.0,0.0,0.0,0.0,0.0,0.0,0.0,0.0,0.0,0.0,0.0,3.8912,4.0749,0.0,0.0,0.0,0.0,4.3111,4.5651,4.8203,5.0703,5.2578,5.4312,5.6024,5.6906,5.7901,5.8982,5.9687,6.0117,6.0273,6.1094,6.1523,6.1562,6.1562,6.1562,6.1562,6.1562,6.1562,6.1328,5.7812,5.6367,5.6094,5.4375,5.3633,5.3711,5.4687,5.5586,5.6445,0.0,0.0,0.0,1.0037,1.0037,1.0037,1.0075,1.083,1.1716,1.2598,1.5097,1.7388,0.0,2.1272,2.3208,2.4159,2.4452,2.4509,2.43,0.0,2.2444,2.2406,2.1543,2.2021,2.4019,2.6662,2.8805,3.0388,3.2379,3.3633,3.4258,3.4805,3.5078,3.5078,3.5078,3.4609,3.3711,3.1992,3.0273,2.8476,2.6445,2.457,0.0,0.0,0.0,0.0,0.0,0.0,0.0,0.0,0.0,0.0,0.0,0.0,0.0,0.0,0.0,0.0,0.0,0.0,0.0,0.0,0.0,0.0,0.0,0.0,0.0,0.0,0.0,0.0,0.0,0.0,0.0,0.0,0.0,0.0,0.0,0.0,0.0,4.1771,4.4484,0.0,4.3926,4.5583,4.7281,4.8542,5.0442,5.2489,5.4609,5.5859,5.7259,5.8916,5.916,5.9763,6.0817,6.0974,6.1094,6.125,6.1562,6.1719,6.1719,6.1719,6.1719,6.1719,6.1719,6.1719,6.1601,6.039,5.9531,5.8945,5.7773,5.7344,5.7461,5.8281,5.8789,5.918,0.0,0.9914,0.0,0.9995,1.0024,1.0037,1.0075,1.1104,1.2256,1.3377,1.622,1.8679,2.0117,2.2604,2.431,2.4652,2.5164,2.5284,2.4764,2.3898,2.3358,2.3291,2.2975,2.3925,2.6339,2.865,3.0473,3.1758,3.3711,3.4844,3.5156,3.5742,3.6016,3.6016,3.6016,3.5664,3.5078,3.3945,3.2305,3.0351,2.8906,2.7461,2.5859,0.0,0.0,0.0,0.0,0.0,0.0,0.0,0.0,0.0,0.0,0.0,0.0,0.0,0.0,0.0,0.0,0.0,0.0,0.0,0.0,0.0,0.0,0.0,0.0,0.0,0.0,0.0,0.0,0.0,0.0,0.0,0.0,0.0,0.0,0.0,4.2492,4.4382,4.7335,4.8831,4.7833,4.983,5.1734,5.3007,5.4402,5.5965,5.7773,5.8437,5.9375,6.0781,6.0721,6.0961,6.1689,6.159,6.1554,6.1719,6.1719,6.1719,6.1719,6.1719,6.1719,6.1719,6.1719,6.1719,6.1719,6.1719,6.1367,6.0781,6.0234,6.0039,6.0117,6.0625,6.0859,6.0937,0.9905,0.995,0.9994,1.0009,1.0039,1.0113,1.0152,1.1617,1.3286,1.497,1.7445,1.9978,2.2508,2.3602,2.4462,2.5349,2.5473,2.5466,2.5428,2.4729,2.4245,2.4138,2.4966,2.6285,2.8152,2.9907,3.1646,3.3437,3.4297,3.5156,3.6016,3.6016,3.6016,3.6055,3.6055,3.6055,3.6094,3.6094,3.4648,3.2305,3.1367,3.043,2.9375,0.0,0.0,0.0,0.0,0.0,0.0,0.0,0.0,0.0,0.0,0.0,0.0,0.0,0.0,0.0,0.0,0.0,0.0,0.0,0.0,0.0,0.0,0.0,0.0,0.0,0.0,0.0,0.0,0.0,0.0,0.0,0.0,0.0,3.9469,4.2354,4.5124,4.6855,4.9317,5.0933,5.1028,5.2705,5.4536,5.6372,5.7427,5.8711,6.0351,6.043,6.082,6.168,6.1562,6.1549,6.1681,6.1559,6.1578,6.1719,6.1719,6.1719,6.1719,6.1719,6.1719,6.1719,6.1719,6.1719,6.1719,6.1719,6.1719,6.1719,6.1719,6.1719,6.1719,6.1719,6.1719,6.1719,0.9779,0.9824,0.9875,0.9908,0.9995,1.0271,1.0946,1.1976,1.3286,1.497,1.7953,2.045,2.1732,2.3794,2.5206,2.5444,2.5541,2.5543,2.5543,2.4705,2.4435,2.4966,2.6967,2.8653,2.995,3.165,3.3093,3.4336,3.5234,3.5781,3.6016,3.6016,3.6328,3.6953,3.6953,3.7305,3.7891,3.7891,3.7461,3.6601,3.3828,3.1836,3.0312,0.0,0.0,0.0,0.0,0.0,0.0,0.0,0.0,0.0,0.0,0.0,0.0,0.0,0.0,0.0,0.0,0.0,0.0,0.0,0.0,0.0,0.0,0.0,0.0,0.0,0.0,0.0,0.0,0.0,0.0,0.0,4.0162,4.2931,4.2931,4.5855,4.8625,5.0317,5.2856,5.4531,5.4708,5.6368,5.7952,5.9217,5.9565,6.0195,6.1289,6.1328,6.1445,6.168,6.1562,6.1555,6.1687,6.1578,6.1578,6.1719,6.1719,6.1719,6.1719,6.1719,6.1719,6.1719,6.1719,6.1719,6.1719,6.1719,6.1719,6.1719,6.1719,6.1719,6.1719,6.1719,6.1719,6.1719,0.9698,0.9779,0.9866,0.988,0.9994,1.0336,1.1244,1.2151,1.3556,1.595,1.8613,2.0871,2.2412,2.4312,2.5466,2.5505,2.5543,2.5552,2.5569,2.536,2.5869,2.7379,2.8852,3.0491,3.227,3.3262,3.4257,3.5234,3.5742,3.6016,3.6016,3.6367,3.6797,3.7305,3.7695,3.8125,3.8594,3.8594,3.8594,3.8437,3.6406,3.4766,3.332,3.0859,2.9844,2.9453,2.7891,2.7344,2.7226,2.6445,0.0,0.0,0.0,0.0,0.0,0.0,0.0,0.0,0.0,0.0,0.0,0.0,0.0,0.0,0.0,0.0,0.0,0.0,0.0,0.0,0.0,0.0,0.0,0.0,4.3893,4.6817,4.7894,4.974,5.1625,5.328,5.5263,5.6823,5.7692,5.8803,5.9846,6.0859,6.0937,6.1172,6.168,6.1719,6.1719,6.1719,6.1601,6.1601,6.1719,6.1616,6.1616,6.1719,6.1719,6.1719,6.1719,6.1719,6.1719,6.1719,6.1719,6.1719,6.1719,6.1719,6.1719,6.1719,0.0,0.0,0.0,0.0,6.1719,6.1719,0.9698,0.9824,0.9903,0.9918,1.0075,1.0554,1.1424,1.2286,1.4002,1.7252,0.0,2.1218,2.3688,2.4832,2.5428,2.5505,2.5505,2.5558,2.5613,2.6434,2.7928,3.0302,3.0698,3.198,3.4443,3.4611,3.5095,3.6016,3.6016,3.6055,3.6172,3.6953,3.7383,3.7617,3.8398,3.8789,3.8906,3.8906,3.8906,3.8867,3.8789,3.8164,3.6953,3.3828,3.3008,3.3242,3.0898,3.0039,2.9805,2.8242,0.0,0.0,0.0,0.0,0.0,0.0,0.0,0.0,0.0,0.0,0.0,0.0,0.0,0.0,0.0,0.0,0.0,0.0,0.0,0.0,0.0,0.0,0.0,0.0,4.7586,5.0664,5.301,5.351,5.4164,5.5665,5.6725,5.8038,5.9837,6.0222,6.0709,6.1638,6.1719,6.1719,6.1719,6.1719,0.0,0.0,0.0,6.1719,6.1719,6.1719,6.1758,6.1836,6.1836,6.1914,6.1992,6.1992,6.1992,6.1992,6.1992,6.1992,6.1992,6.1992,6.1992,6.1953,6.1797,6.1719,6.1719,6.1719,6.1719,6.1719,0.9698,0.9824,0.9903,0.9918,1.0591,1.143,1.2303,1.3124,1.4634,1.7368,1.9225,2.0979,2.2853,2.4514,2.5505,2.5505,2.5543,2.5832,0.0,0.0,2.9159,3.034,3.2429,3.3827,3.4481,3.5251,3.5741,3.6016,3.6016,3.6367,3.7031,3.7226,3.8047,3.9414,3.957,4.0039,4.0703,4.0703,4.0703,4.0625,3.9922,3.8711,3.7148,3.5781,3.4922,3.4297,3.3086,3.2656,3.2617,3.2266,3.1719,3.1016,2.9961,0.0,0.0,0.0,0.0,0.0,0.0,0.0,0.0,0.0,0.0,0.0,0.0,0.0,0.0,0.0,0.0,0.0,0.0,0.0,0.0,4.6932,5.024,5.2895,5.4087,5.5395,5.6395,5.6703,5.7649,5.8703,5.9879,6.0751,6.1375,6.1677,6.1719,6.1719,6.1719,6.1719,6.1719,6.1719,6.1719,6.1719,6.1719,6.1719,6.2031,6.2734,6.2734,0.0,6.3789,6.3789,6.3789,6.3789,6.3789,6.3789,6.3789,6.3789,6.3789,6.3672,6.2265,6.1719,6.1719,6.1719,6.1719,6.1719,0.9698,0.9779,0.9984,1.0396,1.0946,1.1785,1.3064,1.3601,1.4826,1.7382,1.884,2.0273,2.199,2.3371,2.4212,2.4198,2.4615,0.0,0.0,2.8429,2.9902,3.1672,3.3404,3.4597,3.5187,3.5674,3.5921,3.6016,3.6445,3.6875,3.7305,3.8203,3.9062,3.9922,4.0351,4.0781,4.1211,4.1211,4.1211,4.1172,4.0742,4.0039,3.9101,3.7812,3.6758,3.5898,3.5,3.4414,3.3984,3.3555,3.3125,3.2656,3.1797,3.0664,2.9257,0.0,0.0,0.0,0.0,0.0,0.0,0.0,0.0,0.0,0.0,0.0,0.0,0.0,0.0,4.1046,4.2777,0.0,4.8202,5.0317,5.2433,5.4318,5.5549,5.6472,5.7187,5.7687,5.8633,5.9665,6.0648,6.1278,6.1634,6.1679,6.1719,6.1719,6.1719,6.1719,6.1719,6.1719,6.1719,6.1914,6.2344,6.2344,6.2773,6.3633,6.3633,6.3867,6.4297,6.4297,6.4297,6.4297,6.4297,6.4297,6.4297,6.4297,6.4297,6.4219,6.3359,6.3008,6.3008,6.3008,6.3008,6.3008,0.9698,0.9743,1.0045,1.0856,1.1325,1.2041,1.3568,1.4002,1.4941,1.7164,1.823,1.934,2.0856,2.1996,2.2786,0.0,0.0,0.0,0.0,2.8813,3.0479,3.2993,3.4044,3.5007,3.5892,3.5905,3.6013,3.625,3.6953,3.7461,3.7851,3.9258,4.0,4.0195,4.0898,4.1211,4.1211,4.1211,4.1211,4.1211,4.1211,4.1211,4.1055,3.9648,3.8476,3.7422,3.6562,3.5586,3.4609,3.4062,3.3789,3.3555,3.2891,3.2104,3.1058,2.9499,2.8702,0.0,0.0,0.0,0.0,0.0,0.0,0.0,0.0,0.0,3.8969,4.0854,4.3547,4.6009,4.7586,4.9702,5.1741,5.3395,5.4434,5.5511,5.7049,5.7396,5.7841,5.871,5.9511,6.0419,6.1405,6.1616,6.1719,6.1719,6.1719,6.1719,6.1719,6.1719,6.1797,6.1953,6.1953,6.2383,6.3242,6.3242,6.3672,6.4531,6.4531,6.4648,6.4805,6.4805,6.4805,6.4805,6.4805,6.4805,6.4805,6.4805,6.4805,6.4805,6.4805,6.4805,6.4765,6.4414,6.4297,6.4297,0.9698,0.9698,1.0002,1.0863,1.182,1.2779,1.3672,1.4518,1.5426,1.6495,1.7323,1.8198,1.9158,2.0773,2.2384,0.0,0.0,0.0,2.7736,2.939,3.1121,3.3031,3.4661,3.5679,3.5905,3.5961,3.6364,3.7148,3.7266,3.8086,3.9609,3.9805,4.0312,4.1055,4.1172,4.1211,4.1211,4.1211,4.1211,4.1211,4.1211,4.1211,4.1172,4.0976,3.9883,3.8359,3.7461,3.6094,3.4805,3.5469,3.5195,3.4531,3.4453,3.3807,3.2916,3.1892,0.0,2.9712,3.1749,3.3659,3.5468,3.7046,3.7507,3.8931,0.0,0.0,4.5278,4.774,4.9163,5.024,5.1164,5.2202,5.3472,5.5164,5.6126,5.7049,5.8011,5.8918,5.9573,5.9788,5.9924,6.039,6.1389,6.1616,6.1719,6.1719,6.1719,6.1719,6.1719,6.1719,6.2031,6.2812,6.2851,6.3281,6.414,6.414,6.4609,6.5469,6.5469,6.5859,6.6601,6.6601,6.6601,6.6601,6.6601,6.6601,6.6601,6.6601,6.6601,6.6601,6.6601,6.6601,6.6406,6.4883,6.4297,6.4297,0.9698,0.9698,1.0112,1.1431,1.2084,1.2874,1.4227,1.4793,1.5432,1.638,1.6777,1.7305,1.8157,1.9357,2.0982,2.3206,2.3398,2.4668,2.7698,2.9467,3.1237,3.3096,3.4805,3.5775,3.5955,3.6474,3.6953,3.7305,3.832,3.918,3.9922,4.043,4.0859,4.1211,4.1211,4.1211,4.1211,4.1211,4.1211,4.1211,4.1211,4.1211,4.1133,4.0625,3.9375,3.7812,3.7422,3.6172,0.0,0.0,3.4258,3.3943,3.3896,3.2985,3.1896,3.1932,3.1748,0.0,3.693,3.7916,3.8354,0.0,4.2047,4.3201,4.624,4.7355,4.8394,5.0433,5.1933,5.301,5.3356,5.4087,5.5049,0.0,5.6742,5.7511,5.8995,5.9088,5.9319,6.0012,6.0112,6.0499,6.1539,6.1655,6.1719,6.1719,6.1719,6.1914,6.2422,6.2461,6.2851,6.3711,6.375,6.418,6.5039,6.5078,6.5508,6.6367,6.6367,6.6562,6.6914,6.6914,6.6914,6.6914,6.6914,6.6914,6.6914,6.6914,6.6914,6.6914,6.6914,6.6914,6.6797,6.6094,6.582,6.582,0.9698,0.9698,1.0201,1.1835,1.2167,1.2822,1.46,1.4935,1.5272,1.5983,1.6104,1.6528,1.7594,1.8465,1.9927,2.2235,2.2658,2.4043,2.7005,2.9006,3.0891,3.2776,3.4497,0.0,3.6328,3.6992,3.7539,3.8008,3.9297,4.0039,4.0273,4.0898,4.1211,4.1211,4.1211,4.1211,4.1211,4.1211,4.1211,4.1211,4.1211,4.1211,4.1094,4.0234,3.8672,3.6914,3.668,3.5312,0.0,0.0,3.2728,3.2756,3.289,3.2254,3.1728,3.2938,3.4295,3.6262,4.0085,4.1085,0.0,4.4355,4.6009,4.724,4.8086,4.9586,5.1164,5.2356,5.3818,5.4818,5.4818,5.5318,5.6049,5.7165,5.7357,5.8011,5.9881,5.9412,5.9223,6.0089,6.0219,6.0549,6.1285,6.1562,6.1719,6.1719,6.1719,6.207,6.2969,6.3008,6.3515,6.4609,6.4648,6.5078,6.5937,6.5976,6.6289,6.6914,6.6914,6.6914,6.6914,6.6914,6.6914,6.6914,6.6914,6.6914,6.6914,6.6914,6.6914,6.6914,6.6914,6.6914,6.6914,6.6914,6.6914,6.6914,0.9698,0.9698,1.0201,1.1835,1.2084,1.2692,1.4437,1.4879,1.4991,1.5036,1.5151,1.5888,1.751,1.8482,1.9703,2.1389,2.2312,2.3543,2.5264,2.7813,3.0044,3.1866,3.3673,3.5446,3.7226,3.7305,3.8125,3.9805,3.9883,4.0312,4.1172,4.1172,4.1211,4.1211,4.1211,4.1211,4.1211,4.1211,4.1211,4.1211,4.1211,4.1211,4.1094,4.0234,3.8281,3.5937,3.5078,0.0,0.0,0.0,3.0969,3.108,3.1811,3.2567,0.0,3.6059,3.9008,0.0,0.0,0.0,4.5624,4.6586,4.8702,5.0741,5.1548,5.3087,5.4357,5.4395,5.5088,5.5665,5.5665,5.5665,5.6242,5.7973,5.828,5.8896,6.0704,6.0373,6.0002,6.0173,6.0319,6.0433,6.0426,6.1211,6.1719,6.1719,6.1719,6.207,6.2969,6.3008,6.3789,6.5508,6.5547,6.5976,6.6836,6.6875,6.6875,6.6914,6.6914,6.6914,6.6914,6.6914,6.6914,6.6914,6.6914,6.6914,6.6914,6.6914,6.6914,6.6914,6.6914,6.6914,6.6914,6.6914,6.6914,6.6914,1.0402,1.0491,1.1015,1.26,1.2888,1.3279,1.4403,1.4701,1.4822,1.4907,1.5424,0.0,0.0,0.0,0.0,0.0,2.2229,2.3505,2.5187,2.7736,2.9785,3.1056,3.3361,3.4933,3.5547,3.6719,3.7578,3.8164,3.875,3.9492,4.0351,4.0351,4.0664,4.1211,4.1211,4.1211,4.1211,4.1211,4.1211,4.1133,4.0586,4.0351,4.0234,3.9375,3.7031,3.418,0.0,0.0,0.0,0.0,2.9175,2.9311,2.9978,0.0,0.0,3.5416,0.0,4.0777,4.3585,0.0,4.6932,4.8933,5.0471,5.1856,5.3318,5.4087,5.4511,5.4511,5.4241,5.3857,5.328,5.3203,5.3933,5.6203,5.7049,5.8319,6.0843,6.0489,6.0095,6.0311,6.0356,6.0411,6.039,6.1172,6.1719,6.1719,6.2226,6.293,6.3828,6.4414,6.5273,6.6445,6.6445,6.6601,6.6914,6.6914,6.6914,6.6914,6.6914,6.6914,6.6914,6.75,6.7461,6.6953,6.8125,6.7969,6.6953,6.7539,6.7422,6.6914,6.6914,6.6914,6.6914,6.6914,6.6914,6.6914,1.0774,1.1109,1.1745,1.3073,1.3315,0.0,0.0,0.0,0.0,0.0,0.0,0.0,0.0,0.0,0.0,0.0,0.0,2.2882,2.4303,2.6544,2.8396,2.9667,3.167,3.3089,3.375,3.4883,3.5781,3.6367,3.6914,3.7656,3.8516,3.8828,3.9258,3.9805,4.0117,4.0273,4.0273,4.0273,4.0273,4.0195,3.9336,3.8789,3.8398,3.7187,3.4759,0.0,0.0,0.0,0.0,2.7501,2.7731,0.0,0.0,0.0,0.0,0.0,3.97,4.247,4.6663,4.7778,4.8471,5.1318,5.2433,5.3203,5.4626,5.4741,5.4472,5.4126,5.3356,5.253,5.1625,5.1471,5.2395,5.5241,5.6225,5.7726,6.0766,6.0539,6.015,6.0313,6.0366,6.039,6.039,6.1172,0.0,6.1719,6.25,6.3398,6.4258,6.5117,6.6015,6.6875,6.6914,6.6914,6.6914,6.6914,6.707,6.7383,6.7656,6.7812,6.7851,6.8398,6.8359,6.789,6.8984,6.8828,6.7851,6.8437,6.8164,6.7344,6.7344,6.7344,6.7344,6.7344,6.7344,6.7305,1.0914,1.1577,1.2382,0.0,0.0,0.0,0.0,0.0,0.0,0.0,0.0,0.0,0.0,0.0,0.0,0.0,0.0,0.0,2.2658,2.4428,0.0,2.7796,2.8918,3.0273,3.1914,3.207,3.289,3.4492,3.4492,3.4961,3.582,3.6641,3.707,3.7148,3.7969,3.832,3.832,3.832,3.832,3.8242,3.7383,3.6523,3.5625,3.3945,0.0,0.0,0.0,0.0,0.0,0.0,0.0,0.0,0.0,0.0,0.0,0.0,0.0,4.6278,4.8779,4.9548,5.0433,5.3703,5.4549,5.4741,5.5472,5.5105,5.4336,5.3261,5.2396,5.1549,5.0491,5.0394,5.1587,5.4895,5.5745,5.7153,6.0519,6.055,6.0244,0.0,0.0,0.0,0.0,0.0,0.0,6.1836,6.2617,6.3437,6.4336,6.5195,6.6055,6.6875,6.6953,6.6953,6.6953,6.6992,6.7422,6.8281,6.9023,6.9453,6.9492,6.9492,6.9492,6.9492,6.9531,6.9492,6.9414,6.9531,6.9062,6.8242,6.8242,6.8242,6.8242,6.8281,6.8242,6.8125,0.0,0.0,0.0,0.0,0.0,0.0,0.0,0.0,0.0,0.0,0.0,0.0,0.0,0.0,0.0,0.0,0.0,0.0,2.1803,0.0,0.0,0.0,0.0,0.0,3.0072,3.0739,0.0,0.0,0.0,3.2266,3.3164,3.3398,3.3828,3.4414,3.4648,3.4726,3.4726,3.4726,3.4726,3.4648,0.0,3.3359,3.3124,0.0,0.0,0.0,0.0,0.0,0.0,0.0,0.0,0.0,0.0,3.7156,4.0739,0.0,0.0,4.7894,4.9817,5.1741,5.3395,5.428,5.5011,5.5434,5.5028,5.4391,5.3243,5.0999,4.9341,4.7625,4.5432,4.6586,0.0,5.151,5.4108,0.0,6.0497,6.1018,0.0,6.1166,0.0,6.2344,6.2344,6.3125,0.0,0.0,6.3828,6.4336,6.5234,6.6094,6.668,6.6875,6.7539,6.7851,6.7851,6.8476,6.8867,6.9101,6.9336,6.9492,6.9531,7.0117,7.0039,6.957,7.0781,7.0625,6.9531,7.0156,6.9883,6.9101,6.9101,6.9101,6.9101,6.914,6.914,6.8984,0.0,0.0,0.0,0.0,0.0,0.0,0.0,0.0,0.0,0.0,0.0,0.0,0.0,0.0,0.0,0.0,0.0,0.0,0.0,0.0,0.0,0.0,0.0,0.0,2.7627,2.8138,0.0,0.0,0.0,0.0,0.0,3.0806,3.1196,3.1665,3.2055,3.2211,3.2211,0.0,0.0,0.0,0.0,0.0,0.0,0.0,0.0,0.0,0.0,0.0,0.0,0.0,0.0,3.7348,3.8101,4.0861,4.4085,4.547,0.0,5.0164,5.1895,5.3395,5.4587,5.5011,5.5241,5.4975,5.343,5.2491,5.0932,4.7508,4.6027,4.4696,4.2354,4.4047,4.6701,0.0,0.0,0.0,5.9882,6.0938,6.1505,0.0,6.2571,0.0,6.3515,6.4023,6.4453,6.4844,6.4883,6.5078,6.5586,6.6445,6.707,6.7461,6.793,6.8398,6.8789,6.957,6.9961,6.9961,7.039,7.0586,7.0625,7.1055,7.1015,7.0664,7.1601,7.1484,7.0625,7.1094,7.0742,6.9961,6.9961,6.9961,6.9961,7.0,7.0,6.9922,0.0,0.0,0.0,0.0,0.0,0.0,0.0,0.0,0.0,0.0,0.0,0.0,0.0,0.0,0.0,0.0,0.0,0.0,0.0,0.0,0.0,0.0,0.0,0.0,0.0,0.0,0.0,0.0,0.0,0.0,0.0,0.0,0.0,0.0,0.0,0.0,0.0,0.0,0.0,0.0,0.0,0.0,0.0,0.0,0.0,0.0,0.0,0.0,0.0,0.0,3.7738,4.0392,4.1854,4.5047,4.8432,4.9317,5.0779,5.2433,5.4049,5.4587,5.4857,5.5665,5.5206,5.3917,5.1528,5.0037,4.7995,4.3892,0.0,4.2071,4.0331,4.2162,4.5086,4.8509,0.0,5.5528,5.9011,6.0512,6.16,6.2419,6.2891,6.3515,6.4375,6.457,6.4961,6.5703,6.5898,6.5937,6.5937,6.664,6.7539,6.8515,6.8515,6.8945,6.9805,7.0508,7.0859,7.0898,7.164,7.1992,7.1992,7.1992,7.1992,7.1992,7.1992,7.1992,7.1992,7.1992,7.1562,7.0859,7.0859,7.0859,7.0859,7.0859,7.0859,7.0859,0.0,0.0,0.0,0.0,0.0,0.0,0.0,0.0,0.0,0.0,0.0,0.0,0.0,0.0,0.0,0.0,0.0,0.0,0.0,0.0,0.0,0.0,0.0,0.0,0.0,0.0,0.0,0.0,0.0,0.0,0.0,0.0,0.0,0.0,0.0,0.0,0.0,0.0,0.0,0.0,0.0,0.0,0.0,0.0,0.0,0.0,0.0,0.0,0.0,0.0,4.0662,4.4547,4.4855,4.6894,4.9356,5.0202,5.1664,5.3203,5.4203,5.4972,5.5511,5.5703,5.4757,5.3288,5.1372,4.8257,0.0,0.0,4.0535,3.8719,3.7546,4.0046,4.3355,4.6778,5.0202,5.4049,5.8819,5.9835,6.073,0.0,6.336,6.4297,6.5273,6.6015,0.0,0.0,6.7344,6.7734,6.7734,6.789,6.8672,7.0234,7.0273,7.0664,7.1562,7.1719,7.1758,7.1797,7.1914,7.1992,7.1992,7.1992,7.1992,7.1992,7.1992,7.1992,7.1992,7.1992,7.1914,7.1758,7.1758,7.1758,7.1758,7.1758,7.1758,7.168,0.0,0.0,0.0,0.0,0.0,0.0,0.0,0.0,0.0,0.0,0.0,0.0,0.0,0.0,0.0,0.0,0.0,0.0,0.0,0.0,0.0,0.0,0.0,0.0,0.0,0.0,0.0,0.0,0.0,0.0,0.0,0.0,0.0,0.0,0.0,0.0,0.0,0.0,0.0,0.0,0.0,0.0,0.0,0.0,0.0,0.0,0.0,0.0,0.0,0.0,3.87,4.3932,4.5701,4.8009,5.024,5.1087,5.2549,5.4049,5.4895,5.5395,5.5626,5.5263,5.3994,5.1925,4.8476,0.0,0.0,0.0,3.7357,3.6496,3.5584,3.8546,0.0,4.4509,4.8125,5.2241,5.6857,5.8427,6.0118,6.278,6.4009,6.4999,6.6015,6.6914,6.7461,6.7578,6.8359,6.8633,6.8203,6.9023,6.9883,7.0664,7.1133,7.1562,7.1992,7.1992,7.1992,7.1992,7.1992,7.1992,7.1992,7.1992,7.1992,7.1992,7.1992,7.1992,7.1992,7.1992,7.1992,7.1992,7.1992,7.1992,7.1992,7.1992,7.1992,7.1953,0.0,0.0,0.0,0.0,0.0,0.0,0.0,0.0,0.0,0.0,0.0,0.0,0.0,0.0,0.0,0.0,0.0,0.0,0.0,0.0,0.0,0.0,0.0,0.0,0.0,0.0,0.0,0.0,0.0,0.0,0.0,0.0,0.0,0.0,0.0,0.0,0.0,0.0,0.0,0.0,0.0,0.0,0.0,0.0,0.0,0.0,0.0,0.0,0.0,0.0,3.5391,4.0315,4.4085,4.7394,5.0087,5.1087,5.2587,5.4164,5.5164,5.5549,5.5511,5.4839,5.3203,5.0622,4.5947,4.2974,0.0,0.0,3.4776,3.4776,3.4276,0.0,4.0431,0.0,4.6201,5.024,5.5011,5.7313,5.9749,0.0,6.4464,0.0,6.6694,6.7438,0.0,6.8307,6.9139,6.9375,6.8789,7.0156,7.0976,7.0976,7.164,7.1992,7.1992,7.1992,7.1992,7.1992,7.1992,7.1992,7.1992,7.1992,7.1992,7.1992,7.1992,7.1992,7.1992,7.1992,7.1992,7.1992,7.1992,7.1992,7.1992,7.1992,7.1992,7.1992,0.0,0.0,0.0,0.0,0.0,0.0,0.0,0.0,0.0,0.0,0.0,0.0,0.0,0.0,0.0,0.0,0.0,0.0,0.0,0.0,0.0,0.0,0.0,0.0,0.0,0.0,0.0,0.0,0.0,0.0,0.0,0.0,0.0,0.0,0.0,0.0,0.0,0.0,0.0,0.0,0.0,0.0,0.0,0.0,0.0,0.0,0.0,0.0,0.0,0.0,0.0,3.3506,3.843,4.3355,4.7548,4.9163,0.0,0.0,5.4164,5.5126,5.5511,5.4703,5.2702,4.9952,4.6348,0.0,0.0,3.5815,3.4199,3.3353,3.4083,3.5776,3.8392,4.2431,0.0,4.824,5.478,5.7203,5.9604,6.3205,0.0,0.0,6.7316,6.7592,6.7969,6.8786,6.9811,7.043,7.0469,7.1367,7.1875,7.1875,7.1953,7.1992,7.1992,7.1992,7.1992,7.1992,7.1992,7.1992,7.1992,7.1992,7.1992,7.1992,7.1992,7.1992,7.1992,7.1992,7.1992,7.1992,7.1992,7.1992,7.1992,7.1992,7.1992,7.1992,0.0,0.0,0.0,0.0,0.0,0.0,0.0,0.0,0.0,0.0,0.0,0.0,0.0,0.0,0.0,0.0,0.0,0.0,0.0,0.0,0.0,0.0,0.0,0.0,0.0,0.0,0.0,0.0,0.0,0.0,0.0,0.0,0.0,0.0,0.0,0.0,0.0,0.0,0.0,0.0,0.0,0.0,0.0,0.0,0.0,0.0,0.0,0.0,0.0,0.0,0.0,0.0,3.4083,3.7853,0.0,0.0,4.8663,5.0894,5.3126,5.4318,5.478,5.3933,5.2202,4.9548,4.5124,0.0,3.8075,3.5276,3.416,3.3776,3.4122,3.5584,3.7777,4.1008,4.2547,4.5316,5.1087,5.3356,5.6126,6.0589,6.232,0.0,0.0,0.0,6.8872,7.0341,7.0949,7.125,7.1289,7.1758,7.1992,7.1992,7.1992,7.1992,7.1992,7.1992,7.1992,7.1992,7.1992,7.1992,7.1992,7.1992,7.1992,7.1992,7.1992,7.1992,7.1992,7.1992,7.1992,7.1992,7.1992,7.1992,7.1992,7.1992,7.1992,7.1992,0.0,0.0,0.0,0.0,0.0,0.0,0.0,0.0,0.0,0.0,0.0,0.0,0.0,0.0,0.0,0.0,0.0,0.0,0.0,0.0,0.0,0.0,0.0,0.0,0.0,0.0,0.0,0.0,0.0,0.0,0.0,0.0,0.0,0.0,0.0,0.0,0.0,0.0,0.0,0.0,0.0,0.0,0.0,0.0,0.0,0.0,0.0,0.0,0.0,0.0,0.0,0.0,0.0,0.0,0.0,0.0,4.6278,4.8894,5.1702,5.3087,5.3549,5.2664,5.1395,4.8971,0.0,4.0931,3.8315,3.4891,3.4199,3.4199,3.4199,3.5391,3.7199,3.9738,4.1085,4.3585,4.8663,5.1279,5.428,5.8627,0.0,6.3358,6.6628,6.8398,6.9937,7.131,7.149,7.1591,7.1679,7.1836,7.1953,7.1992,7.1992,7.1992,7.1992,7.1992,7.1992,7.1992,7.1992,7.1992,7.1992,7.1992,7.1992,7.1992,7.1992,7.1992,7.1992,7.1992,7.1992,7.1992,7.1992,7.1992,7.1992,7.1992,7.1992,7.1992,0.0,0.0,0.0,0.0,0.0,0.0,0.0,0.0,0.0,0.0,0.0,0.0,0.0,0.0,0.0,0.0,0.0,0.0,0.0,0.0,0.0,0.0,0.0,0.0,0.0,0.0,0.0,0.0,0.0,0.0,0.0,0.0,0.0,0.0,0.0,0.0,0.0,0.0,0.0,0.0,0.0,0.0,0.0,0.0,0.0,0.0,0.0,0.0,0.0,0.0,0.0,0.0,0.0,3.1044,3.3083,0.0,4.3624,4.6355,4.9779,5.1318,5.1741,5.0933,5.0048,4.8086,4.297,4.0508,3.8315,3.4891,3.4199,3.4199,3.4199,3.493,3.6353,3.8892,4.07,4.3585,4.8663,5.2318,5.5434,0.0,0.0,6.3089,6.5667,6.8936,7.0975,7.1168,7.1195,7.1339,7.1678,7.1719,7.1797,7.1992,7.1992,7.1992,7.1992,7.1992,7.1992,7.1992,7.1992,7.1992,7.1992,7.1992,7.1992,7.1992,7.1992,7.1992,7.1992,7.1992,7.1992,7.1992,7.1992,7.1992,7.1992,7.1992,7.1992,7.1992,0.0,0.0,0.0,0.0,0.0,0.0,0.0,0.0,0.0,0.0,0.0,0.0,0.0,0.0,0.0,0.0,0.0,0.0,0.0,0.0,0.0,0.0,0.0,0.0,0.0,0.0,0.0,0.0,0.0,0.0,0.0,0.0,0.0,0.0,0.0,0.0,0.0,0.0,0.0,0.0,0.0,0.0,0.0,0.0,0.0,0.0,0.0,0.0,0.0,0.0,0.0,0.0,0.0,0.0,0.0,3.4737,3.8738,4.247,4.4162,4.6086,4.724,4.5855,4.5701,4.4893,4.0969,3.9662,3.8507,3.5661,3.5084,3.5084,3.5084,3.5315,3.6892,4.12,4.2354,0.0,4.9548,0.0,0.0,5.7934,6.3089,6.6705,0.0,6.959,7.0937,7.0975,7.1129,7.126,7.1339,7.1485,7.1696,7.1992,7.1992,7.1992,7.1992,7.1992,7.1992,7.1992,7.1992,7.1992,7.1992,7.1992,7.1992,7.1992,7.1992,7.1992,7.1992,7.1992,7.1992,7.1992,7.1992,7.1992,7.1992,7.1992,7.1992,7.1992,0.0,0.0,0.0,0.0,0.0,0.0,0.0,0.0,0.0,0.0,0.0,0.0,0.0,0.0,0.0,0.0,0.0,0.0,0.0,0.0,0.0,0.0,0.0,0.0,0.0,0.0,0.0,0.0,0.0,0.0,0.0,0.0,0.0,0.0,0.0,0.0,0.0,0.0,0.0,0.0,0.0,0.0,2.47,0.0,0.0,0.0,0.0,0.0,0.0,0.0,0.0,0.0,0.0,0.0,0.0,0.0,3.416,3.7777,0.0,4.247,4.3508,4.2777,4.3008,4.2547,3.9508,3.8815,3.8161,3.5968,3.5493,3.5493,3.5493,3.5738,3.7199,4.1046,4.22,4.4278,0.0,0.0,0.0,5.9204,0.0,0.0,6.7898,6.9706,7.0898,7.0898,7.1014,7.1129,7.1206,7.133,7.1536,7.1788,7.1854,7.1897,7.1877,7.1975,7.1953,7.1875,7.1953,7.1992,7.1992,7.1992,7.1992,7.1992,7.1992,7.1992,0.0,7.1992,7.1992,7.1992,7.1992,7.1992,7.1992,7.1992,7.1992,7.1992,0.0,0.0,0.0,0.0,0.0,0.0,0.0,0.0,0.0,0.0,0.0,0.0,0.0,0.0,0.0,0.0,0.0,0.0,0.0,0.0,0.0,0.0,0.0,0.0,0.0,0.0,0.0,0.0,2.5184,2.5344,2.5381,0.0,0.0,0.0,0.0,0.0,0.0,0.0,0.0,0.0,2.419,2.4303,0.0,0.0,0.0,0.0,0.0,0.0,0.0,0.0,0.0,0.0,0.0,0.0,0.0,0.0,0.0,0.0,0.0,3.9892,4.02,4.0931,4.1162,4.0623,3.82,3.77,0.0,3.5738,3.543,3.5468,3.5738,3.6353,3.7469,3.9508,4.12,0.0,0.0,5.1587,0.0,0.0,6.4512,6.6359,6.7128,6.9436,7.0898,7.0898,7.0898,7.0975,7.1168,7.1168,7.1245,7.1464,7.1583,7.1653,7.1698,7.1887,7.1871,7.1678,7.1875,7.1992,7.1992,7.1992,7.1992,7.1992,7.1992,7.1992,7.1992,7.1992,7.1992,7.1992,7.1992,7.1992,7.1992,7.1992,7.1992,7.1992,0.0,0.0,0.0,0.0,0.0,0.0,0.0,0.0,0.0,0.0,0.0,0.0,0.0,0.0,0.0,0.0,0.0,0.0,0.0,0.0,0.0,0.0,0.0,0.0,0.0,0.0,0.0,2.359,2.4554,2.5012,2.5049,2.6103,0.0,0.0,0.0,0.0,0.0,0.0,0.0,0.0,2.419,2.4228,0.0,0.0,0.0,0.0,2.4746,2.4832,0.0,0.0,0.0,0.0,0.0,0.0,0.0,0.0,2.785,2.939,3.2045,0.0,3.543,3.4353,3.5045,3.5661,0.0,3.4622,3.4968,3.4584,0.0,3.5315,3.793,3.8007,3.9315,4.4316,0.0,4.8125,5.2395,0.0,0.0,6.3705,6.6244,6.7898,6.809,6.9783,7.0898,7.0898,7.0898,7.0937,7.0975,7.0975,7.1052,7.1245,7.1279,7.1397,7.1525,7.1591,7.1586,7.1555,7.1702,7.1758,7.1797,7.1914,7.1992,7.1992,7.1992,7.1992,7.1992,7.1992,7.1992,7.1992,7.1992,7.1992,7.1992,7.1992,7.1992,7.1992,0.0,0.0,0.0,0.0,0.0,0.0,0.0,0.0,0.0,0.0,0.0,0.0,0.0,0.0,0.0,0.0,0.0,0.0,0.0,0.0,0.0,0.0,0.0,0.0,0.0,0.0,0.0,0.0,0.0,2.4931,0.0,0.0,0.0,0.0,0.0,0.0,0.0,0.0,0.0,0.0,2.419,0.0,0.0,0.0,0.0,0.0,2.4497,2.4575,0.0,2.4654,2.4731,2.4818,0.0,0.0,0.0,0.0,2.6518,2.7582,2.889,3.166,3.416,3.4045,3.4968,3.5815,3.5353,0.0,0.0,0.0,0.0,3.5584,3.82,3.8931,0.0,0.0,4.7317,0.0,0.0,0.0,6.2858,6.4936,6.709,6.8398,6.8398,6.9937,7.0898,7.0898,7.0898,7.0898,7.0898,7.0898,7.0937,7.1052,7.1052,7.1158,7.1358,7.1453,7.1453,7.1378,7.1583,7.1698,7.1719,7.1914,7.1992,7.1992,7.1992,7.1992,7.1992,7.1992,7.1992,7.1992,7.1992,7.1992,7.1992,7.1992,7.1992,7.1992,0.0,0.0,0.0,0.0,0.0,0.0,0.0,0.0,0.0,0.0,0.0,0.0,0.0,0.0,0.0,0.0,0.0,0.0,0.0,0.0,0.0,0.0,0.0,0.0,0.0,0.0,0.0,0.0,0.0,0.0,0.0,0.0,0.0,0.0,0.0,0.0,0.0,0.0,0.0,0.0,2.419,0.0,0.0,0.0,0.0,0.0,0.0,0.0,0.0,2.4462,2.4559,2.4746,2.4891,0.0,0.0,0.0,0.0,0.0,2.8049,3.1315,3.4581,3.5647,3.6892,3.7738,3.7469,0.0,0.0,0.0,0.0,0.0,0.0,4.0162,0.0,0.0,0.0,0.0,5.8011,6.0819,6.3166,6.559,6.7244,6.8244,6.8398,6.9821,7.0783,7.0898,7.0898,7.0898,7.0898,7.0898,7.0898,7.0898,7.0898,7.0975,7.1129,7.1321,7.1321,7.1168,7.1464,7.1648,7.163,7.1835,7.1953,7.1953,7.1992,7.1992,7.1992,7.1992,7.1992,7.1992,7.1992,7.1992,7.1992,7.1992,7.1992,7.1992,0.0,0.0,0.0,0.0,0.0,0.0,0.0,0.0,0.0,0.0,0.0,0.0,0.0,0.0,0.0,0.0,0.0,0.0,0.0,0.0,0.0,0.0,0.0,0.0,0.0,0.0,0.0,0.0,0.0,0.0,2.5302,2.702,2.6979,0.0,0.0,0.0,0.0,0.0,0.0,2.419,2.419,0.0,0.0,0.0,0.0,0.0,0.0,0.0,0.0,2.4247,2.4284,2.4321,2.451,0.0,0.0,0.0,0.0,0.0,2.983,3.2791,3.4416,3.2878,3.4699,3.6546,3.5122,0.0,0.0,0.0,0.0,0.0,0.0,4.3701,4.5932,0.0,0.0,5.7011,0.0,0.0,6.382,6.5667,6.6744,6.759,6.8321,6.9321,7.0167,7.086,7.0898,7.0898,7.0898,7.0898,7.0898,7.0898,7.0898,7.0898,7.0937,7.0975,7.0975,7.0937,7.1168,7.1279,7.1272,7.1607,7.1758,7.1758,7.1914,7.1992,7.1992,7.1992,7.1992,7.1992,7.1992,7.1992,7.1992,7.1992,7.1992,7.1992,0.0,0.0,0.0,0.0,0.0,0.0,0.0,0.0,0.0,0.0,0.0,0.0,0.0,0.0,0.0,0.0,0.0,0.0,0.0,0.0,0.0,0.0,0.0,0.0,0.0,0.0,0.0,0.0,0.0,2.4672,2.5733,2.6317,2.609,2.5124,0.0,0.0,0.0,0.0,0.0,2.419,0.0,0.0,0.0,0.0,0.0,0.0,0.0,0.0,0.0,0.0,2.419,2.4266,2.4559,0.0,0.0,0.0,0.0,0.0,2.8388,3.1331,3.3532,3.3342,3.657,3.9691,3.9131,0.0,0.0,0.0,0.0,0.0,0.0,0.0,4.7855,5.2626,0.0,5.9781,6.182,6.3205,6.4474,6.5743,6.659,6.7436,6.8321,6.9206,7.0014,7.0821,7.0898,7.0898,7.0898,7.0898,7.0898,7.0898,7.0898,7.0898,7.0898,7.0898,7.0898,7.0898,7.1091,7.1223,7.1224,7.1469,7.1587,7.1597,7.1675,7.1768,7.1836,7.1836,7.1914,7.1992,7.1992,7.1992,7.1992,7.1992,7.1992,7.1992,0.0,0.0,0.0,0.0,0.0,0.0,0.0,0.0,0.0,0.0,0.0,0.0,0.0,0.0,0.0,0.0,0.0,0.0,0.0,0.0,0.0,0.0,0.0,0.0,0.0,0.0,0.0,2.341,2.3579,2.4403,2.5799,2.5255,2.4821,0.0,0.0,0.0,0.0,0.0,0.0,2.419,0.0,0.0,0.0,0.0,0.0,0.0,0.0,0.0,0.0,0.0,0.0,0.0,0.0,0.0,0.0,2.4771,2.4866,2.5332,2.7452,3.0124,3.2843,3.4997,0.0,4.1833,4.2891,0.0,0.0,0.0,0.0,0.0,0.0,4.6609,0.0,5.5301,5.8818,6.1261,6.2106,6.3578,6.4936,6.5782,6.6436,6.7167,6.8013,6.8898,6.9744,7.0552,7.0783,7.0898,7.0898,7.0898,7.0898,7.0898,7.0898,7.0898,7.0898,7.0898,7.0898,7.0898,7.1052,7.1129,7.1129,7.1321,7.141,7.1409,7.1486,7.155,7.1663,7.1655,7.1751,7.1914,7.1914,7.1953,7.1992,7.1992,7.1992,7.2031,0.0,0.0,0.0,0.0,0.0,0.0,0.0,0.0,0.0,0.0,0.0,0.0,0.0,0.0,0.0,0.0,0.0,0.0,0.0,0.0,0.0,0.0,0.0,0.0,0.0,2.2598,2.3342,2.341,2.4117,2.4489,2.4588,2.3905,2.3561,2.3488,0.0,0.0,0.0,0.0,0.0,2.419,2.419,0.0,0.0,0.0,0.0,0.0,0.0,0.0,0.0,0.0,0.0,0.0,0.0,0.0,2.4266,2.4459,2.4526,2.5402,2.9383,3.108,3.2814,3.7133,3.8483,0.0,4.2536,4.3139,0.0,4.5988,0.0,0.0,0.0,4.9994,5.38,5.6948,5.9636,6.1649,6.2451,6.3729,6.4936,6.5782,6.5936,6.6282,6.7128,6.7975,6.8859,6.9706,7.0475,7.0898,7.0898,7.0898,7.0898,7.0898,7.0898,7.0898,7.0898,7.0898,7.0898,7.0898,7.0898,7.0937,7.0937,7.1129,7.1195,7.121,7.1402,7.1531,7.1491,7.1536,7.1589,7.1719,7.1719,7.1836,7.1992,7.1992,7.1992,7.2109,0.0,0.0,0.0,0.0,0.0,0.0,0.0,0.0,0.0,0.0,0.0,0.0,0.0,0.0,0.0,0.0,0.0,0.0,0.0,0.0,0.0,0.0,0.0,2.0737,2.0479,2.24,2.341,2.341,2.415,2.4286,2.3782,2.3511,0.0,0.0,0.0,0.0,0.0,0.0,0.0,2.419,2.419,2.419,0.0,0.0,0.0,0.0,0.0,0.0,0.0,0.0,2.419,2.4247,0.0,2.4357,2.4247,2.4445,2.4476,2.5018,2.7469,3.025,3.3189,3.6347,3.8255,0.0,0.0,4.5639,4.7457,4.8905,5.0522,0.0,0.0,0.0,5.4972,5.6873,5.9317,6.1348,6.2437,6.3494,6.4583,6.5756,6.5897,6.6205,6.7013,6.7398,6.8167,6.959,6.9975,7.036,7.086,7.0898,7.0898,7.0898,7.0898,7.0898,7.0898,7.0898,7.0898,7.0898,7.0898,7.0898,7.0898,7.0975,7.1014,7.1014,7.1091,7.1206,7.131,7.1294,7.1435,7.1598,7.1583,7.168,7.1797,7.1797,7.1875,7.2109,0.0,0.0,0.0,0.0,0.0,0.0,0.0,0.0,0.0,0.0,0.0,0.0,0.0,0.0,0.0,0.0,0.0,0.0,0.0,0.0,0.0,0.0,0.0,1.9713,1.9814,2.1837,2.2992,2.3164,2.3823,2.3782,2.3038,0.0,0.0,0.0,0.0,0.0,0.0,0.0,0.0,0.0,2.419,2.419,0.0,0.0,0.0,0.0,0.0,0.0,0.0,0.0,2.419,2.4228,0.0,0.0,0.0,0.0,2.493,2.5801,2.7022,3.0217,3.3758,3.6103,0.0,0.0,4.4983,4.7467,4.9566,5.1439,5.2522,5.3304,5.3965,0.0,0.0,5.6814,5.8988,6.0864,6.2012,6.3014,6.4083,6.5273,6.5456,6.5676,6.643,6.6737,6.7445,6.8783,6.9398,6.9937,7.0475,7.0744,7.0898,7.0898,7.0898,7.0898,7.0898,7.0898,7.0898,7.0898,7.0898,7.0898,7.0898,7.0898,7.0898,7.0898,7.0898,7.0975,7.1091,7.1091,7.1206,7.1414,7.1492,7.1549,7.1659,7.1636,7.1906,7.2422,0.0,0.0,0.0,0.0,0.0,0.0,0.0,0.0,0.0,0.0,0.0,0.0,0.0,0.0,0.0,0.0,0.0,0.0,0.0,0.0,0.0,0.0,0.0,1.9113,1.9403,2.0982,2.2098,2.2698,2.3164,2.3004,2.2327,2.2327,0.0,0.0,0.0,0.0,0.0,0.0,0.0,0.0,2.419,2.419,2.419,0.0,0.0,0.0,0.0,0.0,0.0,0.0,2.419,2.419,0.0,0.0,0.0,2.419,2.5915,2.797,2.8755,3.1347,3.4431,0.0,0.0,0.0,4.7425,4.8343,4.9517,5.3592,5.3812,5.387,5.5837,5.5217,0.0,5.7063,5.8862,6.0245,6.1065,6.2257,6.3389,6.4257,6.437,6.459,6.5067,6.5862,6.6583,6.7064,6.8706,6.9667,6.9706,7.0475,7.0898,7.0898,7.0898,7.0898,7.0898,7.0898,7.0898,7.0898,7.0898,7.0898,7.0898,7.0898,7.0898,7.0898,7.0898,7.0898,7.0898,7.0898,7.1014,7.1206,7.1426,7.1503,7.1506,7.1486,7.2127,7.3125,0.0,0.0,0.0,0.0,0.0,0.0,0.0,0.0,0.0,0.0,0.0,0.0,0.0,0.0,0.0,0.0,0.0,0.0,0.0,0.0,0.0,0.0,0.0,0.0,0.0,0.0,2.2159,2.3164,2.2811,2.253,0.0,0.0,0.0,2.2958,0.0,0.0,0.0,0.0,0.0,0.0,0.0,2.419,2.419,0.0,0.0,0.0,0.0,0.0,0.0,0.0,0.0,0.0,2.419,0.0,0.0,2.4704,2.6319,2.8594,2.8227,3.1788,0.0,3.7881,0.0,0.0,0.0,5.0949,0.0,0.0,5.6308,5.5912,5.6528,5.6323,5.6279,5.6897,5.7899,5.8998,6.0203,6.1151,6.2178,6.3351,6.403,6.459,6.5067,6.5328,6.5932,6.7025,6.759,6.8398,6.9629,6.9937,7.0321,7.0898,7.0898,7.0898,7.0898,7.0898,7.0898,7.0898,7.0898,7.0898,7.0898,7.0898,7.0898,7.0898,7.0898,7.0898,7.0898,7.0898,7.0937,7.0975,7.1052,7.1168,7.1272,7.1284,7.1932,7.2909,0.0,0.0,0.0,0.0,0.0,0.0,0.0,0.0,0.0,0.0,0.0,0.0,0.0,0.0,0.0,0.0,0.0,0.0,0.0,0.0,0.0,0.0,0.0,0.0,0.0,2.0377,2.1591,0.0,0.0,0.0,0.0,0.0,0.0,2.2832,0.0,2.3212,0.0,0.0,0.0,0.0,0.0,2.419,2.419,0.0,0.0,0.0,0.0,0.0,0.0,0.0,0.0,0.0,0.0,0.0,0.0,2.5768,2.7677,3.0136,3.0944,3.4614,0.0,4.1001,4.4599,4.8489,5.1903,0.0,0.0,0.0,5.7373,5.6895,5.7226,5.7042,5.6895,5.7226,5.7666,5.8391,5.9529,6.0129,6.0964,6.2346,6.2986,6.3683,6.4727,6.4799,6.5328,6.6526,6.6898,6.7552,6.859,6.9321,6.9937,7.0398,7.0744,7.0898,7.0898,7.0898,7.0898,7.0898,7.0898,7.0898,7.0898,7.0898,7.0898,7.0898,7.0898,7.0898,7.0898,7.0898,7.0898,7.0898,7.0898,7.0975,7.1091,7.1091,7.1937,7.3224,0.0,0.0,1.3413,1.3413,0.0,0.0,0.0,0.0,0.0,0.0,0.0,1.3634,0.0,0.0,0.0,1.5627,0.0,0.0,0.0,0.0,0.0,0.0,0.0,0.0,0.0,0.0,0.0,0.0,0.0,0.0,0.0,0.0,2.2293,2.2349,0.0,2.2686,0.0,0.0,0.0,0.0,2.3946,2.408,2.4116,2.4153,0.0,0.0,0.0,0.0,0.0,0.0,0.0,0.0,2.419,2.4337,2.4924,2.6979,2.9439,3.2155,3.5128,0.0,0.0,4.5002,4.7278,0.0,5.4546,5.6235,5.7042,5.7813,0.0,5.7152,5.7886,5.7409,5.7152,5.7886,5.7997,5.8253,5.8988,5.9171,5.9758,6.119,6.152,6.229,6.4029,6.4256,6.4769,6.5755,6.6499,6.6922,6.7038,6.8564,6.9487,6.9498,7.0333,7.0783,7.0783,7.086,7.0898,7.0898,7.0898,7.0898,7.0898,7.0898,7.0898,7.0898,7.0898,7.0898,7.0898,7.0898,7.0898,7.0898,7.0898,7.0898,7.0898,7.0898,7.2091,7.3773,0.0,0.0,1.3413,1.3413,0.0,0.0,0.0,0.0,1.3329,1.3109,1.3259,1.3393,1.3346,1.4178,0.0,1.52,1.6124,0.0,0.0,0.0,0.0,0.0,0.0,0.0,0.0,0.0,0.0,0.0,0.0,0.0,0.0,0.0,0.0,2.2625,0.0,2.2621,0.0,0.0,0.0,2.2283,2.296,2.3272,2.3345,2.3969,2.419,0.0,0.0,0.0,0.0,0.0,0.0,0.0,2.419,2.5511,2.6869,2.6156,2.8962,3.2522,3.322,3.6707,0.0,0.0,4.86,5.2747,5.506,5.6235,5.7042,5.7813,5.785,5.7776,5.796,5.785,5.7813,5.796,5.7997,5.807,5.8217,5.8804,5.9355,5.9685,6.0823,6.1929,6.2753,6.3392,6.4178,6.523,6.5444,6.5826,6.6483,6.7236,6.7763,6.8043,6.9299,6.9975,6.9975,7.0591,7.0898,7.0898,7.0898,7.0898,7.0898,7.0898,7.0898,7.0898,7.0898,7.0898,7.0898,7.0898,7.0898,7.0898,7.0898,7.0898,7.0898,7.0898,7.2014,7.3553,0.0,0.0,0.0,0.0,0.0,0.0,0.0,0.0,1.3362,1.3194,1.3329,1.3362,1.3194,1.3956,0.0,0.0,1.5733,1.6422,0.0,0.0,0.0,0.0,0.0,0.0,0.0,0.0,0.0,0.0,0.0,0.0,0.0,0.0,0.0,2.3014,0.0,2.2868,0.0,0.0,0.0,2.1607,2.2191,2.2428,2.2464,2.2868,2.3052,2.3088,2.3492,0.0,0.0,0.0,0.0,0.0,0.0,0.0,2.6135,2.6465,2.8888,3.1971,0.0,0.0,0.0,4.6544,0.0,5.4106,5.5317,5.6235,5.7042,5.7813,5.7997,5.7997,5.7997,5.7997,5.7997,5.7997,5.7997,5.7997,5.7997,5.8364,5.8767,5.9171,5.9942,6.095,6.2247,6.2774,6.3525,6.4658,6.4765,6.4955,6.541,6.6031,6.658,6.7006,6.8105,6.881,6.909,6.9898,7.0321,7.0321,7.0706,7.0898,7.0898,7.0898,7.0898,7.0898,7.0898,7.0898,7.0898,7.0898,7.0898,7.0898,7.0898,7.0898,7.0937,7.136,7.236,7.3553,0.0,0.0,0.0,0.0,0.0,0.0,0.0,0.0,0.0,1.3413,1.3413,1.3413,1.3413,1.3956,1.4263,0.0,0.0,0.0,1.5879,0.0,0.0,0.0,0.0,0.0,0.0,0.0,0.0,0.0,0.0,0.0,0.0,0.0,0.0,2.341,0.0,0.0,0.0,0.0,2.1462,2.0988,2.1404,2.1584,2.1584,2.1748,2.1821,2.1931,2.2721,2.2997,2.3125,2.3933,0.0,0.0,0.0,0.0,2.4652,2.678,2.8521,3.0723,0.0,0.0,4.3644,4.9187,5.2307,0.0,5.517,5.6014,5.6822,5.7629,5.7886,5.7997,5.7997,5.7997,5.7997,5.7997,5.7997,5.7997,5.7997,5.7997,5.8253,5.8914,5.9134,5.9946,6.1893,6.2197,6.2827,6.4179,6.4255,6.4255,6.4255,6.4973,6.5576,6.6036,6.6935,6.7646,6.8167,6.9206,6.9706,6.9706,7.0514,7.0898,7.0898,7.0898,7.0898,7.0898,7.0898,7.0898,7.0898,7.0898,7.0898,7.0898,7.0898,7.0898,7.0975,7.1706,7.2629,7.3591,0.0,0.0,0.0,0.0,0.0,0.0,0.0,0.0,0.0,0.0,1.3413,1.3413,1.3413,1.3498,1.3786,1.44,1.459,1.5246,0.0,0.0,0.0,0.0,0.0,0.0,0.0,0.0,0.0,0.0,0.0,0.0,0.0,0.0,0.0,0.0,0.0,0.0,0.0,0.0,0.0,1.9627,2.0356,2.0649,2.0776,2.151,2.1821,2.1931,2.2721,2.2997,2.3125,2.3933,2.4303,0.0,0.0,0.0,2.4613,2.5481,2.6833,2.8558,0.0,0.0,4.3497,0.0,5.1022,5.2711,0.0,0.0,5.5978,0.0,5.7519,5.7997,5.7997,5.7997,5.7997,5.7997,5.7997,5.7997,5.7997,5.7997,5.8033,5.8143,5.8804,5.9575,6.0599,6.1298,6.2234,6.36,6.368,6.368,6.368,6.4251,6.4596,6.467,6.5893,6.6804,6.7282,6.8898,6.9706,6.9706,7.0514,7.0898,7.0898,7.0898,7.0898,7.0898,7.0898,7.0898,7.0898,7.0898,7.0898,7.0898,7.0898,7.0898,7.0898,7.1014,7.2091,7.3514,0.0,0.0,0.0,0.0,0.0,0.0,0.0,0.0,0.0,0.0,0.0,1.3413,1.3413,1.3413,1.3549,1.3871,1.4263,0.0,0.0,0.0,0.0,0.0,0.0,0.0,0.0,0.0,0.0,0.0,0.0,0.0,0.0,2.4594,2.5067,0.0,0.0,0.0,0.0,0.0,0.0,1.9968,1.9858,2.0923,2.2428,0.0,2.1547,2.3052,2.2501,2.2318,2.2501,2.3786,2.4266,2.4303,2.4228,0.0,0.0,0.0,2.5878,0.0,3.2999,3.8212,4.3351,0.0,5.0105,5.1756,5.3371,0.0,5.528,5.6565,5.7079,5.7483,5.7923,5.7997,5.7997,5.7997,5.7997,5.7997,5.7997,5.7997,5.7997,5.7997,5.8327,5.8841,5.9648,6.0052,6.0845,6.2345,6.2503,6.2687,6.3168,6.3363,6.3637,6.3975,6.4822,6.5503,6.5982,6.7511,6.8744,6.9706,7.0514,7.0898,7.0898,7.0898,7.0898,7.0898,7.0898,7.0898,7.0898,7.0898,7.0898,7.0898,7.0898,7.1206,7.1629,7.1629,7.2706,7.4168,0.0,0.0,0.0,0.0,0.0,0.0,0.0,0.0,0.0,0.0,0.0,1.3413,1.3413,0.0,0.0,0.0,1.3905,0.0,0.0,0.0,0.0,0.0,0.0,0.0,0.0,0.0,0.0,0.0,0.0,0.0,2.4785,2.5336,2.6725,0.0,2.7131,0.0,0.0,0.0,0.0,2.1224,2.0963,2.2318,2.4337,2.2685,2.3456,2.5254,2.3823,0.0,0.0,0.0,2.4228,2.4284,2.4209,2.4247,0.0,0.0,0.0,0.0,0.0,0.0,4.1222,4.5663,4.8196,5.0031,0.0,0.0,5.4179,5.5611,5.6235,5.6748,5.7556,5.785,5.7997,5.7997,5.7997,5.7997,5.7997,5.7997,5.7997,5.7997,5.7997,5.8327,5.9134,5.9208,5.9795,6.119,6.1484,6.1851,6.2475,6.2695,6.3062,6.3587,6.4099,6.4626,6.5099,6.6661,6.8205,6.9706,7.0514,7.0898,7.0898,7.0898,7.0898,7.0898,7.0898,7.0898,7.0898,7.0898,7.0898,7.0898,7.0898,7.1283,7.186,7.186,7.2937,7.4399,0.0,0.0,0.0,0.0,0.0,0.0,0.0,0.0,0.0,0.0,0.0,1.3413,1.3413,1.3413,1.3413,1.3413,1.3464,0.0,0.0,0.0,0.0,0.0,0.0,0.0,0.0,0.0,0.0,0.0,0.0,0.0,2.5532,2.5567,2.7537,3.0954,2.9465,2.6993,2.3895,0.0,0.0,0.0,2.462,2.5201,2.5642,2.8521,2.9292,2.8645,0.0,0.0,0.0,0.0,0.0,0.0,2.4266,2.4321,2.4462,0.0,0.0,0.0,0.0,3.2375,0.0,4.1222,4.4415,0.0,0.0,0.0,5.2344,5.3225,5.4583,5.5904,5.6712,5.7483,5.7997,5.7997,5.7997,5.7997,5.7997,5.7997,5.7997,5.7997,5.7997,5.8327,5.9134,5.9208,5.9575,6.0419,6.1153,6.163,6.1667,6.2401,6.3062,6.3587,6.4099,6.4626,6.5099,6.7247,6.8783,6.9706,7.0514,7.0898,7.0898,7.0898,7.0898,7.0898,7.0898,7.0898,7.0898,7.0898,7.0898,7.0898,7.0898,7.0937,7.0975,7.0975,7.2091,7.3553,0.0,0.0,0.0,0.0,0.0,0.0,0.0,0.0,0.0,0.0,0.0,0.0,0.0,1.3413,1.3413,1.3413,1.3413,0.0,0.0,0.0,0.0,0.0,0.0,0.0,0.0,0.0,0.0,0.0,0.0,1.9052,2.2801,2.374,2.5406,2.7604,2.7537,2.7231,2.6523,2.3665,0.0,0.0,2.4882,2.6753,0.0,2.9402,3.0846,3.2606,0.0,0.0,0.0,0.0,0.0,0.0,2.5,2.4671,2.4266,2.4228,2.4924,0.0,0.0,0.0,0.0,3.8175,4.1405,4.4085,4.603,4.8526,5.0802,5.216,5.3298,5.4473,5.5794,5.6675,5.7409,5.7923,5.7997,5.7997,5.7997,5.7997,5.7997,5.7997,5.7997,5.8107,5.84,5.8437,5.8767,5.9575,5.9905,6.0529,6.152,6.1851,6.2353,6.3073,6.3937,6.4803,6.5597,6.6922,6.7705,6.8052,6.9475,7.0129,7.0167,7.0667,7.0898,7.0898,7.0898,7.0898,7.0898,7.0898,7.0898,7.0898,7.0898,7.1245,7.1745,7.1745,7.2822,7.4284,0.0,0.0,0.0,1.3939,0.0,1.3684,1.3464,0.0,0.0,0.0,0.0,0.0,0.0,0.0,1.4041,1.3786,0.0,0.0,0.0,0.0,0.0,0.0,0.0,0.0,0.0,0.0,0.0,0.0,0.0,0.0,0.0,0.0,2.3951,2.5609,2.5338,2.6179,0.0,0.0,0.0,2.5886,0.0,0.0,3.1898,0.0,3.455,3.6413,0.0,0.0,0.0,0.0,0.0,0.0,2.6759,2.5511,2.419,2.419,2.5144,0.0,2.7493,0.0,0.0,0.0,0.0,4.0708,4.3975,4.6177,4.8159,5.0288,5.1646,5.2894,5.4509,5.5464,5.6345,5.7409,5.7813,5.7997,5.7997,5.7997,5.7997,5.7997,5.7997,5.7997,5.7997,5.7997,5.8217,5.8767,5.9061,5.9685,6.075,6.13,6.2059,6.3025,6.3937,6.4803,6.5597,6.6615,6.709,6.7128,6.8859,6.9706,6.9744,7.0514,7.0898,7.0898,7.0898,7.0898,7.0898,7.0898,7.0898,7.0898,7.0898,7.1245,7.1745,7.1745,7.2629,7.3899,1.5635,1.6165,1.6257,1.4813,1.452,1.4298,1.3549,1.3464,0.0,0.0,0.0,0.0,0.0,0.0,0.0,0.0,0.0,0.0,0.0,0.0,0.0,0.0,0.0,0.0,0.0,0.0,0.0,0.0,0.0,0.0,0.0,0.0,2.3376,0.0,2.3241,2.3883,2.6623,0.0,2.7352,2.8081,0.0,3.2301,3.3366,0.0,0.0,0.0,3.9093,3.8285,0.0,3.4798,0.0,0.0,0.0,2.6833,2.4226,2.4226,2.4814,0.0,0.0,0.0,0.0,0.0,0.0,0.0,4.2983,0.0,4.4268,4.7498,4.9481,5.1169,5.2784,5.3775,5.484,5.6455,5.7409,5.796,5.796,5.7997,5.7997,5.7997,5.7997,5.7997,5.7997,5.7997,5.7997,5.7997,5.8731,5.9171,5.9208,6.075,6.2214,6.355,6.4099,6.459,6.5099,6.6364,6.7051,6.709,6.8783,6.9629,6.9706,7.0514,7.0898,7.0898,7.0898,7.0898,7.0898,7.0898,7.0898,7.0898,7.0898,7.0898,7.0898,7.0937,7.1475,7.236,1.5649,1.6208,1.6407,1.5458,1.5321,1.5227,1.5019,0.0,0.0,0.0,0.0,0.0,0.0,0.0,0.0,0.0,0.0,0.0,0.0,0.0,0.0,0.0,0.0,0.0,0.0,0.0,0.0,0.0,0.0,0.0,0.0,0.0,0.0,0.0,2.1934,2.2692,2.4252,2.3502,0.0,0.0,2.9296,3.2174,0.0,0.0,0.0,0.0,0.0,4.0414,3.9129,0.0,3.5936,3.2632,0.0,0.0,0.0,2.509,2.6025,0.0,2.5715,0.0,0.0,0.0,0.0,0.0,0.0,3.8909,4.0928,4.4158,4.6104,4.7939,5.0178,5.172,5.3004,5.4032,5.5868,5.7152,5.7152,5.7629,5.7997,5.7997,5.7997,5.7997,5.7997,5.7997,5.7997,5.7997,5.8217,5.8584,5.9171,6.075,6.2214,6.355,6.3723,6.4255,6.5099,6.5452,6.5848,6.6244,6.7321,6.8167,6.8783,6.9629,7.036,7.0898,7.0898,7.0898,7.0898,7.0898,7.0898,7.0898,7.0898,7.0898,7.0975,7.1591,7.2399,7.3245,1.6267,1.6715,1.6909,1.6176,1.6319,1.6433,1.6115,0.0,0.0,0.0,0.0,0.0,0.0,0.0,0.0,0.0,0.0,0.0,0.0,0.0,0.0,0.0,0.0,0.0,0.0,0.0,0.0,0.0,0.0,0.0,0.0,0.0,0.0,0.0,2.0151,2.1059,2.2576,2.1838,0.0,0.0,3.026,0.0,0.0,3.8726,4.0671,0.0,0.0,0.0,4.1405,4.1405,3.8689,0.0,0.0,2.9549,2.8154,2.6796,2.8007,0.0,0.0,0.0,0.0,0.0,0.0,0.0,3.6303,3.7367,3.8799,4.269,4.4488,4.6067,4.8159,4.9591,5.0729,5.1573,5.3445,5.517,5.6161,5.7005,5.7483,5.7483,5.7813,5.7997,5.7997,5.7997,5.7997,5.7997,5.7997,5.8364,5.9171,6.0419,6.164,6.2706,6.3312,6.3978,6.4799,6.5003,6.5388,6.5897,6.6705,6.7552,6.8436,6.9321,7.0129,7.0898,7.0898,7.0898,7.0898,7.0898,7.0898,7.0898,7.0898,7.0898,7.0975,7.1475,7.2206,7.3091,0.0,1.7472,1.7614,1.7054,1.7502,1.7726,0.0,0.0,0.0,0.0,0.0,0.0,0.0,0.0,0.0,0.0,0.0,0.0,0.0,0.0,0.0,0.0,0.0,0.0,0.0,0.0,0.0,0.0,0.0,0.0,0.0,0.0,0.0,0.0,1.8396,1.9425,2.1485,2.1637,2.3768,2.7397,3.2119,3.4579,0.0,0.0,4.2213,4.2543,4.324,4.3497,4.3497,4.3497,4.1038,0.0,0.0,3.3146,3.2412,2.9365,3.0613,0.0,3.1164,3.1384,0.0,0.0,3.3476,0.0,3.8028,3.7624,3.7514,4.1809,4.3351,4.4415,4.603,4.7095,4.8012,4.8783,5.0398,5.2454,5.4987,5.6088,5.6675,5.6675,5.7373,5.7886,5.7886,5.796,5.7997,5.7997,5.7997,5.8364,5.9171,5.9905,6.0676,6.1557,6.2789,6.3654,6.4294,6.4731,6.5199,6.5755,6.6512,6.7345,6.8229,6.914,7.0014,7.0783,7.086,7.0898,7.0898,7.0898,7.0898,7.0898,7.0898,7.0898,7.0898,7.1014,7.1591,7.2476,1.6836,1.7332,1.7952,1.8404,1.8586,1.8856,0.0,0.0,0.0,0.0,0.0,0.0,0.0,0.0,0.0,0.0,0.0,0.0,0.0,0.0,0.0,0.0,0.0,0.0,0.0,0.0,0.0,0.0,0.0,0.0,0.0,0.0,0.0,0.0,1.8363,1.9339,2.0848,2.2813,0.0,2.833,3.0268,0.0,3.8175,3.9753,4.1552,4.3277,4.3424,4.3497,4.3497,4.3497,4.2543,4.0928,0.0,3.6633,3.5202,3.322,3.4027,3.5349,3.4357,3.5165,3.5936,3.4431,3.5165,0.0,3.4357,3.5202,3.656,3.7514,3.8322,3.9386,4.1001,4.302,4.4488,4.4635,4.7131,5.0105,5.3225,5.4913,5.5831,5.5831,5.6528,5.7042,5.7042,5.7629,5.7997,5.7997,5.7997,5.8364,5.9171,5.9355,6.0126,6.1557,6.185,6.2549,6.3766,6.385,6.4138,6.4699,6.522,6.5948,6.6827,6.807,6.9129,6.9975,7.0629,7.0898,7.0898,7.0898,7.0898,7.0898,7.0898,7.0898,7.0975,7.1668,7.2514,7.336,1.771,1.7828,1.8223,1.8984,1.9297,0.0,0.0,0.0,0.0,0.0,0.0,0.0,0.0,0.0,0.0,0.0,0.0,0.0,0.0,0.0,0.0,0.0,0.0,0.0,0.0,0.0,0.0,0.0,0.0,0.0,0.0,0.0,0.0,0.0,1.9108,2.0188,2.1938,0.0,2.5141,2.7908,3.1701,0.0,3.8909,4.0928,4.2433,4.3497,4.3497,4.3754,4.4048,4.3644,4.3204,0.0,4.0047,3.957,3.9423,0.0,3.7837,3.9246,3.7831,3.8177,3.8699,3.7684,0.0,0.0,0.0,3.6371,3.6897,3.8389,3.8472,3.8744,4.0226,4.1479,4.2433,4.2837,4.5259,4.7829,4.9884,5.227,5.3775,5.3775,5.4876,5.5611,5.5611,5.6675,5.7556,5.796,5.7997,5.818,5.8584,5.8988,5.9575,6.0382,6.119,6.2077,6.2997,6.3407,6.3892,6.437,6.4626,6.5323,6.6396,6.711,6.8234,6.9706,7.0129,7.0514,7.0898,7.0898,7.0898,7.0898,7.0898,7.0898,7.1014,7.186,7.2745,7.363,1.8578,1.8447,1.8599,1.912,0.0,0.0,0.0,0.0,0.0,0.0,0.0,0.0,0.0,0.0,0.0,0.0,0.0,0.0,0.0,0.0,0.0,0.0,1.7502,1.7412,0.0,0.0,0.0,0.0,0.0,0.0,0.0,0.0,0.0,0.0,0.0,0.0,0.0,0.0,0.0,2.8676,0.0,3.6714,3.8145,4.1515,4.291,4.3094,4.3571,4.4232,4.4856,4.4158,4.4048,4.3754,4.1332,4.2139,0.0,0.0,0.0,4.2895,0.0,0.0,4.1258,4.0951,0.0,3.8946,0.0,0.0,0.0,3.9779,3.9438,3.911,4.022,4.0524,4.0855,4.1515,4.3644,4.5369,4.5883,4.8636,5.0765,5.1242,5.2711,5.3775,5.3922,5.5244,5.6492,5.7483,5.7373,5.7446,5.774,5.8547,5.9061,5.9208,6.0456,6.1466,6.2227,6.2896,6.3531,6.4099,6.4178,6.4822,6.5897,6.6255,6.7462,6.9289,6.9602,7.0167,7.0898,7.0898,7.0898,7.0898,7.0898,7.0898,7.1014,7.186,7.2629,7.3399,1.8358,1.8754,1.9146,1.8944,0.0,0.0,0.0,0.0,0.0,0.0,0.0,0.0,0.0,0.0,0.0,0.0,0.0,0.0,2.4816,0.0,0.0,1.9784,1.9041,1.8676,1.8767,0.0,0.0,0.0,0.0,0.0,0.0,0.0,1.862,1.9487,2.0321,0.0,0.0,0.0,2.8251,0.0,3.4833,3.4824,0.0,3.8805,4.0744,4.1662,4.3791,4.5076,4.5736,0.0,4.6104,4.6287,0.0,4.4268,4.5184,4.299,0.0,0.0,0.0,0.0,0.0,0.0,4.1956,4.2616,3.7808,0.0,3.9007,3.7221,0.0,3.772,3.7875,0.0,0.0,3.9093,4.1148,4.2506,4.1882,4.3938,4.6324,4.8489,5.0178,5.1499,5.2197,5.3078,5.4252,5.5757,5.5207,5.5427,5.6859,5.7703,5.8474,5.9208,5.9391,6.021,6.1654,6.1765,6.2217,6.2965,6.3453,6.3761,6.3958,6.5644,6.6924,6.7904,6.9145,7.0167,7.0898,7.0898,7.0898,7.0898,7.0898,7.0898,7.1014,7.186,7.2245,7.2552,1.852,1.8913,1.9248,1.9144,0.0,0.0,0.0,0.0,0.0,0.0,0.0,0.0,0.0,0.0,0.0,0.0,0.0,2.7131,0.0,0.0,0.0,2.1413,2.0187,1.9529,1.9544,0.0,0.0,0.0,1.7794,0.0,0.0,0.0,1.9858,2.1662,2.297,0.0,2.7883,0.0,2.9429,0.0,0.0,0.0,0.0,3.9889,4.2176,4.2763,4.4709,4.5626,4.5883,4.5883,4.6104,0.0,0.0,0.0,0.0,4.4731,0.0,0.0,0.0,0.0,0.0,0.0,0.0,4.2647,3.9986,3.9415,3.9303,3.8748,0.0,0.0,0.0,0.0,0.0,0.0,4.023,4.0781,4.0451,4.1295,4.2983,4.5883,4.7241,4.882,5.1096,5.1169,5.1977,5.4069,5.3445,5.3922,5.5978,5.6859,5.7666,5.8474,5.8988,5.9758,6.0896,6.1374,6.1998,6.2805,6.3014,6.3308,6.3631,6.4747,6.5859,6.6962,6.8349,6.9436,7.0244,7.0706,7.0898,7.0898,7.0898,7.0898,7.1014,7.186,7.2206,7.2437,1.9072,0.0,0.0,0.0,0.0,0.0,2.1758,2.4081,2.5646,0.0,0.0,0.0,3.0082,3.0195,0.0,0.0,3.1789,3.0398,0.0,0.0,2.5178,2.3887,2.1974,2.0944,2.0925,2.0016,0.0,0.0,0.0,0.0,0.0,0.0,2.0785,2.2852,0.0,2.7059,3.0029,0.0,3.1268,3.3275,3.3997,3.5162,3.693,4.1204,4.324,4.4011,4.5406,4.603,4.625,4.625,4.625,4.6177,4.5957,4.5663,4.5443,0.0,0.0,0.0,4.4752,4.499,4.5158,4.37,4.2834,4.2055,4.1126,4.0347,3.9954,4.0371,4.0466,0.0,0.0,0.0,3.957,0.0,0.0,3.9827,3.9606,3.957,4.0598,4.3387,4.5002,4.6911,4.9554,4.8857,4.937,5.2013,5.1242,5.2013,5.5097,5.6014,5.6932,5.796,5.8584,5.9281,6.0052,6.086,6.1667,6.2475,6.2695,6.3014,6.3408,6.3934,6.4823,6.6059,6.7369,6.8531,6.9529,7.0374,7.0777,7.0898,7.0898,7.0898,7.0975,7.1591,7.1822,7.2091,1.9988,1.9915,0.0,0.0,0.0,0.0,2.311,2.3431,2.4245,2.6354,0.0,0.0,0.0,0.0,0.0,0.0,0.0,3.4333,3.422,0.0,2.8508,2.7657,2.4835,2.3288,2.3294,2.1892,2.0753,1.9911,1.9911,0.0,0.0,0.0,0.0,0.0,2.3941,2.6864,3.0158,3.0974,3.4651,3.9821,3.8887,4.037,4.3023,0.0,4.2653,4.4782,4.559,4.6397,4.7095,4.7095,4.7095,4.6948,4.614,4.6434,4.6948,4.652,4.695,4.7346,4.6083,4.6031,4.5605,4.2462,4.1983,4.1724,3.9668,4.0439,4.1472,4.0966,4.249,4.3685,4.2872,4.1767,0.0,0.0,0.0,0.0,0.0,3.8726,3.935,4.1038,4.3975,4.625,4.7131,4.581,4.6214,4.9444,4.8196,4.937,5.4179,5.5207,5.6345,5.796,5.8033,5.8437,5.9245,6.0052,6.086,6.163,6.2438,6.2805,6.2855,6.3363,6.4122,6.503,6.6287,6.7654,6.9017,6.9785,7.0432,7.0898,7.0898,7.0898,7.0898,7.0937,7.0937,7.1206,0.0,0.0,0.0,0.0,0.0,2.2424,2.388,2.5807,2.7706,0.0,3.0755,0.0,0.0,3.5926,3.6571,0.0,0.0,3.687,3.5318,3.2694,0.0,3.1508,2.7668,2.5834,2.6307,2.4378,2.253,2.0805,2.0805,0.0,0.0,0.0,0.0,0.0,0.0,2.892,0.0,0.0,0.0,0.0,0.0,4.0749,4.3424,0.0,4.3534,4.4819,4.5626,4.6434,4.7205,4.7719,4.7572,4.7168,4.7425,4.6948,4.6397,4.6763,4.6688,4.6461,4.6259,4.6921,4.6943,4.3937,4.3536,4.3195,4.0494,4.1037,4.1792,4.0718,4.2649,4.4066,4.2701,0.0,0.0,0.0,0.0,0.0,0.0,3.711,3.7514,3.8579,0.0,0.0,4.3901,4.3901,4.4819,4.6985,4.7131,4.8783,5.2601,5.4583,5.6088,5.7189,5.7703,5.84,5.9208,6.0015,6.0786,6.1594,6.2438,6.2805,6.2805,6.3363,6.378,6.4159,6.5981,6.7089,6.7618,6.902,6.9664,6.9885,7.0233,7.0362,7.0394,7.0777,7.0898,7.1168,2.2161,0.0,0.0,0.0,0.0,0.0,2.4735,2.7468,0.0,0.0,3.2895,0.0,3.7612,0.0,3.782,0.0,3.9396,3.8539,3.6537,3.4849,0.0,3.4163,3.0905,2.9214,2.9414,2.7728,2.5536,2.2742,2.2738,2.2198,0.0,0.0,0.0,0.0,0.0,2.9405,3.2406,3.4684,3.6907,0.0,0.0,4.1935,0.0,4.3938,4.4415,4.5223,4.603,4.6838,4.7609,4.8122,4.7976,4.7645,4.8159,4.7609,4.6874,4.7388,4.7168,4.6801,4.6851,4.757,4.7758,4.5435,4.5204,4.4888,4.221,4.2743,4.3421,4.2072,4.3466,4.4767,4.4288,4.2754,0.0,0.0,0.0,0.0,0.0,3.656,3.6817,3.7037,0.0,0.0,0.0,4.1992,4.28,4.5296,4.5443,4.7205,5.1353,5.3592,5.539,5.6748,5.7593,5.8253,5.8767,5.9575,6.0382,6.119,6.1998,6.2511,6.2805,6.3168,6.3354,6.3428,6.5396,6.6373,6.6691,6.8345,6.9148,6.9353,6.9701,6.9811,6.9883,7.0622,7.1283,7.1975,2.2938,0.0,0.0,0.0,2.399,0.0,0.0,0.0,3.0695,0.0,3.3756,3.5545,3.7736,3.8037,3.8589,3.9986,4.0087,3.9463,3.8104,3.7269,0.0,0.0,3.4333,3.3219,3.2542,3.1633,2.9455,2.5848,2.567,0.0,0.0,0.0,0.0,0.0,2.5401,0.0,3.1388,3.4944,3.8539,4.1905,4.2985,4.3975,4.471,4.471,4.5259,4.6067,4.6838,4.7645,4.8306,4.8306,4.8306,4.8306,4.8306,4.8306,4.8306,4.8306,4.8306,4.8198,4.7819,4.8087,4.8126,4.6817,4.6833,4.6654,4.4628,4.5456,4.6253,4.4899,4.5103,4.6009,4.7359,4.4801,4.269,0.0,0.0,0.0,0.0,0.0,3.7294,0.0,0.0,0.0,0.0,4.0084,4.0414,4.4232,4.324,4.4892,5.0398,5.2307,5.4289,5.6602,5.7556,5.7997,5.7997,5.8804,5.9612,6.0419,6.1227,6.2034,6.2805,6.2805,6.2805,6.2915,6.453,6.5546,6.6201,6.7756,6.8713,6.9231,6.9272,6.9272,6.9433,7.0463,7.1919,7.3447,2.4652,2.5392,2.5754,0.0,2.5335,2.6044,0.0,0.0,0.0,0.0,3.6075,3.7669,3.9362,3.9547,3.9682,4.0054,4.0087,0.0,0.0,0.0,0.0,3.8887,3.6423,3.5251,3.5638,3.2696,3.0591,2.9401,2.6316,0.0,2.4413,0.0,0.0,0.0,0.0,0.0,3.0616,3.4292,3.814,4.1859,4.2595,4.3646,4.4783,4.5369,4.6104,4.6838,4.7058,4.7645,4.8306,4.8306,4.8306,4.8306,4.8306,4.8306,4.8306,4.8306,4.8306,4.8307,4.82,4.9118,4.9814,4.8237,4.8382,4.8491,4.6691,4.761,4.8348,4.6759,4.8015,4.8753,4.6726,4.5588,4.4452,0.0,0.0,0.0,0.0,0.0,0.0,3.8909,0.0,0.0,3.8799,3.979,4.0928,4.1956,4.3864,4.614,4.882,5.1646,5.3775,5.4987,5.6969,5.7997,5.7997,5.8804,5.9612,6.0419,6.1227,6.2034,6.2805,6.2805,6.2805,6.2879,6.3943,6.4816,6.5557,6.6588,6.7428,6.8148,6.8521,6.8935,6.9353,6.9626,7.102,7.2855,2.5762,0.0,0.0,2.8835,0.0,0.0,2.9856,3.1219,0.0,3.5334,3.6936,0.0,3.9026,3.9733,4.0087,4.0087,4.0087,0.0,3.9649,0.0,0.0,3.9581,3.8288,3.7636,3.7736,3.5364,0.0,3.0925,2.7927,0.0,2.4378,0.0,0.0,0.0,0.0,2.8071,3.0195,3.5404,3.9163,4.1752,4.3065,4.4234,0.0,4.614,4.6948,4.7645,4.7645,4.7939,4.8306,4.8306,4.8306,4.8306,4.8306,4.8306,4.8306,4.8306,4.8306,4.8379,4.8746,4.9811,5.0655,5.0068,5.0545,5.0729,4.9114,4.9444,4.9738,4.8416,4.9003,4.937,4.8233,4.6581,4.4599,0.0,0.0,0.0,0.0,0.0,0.0,0.0,3.968,3.9129,3.7147,3.8836,4.0194,4.0561,4.258,4.4672,4.6617,5.0178,5.2674,5.3849,5.6235,5.7629,5.7997,5.8437,5.9098,5.9905,6.0676,6.1484,6.2291,6.2658,6.2805,6.2879,6.3723,6.4567,6.5375,6.6182,6.6953,6.7741,6.7996,6.832,6.8567,6.8567,7.0159,7.2244,2.7002,0.0,0.0,0.0,0.0,0.0,0.0,3.3072,0.0,3.5856,0.0,3.8369,3.8489,3.9615,4.0391,4.0391,4.0391,4.0138,3.9463,3.9952,3.9986,3.9328,3.98,3.98,3.9177,3.8221,3.578,3.1708,2.9804,2.7098,2.3755,0.0,0.0,0.0,0.0,0.0,0.0,3.7205,4.0637,4.1792,4.387,4.5224,4.6104,4.6838,4.7609,4.8306,4.8306,4.8306,4.8306,4.8306,4.8306,4.8306,4.8306,4.8306,4.8306,4.8306,4.8379,4.8636,4.937,5.0251,5.1132,5.183,5.2601,5.2858,5.1426,5.1132,5.0912,5.0141,4.9444,4.9334,5.0582,4.7645,4.4268,0.0,0.0,0.0,0.0,0.0,0.0,0.0,0.0,0.0,3.656,3.7845,3.9056,3.9533,4.0524,4.2176,4.4562,4.8269,5.1206,5.3151,5.5464,5.7079,5.7997,5.7997,5.84,5.9208,6.0015,6.0823,6.163,6.2438,6.2805,6.2842,6.3613,6.4457,6.5375,6.6035,6.688,6.7687,6.7687,6.7687,6.7687,6.7687,6.9348,7.1589,3.0051,0.0,0.0,0.0,0.0,3.4835,3.6471,3.6449,3.6713,3.8203,3.97,4.0867,4.1473,4.1749,4.1902,4.1902,4.1902,0.0,0.0,0.0,0.0,4.0832,4.0358,4.002,3.9918,3.8003,3.62,3.449,3.0139,2.7269,2.5736,0.0,0.0,0.0,0.0,0.0,3.3844,3.7337,0.0,4.2847,4.4163,4.5553,4.6908,4.7057,4.7609,4.8306,4.8306,4.8306,4.8306,4.8306,4.8306,4.8306,4.8306,4.8306,4.8306,4.8306,4.8783,4.9334,4.9517,5.0655,5.183,5.194,5.2601,5.3151,5.2858,5.2784,5.2747,5.2601,5.2454,5.205,5.0986,4.8563,4.614,4.4378,4.4085,0.0,0.0,0.0,0.0,0.0,0.0,4.0414,3.667,3.8358,3.9203,3.7991,3.99,4.2176,4.4562,4.6654,4.9444,5.3078,5.4913,5.6528,5.7997,5.7997,5.84,5.9208,6.0015,6.0823,6.163,6.2438,6.2805,6.2805,6.2989,6.3906,6.5301,6.5448,6.6366,6.7687,6.7687,6.7687,6.7687,6.7687,6.884,7.0486,3.4752,0.0,0.0,0.0,0.0,0.0,0.0,3.9677,3.9613,3.9606,4.0169,4.0759,4.1129,4.1876,4.232,4.232,4.232,4.232,4.232,4.1943,4.1798,4.1749,4.1426,4.1052,4.0679,3.9244,3.7282,3.4824,3.1305,2.8334,2.5904,2.3984,2.317,2.3562,0.0,3.0879,0.0,0.0,4.0455,4.2951,4.4343,4.577,4.7126,4.7571,4.7976,4.8306,4.8306,4.8306,4.8306,4.8306,4.8306,4.8306,4.8306,4.8306,4.8379,4.882,4.9224,4.9738,5.0582,5.1389,5.2087,5.2527,5.2931,5.3225,5.3225,5.3225,5.3078,5.2674,5.2564,5.194,4.9884,4.7865,4.6214,4.5443,4.4966,4.4709,0.0,0.0,4.3387,0.0,0.0,0.0,3.667,3.8469,3.9056,3.7037,3.8726,4.0928,4.3351,4.5369,4.8159,5.183,5.3922,5.5757,5.7373,5.7776,5.818,5.8584,5.9832,6.0603,6.1006,6.2254,6.2805,6.2805,6.2805,6.3503,6.4751,6.5595,6.6623,6.7687,6.7687,6.7687,6.7687,6.7687,6.8164,6.9026,0.0,3.9025,0.0,0.0,4.0343,4.0563,4.1291,4.2173,4.2299,4.0983,4.0788,4.0889,4.1077,4.2088,4.2791,4.2791,4.2791,4.2791,4.2791,4.2601,4.2543,4.2552,4.2381,4.2039,4.1443,4.0731,3.8652,3.5191,3.3145,3.0171,2.6516,2.5155,2.4626,2.5021,2.9346,3.2988,3.6,3.8458,4.0943,4.335,4.4769,4.6134,4.7421,4.8047,4.8306,4.8306,4.8306,4.8306,4.8306,4.8306,4.8306,4.8343,4.8526,4.86,4.8746,4.9591,4.9958,5.0362,5.1646,5.2123,5.2417,5.3041,5.3225,5.3225,5.3225,5.3078,5.2784,5.2123,5.1867,5.1022,4.8746,4.7425,4.6507,4.5993,4.5516,4.5112,4.4745,0.0,0.0,0.0,0.0,0.0,3.711,3.8065,3.8285,3.6927,3.7991,3.9827,4.2433,4.4195,4.6801,5.0435,5.2711,5.4656,5.6271,5.7446,5.7997,5.8033,5.9648,6.0419,6.0456,6.2071,6.2805,6.2805,6.2805,6.3392,6.4457,6.5925,6.6953,6.7687,6.7687,6.7687,6.7687,6.7687,6.7797,6.8164,0.0,0.0,0.0,0.0,0.0,4.1333,4.21,4.3328,4.3934,4.3216,4.3071,4.3396,4.4103,4.4294,4.4361,4.4361,4.4361,4.4361,4.4361,4.3687,4.3295,4.3283,4.2646,4.2289,4.22,4.1441,3.9918,3.7553,3.5805,3.3134,2.9654,2.8594,2.8599,2.9588,3.2078,3.4823,3.7735,3.916,4.1781,4.5124,4.5797,4.6943,4.8233,4.8269,4.8306,4.8306,4.8306,4.8306,4.8306,4.8306,4.8306,4.8453,4.9224,4.9481,4.9627,5.0435,5.1206,5.1793,5.194,5.2527,5.3115,5.3188,5.3225,5.3225,5.3225,5.2637,5.2087,5.2013,5.1426,5.0398,4.8636,4.882,4.8489,4.625,4.6471,4.6397,4.4929,0.0,4.3828,4.1405,0.0,0.0,3.8579,3.667,3.6303,3.8322,3.8615,4.0084,4.3204,4.291,4.4819,4.9554,5.1353,5.3004,5.462,5.6859,5.7997,5.8033,5.9648,6.0419,6.0456,6.2071,6.2805,6.2805,6.2805,6.3723,6.5264,6.6145,6.6953,6.7687,6.7687,6.7687,6.7687,6.7687,6.8164,6.8898,0.0,0.0,4.2583,4.2929,4.2328,4.2378,4.4002,4.471,4.5108,4.5187,4.4906,4.4677,4.4587,4.4587,4.4587,4.4587,4.4587,4.4587,4.4587,4.4294,4.4103,4.4103,4.3844,4.3429,4.2981,4.2665,4.1216,3.8589,3.7435,3.5193,3.2036,3.121,3.1276,3.2205,3.4935,3.7023,3.869,4.05,4.2658,4.4818,4.5401,4.6501,4.7789,4.8157,4.8306,4.8306,4.8306,4.8636,4.9077,4.9077,4.9077,4.9114,4.9481,4.9921,5.0472,5.1279,5.1756,5.2087,5.2601,5.2968,5.3225,5.3225,5.3225,5.3225,5.3225,5.2564,5.1867,5.1389,5.0215,4.9114,4.8416,4.8196,4.7939,4.7425,4.7205,4.6728,4.559,0.0,0.0,4.2103,0.0,4.0818,0.0,3.8505,3.8358,3.935,3.8065,3.8872,4.258,4.291,4.4562,4.8012,5.1096,5.3041,5.3665,5.6565,5.7997,5.8033,5.9648,6.0419,6.0456,6.2071,6.2805,6.2805,6.2805,6.3759,6.5338,6.5668,6.6549,6.7687,6.7687,6.7687,6.7687,6.7687,6.7907,6.8348,4.5551,4.444,4.3803,4.5103,4.4136,4.3811,4.549,4.5959,4.6164,4.6342,4.6031,4.5528,4.4924,4.471,4.4587,4.4587,4.4587,4.4587,4.4587,4.4587,4.4587,4.4587,4.4587,4.4328,4.3777,4.3496,4.2387,4.0303,3.9496,3.78,3.5345,3.4631,3.4665,3.5445,3.7785,3.9429,4.0404,4.1954,4.3429,4.4776,4.5391,4.6335,4.7457,4.8047,4.8306,4.8343,4.86,4.9077,4.9627,4.9848,5.0105,5.0288,5.0288,5.0692,5.1316,5.2123,5.2344,5.2491,5.3078,5.3225,5.3225,5.3225,5.3225,5.3225,5.3225,5.238,5.1353,5.0288,4.9114,4.8306,4.8306,4.7865,4.7572,4.7902,4.7682,4.7021,4.5736,4.5736,0.0,4.291,4.2249,4.1699,4.1001,4.0084,3.9937,4.0891,3.9166,3.9496,4.2837,4.3314,4.4819,4.7755,5.1316,5.3335,5.3555,5.6528,5.7997,5.8033,5.9648,6.0419,6.0456,6.2071,6.2805,6.2805,6.2805,6.3759,6.5301,6.5301,6.6256,6.7687,6.7687,6.7687,6.7687,6.7687,6.7687,6.7907,4.518,4.4704,4.4563,4.5363,4.5456,4.5682,4.6293,4.6941,4.7163,4.6501,4.6389,4.6162,4.5562,4.497,4.4587,4.4587,4.4587,4.4587,4.4587,4.4587,4.4587,4.4587,4.4587,4.4587,4.4587,4.3811,4.3396,4.3362,4.2396,4.1273,3.9986,3.9261,3.9328,4.002,4.0832,4.1933,4.3362,4.3396,4.4226,4.5533,4.614,4.6809,4.7457,4.8047,4.8306,4.8416,4.926,4.9591,4.9701,5.0508,5.1316,5.1977,5.1977,5.1977,5.2123,5.2968,5.3188,5.3188,5.3225,5.3225,5.3225,5.3225,5.3225,5.3225,5.3225,5.1977,5.0325,4.8673,4.8306,4.8306,4.8306,4.8306,4.8049,4.7241,4.7792,4.7462,4.5076,4.5406,0.0,4.3681,4.2103,4.1735,4.3277,4.0598,4.0047,4.3204,4.269,4.2947,4.4599,4.3938,4.5369,4.9407,5.194,5.3592,5.4363,5.6785,5.7997,5.8033,5.9648,6.0419,6.0456,6.2071,6.2805,6.2805,6.2805,6.3759,6.5301,6.5301,6.6256,6.7687,6.7687,6.7687,6.7687,6.7687,6.7687,6.7907,4.6667,4.658,4.636,4.6144,4.6119,4.6354,4.698,4.7243,4.7457,4.7679,4.6943,4.6349,4.6172,4.5196,4.4587,4.4587,4.4587,4.4587,4.4587,4.4587,4.4587,4.4587,4.4587,4.4587,4.4587,4.4328,4.3912,4.3396,4.309,4.2463,4.1573,4.1379,4.1379,4.1607,4.2395,4.2968,4.3429,4.4002,4.4485,4.4992,4.6006,4.6861,4.7703,4.8776,4.9515,5.0031,5.0325,5.0765,5.1279,5.1536,5.216,5.2821,5.2821,5.2821,5.2858,5.3115,5.3225,5.3225,5.3225,5.3225,5.3225,5.3225,5.3225,5.3225,5.3225,5.1977,5.0508,4.9407,4.871,4.8306,4.8306,4.8306,4.8233,4.7976,4.7682,4.7021,4.57,4.5259,4.4709,4.3608,4.3057,4.2947,4.3424,4.258,4.2396,4.3424,4.2763,4.302,4.4635,4.603,4.7352,4.8673,5.216,5.4142,5.4399,5.6785,5.7997,5.8033,5.9648,6.097,6.2071,6.2585,6.2805,6.2805,6.2805,6.3759,6.5301,6.5301,6.6256,6.7687,6.7687,6.7687,6.7687,6.7687,6.7687,6.7907,4.7381,4.7194,4.6955,4.6821,4.678,4.7016,4.7642,4.7752,4.7789,4.7937,4.7311,4.6715,4.6502,4.5874,4.5354,4.5038,4.5264,4.5354,4.5004,4.5004,4.4902,4.4587,4.4587,4.4587,4.4587,4.4587,4.4328,4.3844,4.3844,4.362,4.3172,4.3149,4.3149,4.3172,4.3654,4.3844,4.3878,4.4361,4.4744,4.5128,4.6362,4.7371,4.8258,4.9545,5.0358,5.0835,5.1132,5.1573,5.205,5.2344,5.2784,5.3225,5.3225,5.3225,5.3225,5.3225,5.3225,5.3225,5.3225,5.3225,5.3225,5.3225,5.3225,5.3115,5.2821,5.1977,5.0949,4.9811,4.915,4.8673,4.8379,4.8306,4.8306,4.8306,4.7645,4.6838,4.5993,4.5223,4.4525,4.4011,4.3938,4.4085,4.4378,4.4672,4.4856,4.4856,4.5259,4.581,4.6507,4.7682,4.9003,5.0545,5.3665,5.5464,5.5757,5.7262,5.7997,5.8033,5.9648,6.1263,6.2805,6.2805,6.2805,6.2805,6.2805,6.3759,6.5301,6.5301,6.6256,6.7687,6.7687,6.7687,6.7687,6.7687,6.7871,6.8348,4.7421,4.6932,4.6707,4.7288,4.7421,4.7642,4.8233,4.8306,4.8084,4.7569,4.7563,4.7356,4.6721,4.6772,4.6635,4.592,4.6442,4.651,4.5796,4.5784,4.5456,4.4778,4.4744,4.4744,4.4744,4.4744,4.4744,4.471,4.4643,4.4587,4.4587,4.4587,4.4587,4.4587,4.4654,4.4654,4.471,4.4744,4.5162,4.5908,4.7249,4.8204,4.9003,5.0354,5.0941,5.1051,5.183,5.2087,5.2197,5.2968,5.3225,5.3225,5.3225,5.3225,5.3225,5.3225,5.3225,5.3225,5.3225,5.3225,5.3225,5.3225,5.3225,5.3004,5.2234,5.205,5.1573,5.0068,4.9701,4.9407,4.8563,4.8379,4.8343,4.8233,4.7535,4.6764,4.592,4.5186,4.4709,4.4709,4.4819,4.5149,4.592,4.6728,4.7205,4.7205,4.9334,5.0362,4.9701,4.9003,5.0398,5.4289,5.5978,5.7189,5.7997,5.7997,5.807,5.818,5.9685,6.1263,6.2805,6.2805,6.2805,6.2805,6.2879,6.3833,6.5301,6.5375,6.6292,6.7687,6.7687,6.7687,6.7687,6.7687,6.8201,6.9009,4.7494,4.7652,4.7783,4.7453,4.7789,4.8121,4.8306,4.8306,4.8306,4.8269,4.7865,4.7573,4.7462,4.7545,4.7545,4.741,4.7019,4.6723,4.6529,4.652,4.643,4.6293,4.6293,4.6293,4.6293,4.6293,4.5976,4.5422,4.4902,4.4587,4.4587,4.4587,4.4587,4.4621,4.5216,4.5409,4.5456,4.6067,4.6362,4.6635,4.8005,4.9013,4.9857,5.1224,5.2113,5.2632,5.2858,5.2931,5.2968,5.3151,5.3225,5.3225,5.3225,5.3225,5.3225,5.3225,5.3225,5.3225,5.3225,5.3225,5.3225,5.3225,5.3225,5.3151,5.2968,5.2454,5.1867,5.1499,5.0949,5.0251,4.9444,4.9297,4.8857,4.7609,4.6728,4.592,4.5112,4.4819,4.4709,4.4709,4.581,4.6617,4.6801,4.7535,4.8012,4.8012,4.8563,4.937,5.0472,5.1499,5.2784,5.4363,5.5978,5.7189,5.7997,5.7997,5.8621,5.9832,6.0236,6.1263,6.2805,6.2805,6.2805,6.2842,6.3503,6.4383,6.5375,6.5962,6.6806,6.7687,6.7687,6.7687,6.7687,6.7687,6.8201,6.9009,4.7901,4.8084,4.8233,4.7901,4.7826,4.7901,4.7901,4.8233,4.8269,4.7716,4.8232,4.8439,4.7861,4.813,4.836,4.836,4.8029,4.7637,4.734,4.7301,4.714,4.6811,4.6811,4.6811,4.6811,4.6811,4.6588,4.6169,4.5818,4.5578,4.5602,4.5591,4.5591,4.5602,4.6017,4.621,4.6259,4.6612,4.6952,4.7403,4.8409,4.9536,5.0617,5.1621,5.2553,5.3225,5.3225,5.3225,5.3225,5.3225,5.3225,5.3225,5.3225,5.3225,5.3225,5.3225,5.3225,5.3225,5.3225,5.3225,5.3225,5.3225,5.3225,5.3225,5.3225,5.2858,5.2454,5.2087,5.1646,5.0986,4.9811,4.9591,4.904,4.7388,4.6434,4.5736,4.5296,4.4929,4.5112,4.6214,4.7131,4.7976,4.8746,4.9517,4.9848,4.9481,4.9825,5.0587,5.1825,5.2772,5.3639,5.4428,5.6041,5.6879,5.6978,5.7315,5.8482,6.0419,6.0419,6.1263,6.2805,6.2805,6.2805,6.2879,6.3723,6.4567,6.5375,6.6182,6.6953,6.7687,6.7687,6.7687,6.7687,6.7687,6.8421,6.9522,4.8306,4.8306,4.8269,4.8157,4.7752,4.7417,4.7429,4.8016,4.8097,4.7083,4.8557,4.9283,4.8225,4.8591,4.9018,4.9018,4.9018,4.8754,4.8096,4.8063,4.7799,4.7144,4.7111,4.7111,4.7111,4.7044,4.6978,4.6977,4.6853,4.681,4.6828,4.6777,4.6777,4.6828,4.6912,4.6946,4.6989,4.709,4.7504,4.8096,4.8787,4.9861,5.1176,5.1828,5.2553,5.3225,5.3225,5.3225,5.3225,5.3225,5.3225,5.3225,5.3225,5.3225,5.3225,5.3225,5.3225,5.3225,5.3225,5.3225,5.3225,5.3225,5.3225,5.3225,5.3225,5.3225,5.3004,5.2307,5.216,5.172,5.0215,4.9848,4.9187,4.7388,4.6544,4.5993,4.5736,4.5443,4.5993,4.8049,4.8636,4.9407,5.0839,5.161,5.1752,5.1229,5.1863,5.2536,5.3178,5.3548,5.3922,5.4323,5.5861,5.6367,5.5724,5.651,5.8014,6.0237,6.0334,6.1263,6.2805,6.2805,6.2805,6.2879,6.3833,6.4677,6.5375,6.6292,6.7063,6.7687,6.7687,6.7687,6.7687,6.7687,6.8715,7.011,4.8306,4.8306,4.8121,4.7642,4.7457,4.7446,4.7578,4.7664,4.7955,4.8424,4.8783,4.8951,4.8821,4.8951,4.9018,4.9018,4.9018,4.8951,4.8821,4.8821,4.8787,4.8686,4.8686,4.8686,4.8686,4.8063,4.776,4.7747,4.7133,4.6809,4.6776,4.6802,4.6836,4.6809,4.7429,4.7717,4.7763,4.8388,4.8748,4.8855,4.9548,5.0351,5.1188,5.1834,5.2553,5.3225,5.3225,5.3225,5.3225,5.3225,5.3225,5.3225,5.3225,5.3225,5.3225,5.3225,5.3225,5.3225,5.3225,5.3225,5.3225,5.3225,5.3225,5.3225,5.3225,5.3225,5.3188,5.3041,5.3004,5.2747,5.1793,5.1059,4.9848,4.7498,4.7021,4.6434,4.5076,4.6544,4.7902,4.8269,5.0141,5.1536,5.1793,5.194,5.2242,5.2795,5.2943,5.309,5.3317,5.4558,5.4795,5.3589,5.5094,5.5836,5.5724,5.651,5.7758,5.947,6.0103,6.1263,6.2805,6.2805,6.2805,6.2915,6.4457,6.5191,6.5411,6.688,6.7577,6.7687,6.7687,6.7687,6.7687,6.7687,6.8715,7.011,4.8306,4.8306,4.8084,4.7494,4.6916,4.6695,4.7038,4.7408,4.7854,4.8258,4.8987,4.9317,4.9018,4.9018,4.9018,4.9018,4.9018,4.9018,4.9018,4.9018,4.9018,4.9018,4.9018,4.9018,4.9018,4.8686,4.8489,4.8489,4.813,4.7995,4.7995,4.801,4.801,4.7995,4.8326,4.8504,4.8498,4.887,4.9018,4.9018,4.9317,4.9848,5.0609,5.1286,5.1993,5.2663,5.3036,5.3225,5.3225,5.3225,5.3225,5.3225,5.3225,5.3225,5.3225,5.3225,5.3225,5.3225,5.3225,5.3225,5.3225,5.3225,5.3225,5.3225,5.3225,5.3225,5.3225,5.3225,5.3225,5.2968,5.216,5.1683,5.0802,4.8783,4.8049,4.7645,4.7388,4.7902,4.8666,4.958,5.1036,5.1998,5.2061,5.2417,5.2826,5.3147,5.2895,5.3069,5.3898,5.3928,5.3903,5.4052,5.4371,5.473,5.5084,5.5472,5.6652,5.8673,5.9417,6.0653,6.2166,6.2567,6.2805,6.2915,6.4567,6.5301,6.5411,6.7026,6.7687,6.7687,6.7687,6.7687,6.7687,6.7687,6.8715,7.011,4.8306,4.8157,4.7901,4.7311,4.6363,4.5874,4.6327,4.7056,4.7637,4.7866,4.8984,4.9548,4.9052,4.9018,4.9018,4.9018,4.9018,4.9018,4.9018,4.9018,4.9018,4.9018,4.9018,4.9018,4.9018,4.9018,4.9018,4.9018,4.9018,4.9018,4.9018,4.9018,4.9018,4.9018,4.9018,4.9018,4.9018,4.9018,4.9018,4.9018,4.9018,4.9413,5.0086,5.083,5.1556,5.2218,5.2926,5.3225,5.3225,5.3225,5.3225,5.3225,5.3225,5.3225,5.3225,5.3225,5.3335,5.3445,5.3261,5.3225,5.3225,5.3225,5.3225,5.3225,5.3225,5.3225,5.3225,5.3225,5.3225,5.3004,5.238,5.2123,5.1536,5.0105,4.9334,4.904,4.9517,4.9334,4.9651,5.1004,5.2017,5.2498,5.2376,5.3039,5.3432,5.3274,5.2966,5.3265,5.4209,5.3369,5.3297,5.4293,5.3783,5.3783,5.4328,5.4544,5.5645,5.7857,5.8673,5.9943,6.1604,6.2271,6.2618,6.2915,6.4567,6.5301,6.5411,6.7026,6.7687,6.7687,6.7687,6.7687,6.7687,6.7687,6.8715,7.011,4.8306,4.7826,4.7274,4.6574,4.5963,4.5614,4.5716,4.6406,4.7111,4.7799,4.8591,4.9052,4.9018,4.9018,4.9018,4.9018,4.9018,4.9018,4.9018,4.9018,4.9018,4.9018,4.9018,4.9018,4.9018,4.9018,4.9018,4.9018,4.9018,4.9018,4.9018,4.9018,4.9018,4.9018,4.9018,4.9018,4.9018,4.9018,4.9018,4.9018,4.9018,4.9413,5.0107,5.0788,5.1529,5.2218,5.2926,5.3225,5.3225,5.3225,5.3225,5.3225,5.3225,5.3225,5.3225,5.3225,5.3739,5.4142,5.3408,5.3225,5.3225,5.3225,5.3225,5.3225,5.3225,5.3225,5.3225,5.3225,5.3225,5.3188,5.3115,5.2491,5.172,5.0839,5.0655,5.0362,4.9701,5.0802,5.1793,5.1899,5.3256,5.3916,5.3195,5.3904,5.4099,5.3435,5.3975,5.4126,5.3615,5.4132,5.4132,5.3618,5.3518,5.3518,5.3551,5.4264,5.5397,5.6987,5.7797,5.938,6.1604,6.1659,6.2076,6.2915,6.4567,6.5301,6.5411,6.7026,6.7687,6.7687,6.7687,6.7687,6.7687,6.7687,6.8715,7.011,4.8306,4.7716,4.7062,4.6482,4.5577,4.5128,4.5614,4.634,4.7081,4.7793,4.8523,4.9018,4.9018,4.9018,4.9018,4.9018,4.9018,4.9018,4.9018,4.9018,4.9018,4.9018,4.9018,4.9018,4.9018,4.9018,4.9018,4.9018,4.9018,4.9018,4.9018,4.9018,4.9018,4.9018,4.9018,4.9018,4.9018,4.9018,4.9018,4.9018,4.9018,4.9182,4.948,5.0175,5.0611,5.0952,5.2108,5.2517,5.259,5.3036,5.3225,5.3298,5.3781,5.3965,5.4069,5.4546,5.4913,5.506,5.4766,5.4326,5.3812,5.3335,5.3225,5.3225,5.3225,5.3225,5.3225,5.3225,5.3225,5.3225,5.3225,5.2968,5.2637,5.2344,5.1867,5.161,5.1793,5.238,5.2558,5.2174,5.3508,5.3963,5.2745,5.3373,5.3742,5.3402,5.3701,5.3768,5.3484,5.3783,5.3783,5.3518,5.3518,5.3518,5.3518,5.4226,5.5142,5.6167,5.7409,5.8717,6.0051,6.064,6.0997,6.1394,6.2974,6.3657,6.386,6.5989,6.6546,6.6053,6.67,6.6546,6.5992,6.5992,6.6998,6.8363,4.8047,4.7384,4.6699,4.6232,4.5264,4.4778,4.5264,4.6169,4.6999,4.7463,4.836,4.9018,4.9018,4.9018,4.9018,4.9018,4.9018,4.9018,4.9018,4.9018,4.9018,4.9018,4.9018,4.9018,4.9018,4.9018,4.9018,4.9018,4.9018,4.9018,4.9018,4.9018,4.9018,4.9018,4.9018,4.9018,4.9018,4.9018,4.9018,4.9018,4.9018,4.9018,4.9052,4.9746,5.0007,5.0151,5.1346,5.1828,5.1846,5.2364,5.2852,5.3335,5.3897,5.4406,5.4943,5.5757,5.5978,5.5978,5.5978,5.5574,5.495,5.4142,5.3959,5.3959,5.3959,5.3959,5.3885,5.3628,5.3592,5.3518,5.3261,5.32,5.3215,5.3215,5.2959,5.2959,5.3543,5.3616,5.3443,5.2941,5.3882,5.4029,5.2761,5.3333,5.366,5.3444,5.3477,5.3518,5.3518,5.3518,5.3518,5.3518,5.3518,5.3518,5.3518,5.4228,5.4972,5.5716,5.6987,5.815,5.9111,5.9704,6.0149,6.0503,6.2025,6.2698,6.2868,6.5037,6.5554,6.5065,6.5681,6.5554,6.4999,6.4999,6.5813,6.6982,4.7494,4.6868,4.6218,4.5623,4.5004,4.4587,4.4587,4.5874,4.6771,4.6776,4.8063,4.8984,4.9018,4.9018,4.9018,4.9018,4.9018,4.9018,4.9018,4.9018,4.9018,4.9018,4.9018,4.9018,4.9018,4.9018,4.9018,4.9018,4.9018,4.9018,4.9018,4.9018,4.9018,4.9018,4.9018,4.9018,4.9018,4.9018,4.9018,4.9018,4.9018,4.9018,4.9052,4.9746,5.0011,5.0079,5.081,5.1105,5.1098,5.1098,5.2102,5.3335,5.3335,5.4356,5.5742,5.6557,5.6822,5.6822,5.6822,5.6822,5.6602,5.5794,5.5574,5.5574,5.5574,5.5574,5.5354,5.4583,5.4399,5.4179,5.3371,5.3208,5.3219,5.3219,5.394,5.4481,5.4481,5.4517,5.4517,5.4517,5.451,5.4218,5.3463,5.4094,5.4264,5.3551,5.3518,5.3518,5.3518,5.3518,5.3518,5.3518,5.3518,5.3518,5.3518,5.4228,5.4972,5.5716,5.6461,5.76,5.9111,5.9111,5.9574,6.0441,6.2025,6.2698,6.2804,6.4362,6.4999,6.4999,6.4999,6.4999,6.4999,6.4999,6.5495,6.6274,4.7494,4.6874,4.6222,4.5623,4.5004,4.4587,4.4587,4.5422,4.6248,4.6742,4.7603,4.8456,4.8951,4.9018,4.9018,4.9018,4.9018,4.9018,4.9018,4.9018,4.9018,4.9018,4.9018,4.9018,4.9018,4.9018,4.9018,4.9018,4.9018,4.9018,4.9018,4.9018,4.9018,4.9018,4.9018,4.9018,4.9018,4.9018,4.9018,4.9018,4.9018,4.9018,4.9018,4.9215,4.9283,4.948,5.0741,5.1149,5.1354,5.2292,5.293,5.3474,5.4615,5.5697,5.6658,5.7446,5.7629,5.7629,5.7629,5.7629,5.7299,5.5941,5.5574,5.5485,5.4953,5.5222,5.5367,5.4615,5.4447,5.4375,5.4157,5.3656,5.3247,5.3247,5.346,5.3691,5.3691,5.4154,5.4292,5.3822,5.4255,5.426,5.3574,5.3713,5.3717,5.3518,5.3518,5.3518,5.3518,5.3518,5.3518,5.3518,5.3518,5.3518,5.3518,5.4735,5.548,5.575,5.6968,5.7789,5.8246,5.8246,5.8388,5.8736,6.0247,6.0865,6.1074,6.3203,6.3719,6.324,6.3829,6.3684,6.3165,6.3165,6.3645,6.4366,4.709,4.6495,4.5874,4.523,4.4812,4.4587,4.4587,4.523,4.5943,4.6727,4.7484,4.8192,4.8951,4.9018,4.9018,4.9018,4.9018,4.9018,4.9018,4.9018,4.9018,4.9018,4.9018,4.9018,4.9018,4.9018,4.9018,4.9018,4.9018,4.9018,4.9018,4.9018,4.9018,4.9018,4.9018,4.9018,4.9018,4.9018,4.9018,4.9018,4.9018,4.9018,4.9018,4.9018,4.9215,4.9548,5.0475,5.0992,5.1312,5.2149,5.2887,5.3645,5.5207,5.6025,5.6486,5.6939,5.7304,5.7498,5.7216,5.7315,5.7243,5.5934,5.5898,5.5993,5.5519,5.5568,5.541,5.4681,5.4506,5.4399,5.4076,5.367,5.3322,5.3322,5.3625,5.3835,5.3835,5.4221,5.436,5.3914,5.4052,5.4011,5.3551,5.3518,5.3518,5.3518,5.3518,5.3518,5.3518,5.3518,5.3518,5.3518,5.3518,5.3518,5.3518,5.4972,5.5716,5.575,5.7205,5.7881,5.7881,5.7881,5.7881,5.7983,5.9471,6.0114,6.0291,6.2358,6.2855,6.2459,6.2973,6.2855,6.2381,6.2381,6.2685,6.3125,4.6339,4.5901,4.5354,4.471,4.4587,4.4587,4.4587,4.5162,4.5874,4.6623,4.7352,4.8063,4.8821,4.8984,4.9018,4.9018,4.9018,4.8984,4.8855,4.8951,4.8951,4.8754,4.8951,4.8951,4.8754,4.8951,4.9018,4.9018,4.9018,4.9018,4.9018,4.9018,4.9018,4.9018,4.9018,4.9018,4.9018,4.9018,4.9018,4.9018,4.9018,4.9018,4.9018,4.9018,4.9419,5.0147,5.0181,5.0649,5.1329,5.1396,5.2371,5.3754,5.5178,5.564,5.561,5.5684,5.6241,5.6599,5.5893,5.6259,5.6616,5.5893,5.6204,5.6668,5.6668,5.6204,5.5455,5.4635,5.4494,5.4282,5.3576,5.3439,5.3418,5.3418,5.4033,5.4482,5.4482,5.4482,5.4482,5.4482,5.3881,5.3518,5.3518,5.3518,5.3518,5.3518,5.3518,5.3518,5.3518,5.3518,5.3518,5.3518,5.3518,5.3551,5.3585,5.5006,5.5716,5.575,5.7205,5.7881,5.7881,5.7881,5.7881,5.7983,5.937,6.0047,6.0216,6.167,6.2347,6.2381,6.2381,6.2381,6.2381,6.2381,6.2381,6.2516,4.58,4.5603,4.5354,4.471,4.4587,4.4587,4.4587,4.4744,4.5128,4.584,4.66,4.734,4.8063,4.8686,4.9018,4.9018,4.9018,4.872,4.7962,4.8591,4.8326,4.6882,4.8225,4.8293,4.6848,4.8259,4.9018,4.9018,4.9018,4.9018,4.9018,4.9018,4.9018,4.9018,4.9018,4.9018,4.9018,4.9018,4.9018,4.9018,4.9018,4.9018,4.9018,4.9018,4.9463,5.0146,5.075,5.1461,5.2169,5.2775,5.3213,5.3686,5.4567,5.4834,5.4926,5.5529,5.5846,5.5918,5.5738,5.5836,5.5893,5.578,5.5379,5.5119,5.5119,5.5437,5.5482,5.473,5.4574,5.4539,5.4365,5.3857,5.3479,5.3479,5.3615,5.3717,5.3717,5.3717,5.3717,5.3717,5.3618,5.3518,5.3518,5.3518,5.3518,5.3518,5.3518,5.3518,5.3518,5.3518,5.3518,5.3518,5.3518,5.3788,5.4363,5.5243,5.5716,5.575,5.7205,5.7881,5.7881,5.7881,5.7881,5.7949,5.8863,5.9573,6.0182,6.1129,6.1873,6.2381,6.2381,6.2381,6.2381,6.2381,6.2381,6.2516,4.5528,4.5264,4.497,4.4677,4.4587,4.4587,4.4587,4.4587,4.4902,4.5614,4.6065,4.6709,4.7793,4.8259,4.8591,4.8984,4.8591,4.8096,4.7603,4.7603,4.7237,4.62,4.7141,4.7204,4.6229,4.7206,4.7634,4.7637,4.8096,4.8096,4.7637,4.7637,4.7637,4.7637,4.8096,4.8326,4.8326,4.8787,4.9018,4.9018,4.9018,4.9018,4.9052,4.9367,4.9974,5.0747,5.1457,5.2201,5.2944,5.3349,5.3518,5.3551,5.3991,5.4093,5.4127,5.4567,5.4898,5.5139,5.4745,5.4939,5.5084,5.473,5.4391,5.4171,5.4544,5.4606,5.4544,5.4171,5.4106,5.4106,5.4106,5.3783,5.3518,5.3518,5.3518,5.3518,5.3518,5.3518,5.3518,5.3518,5.3518,5.3518,5.3518,5.3518,5.3518,5.3518,5.3518,5.3518,5.3518,5.3518,5.3518,5.3518,5.3518,5.3856,5.4566,5.5344,5.5886,5.6258,5.734,5.7881,5.7881,5.7881,5.7881,5.7915,5.8693,5.9438,6.0148,6.096,6.1738,6.2381,6.2381,6.2381,6.2381,6.2381,6.2381,6.2516,4.523,4.4936,4.4587,4.4587,4.4587,4.4587,4.4587,4.4587,4.4812,4.5422,4.5614,4.618,4.741,4.776,4.8063,4.8523,4.7995,4.7483,4.7141,4.6508,4.6041,4.5734,4.6002,4.6084,4.5701,4.6033,4.6224,4.6196,4.6971,4.6977,4.6191,4.6191,4.6322,4.6453,4.724,4.7661,4.7866,4.8686,4.9018,4.9018,4.9018,4.9052,4.9221,4.9877,5.0615,5.1451,5.2061,5.284,5.3518,5.3518,5.3518,5.3518,5.3518,5.3518,5.3518,5.3518,5.3957,5.4296,5.3686,5.3946,5.4264,5.3685,5.3518,5.3685,5.4264,5.3946,5.3518,5.3518,5.3518,5.3518,5.3518,5.3518,5.3518,5.3518,5.3518,5.3518,5.3518,5.3518,5.3518,5.3518,5.3518,5.3518,5.3518,5.3518,5.3518,5.3518,5.3518,5.3518,5.3518,5.3518,5.3518,5.3518,5.3518,5.3923,5.4769,5.5412,5.6156,5.7002,5.7611,5.7881,5.7881,5.7881,5.7881,5.7915,5.8558,5.9302,6.0148,6.0825,6.1603,6.2381,6.2381,6.2381,6.2381,6.2381,6.2381,6.2482,4.471,4.4677,4.4587,4.4587,4.4587,4.4587,4.4587,4.4587,4.4677,4.4744,4.5264,4.5784,4.6,4.7166,4.7603,4.6882,4.7306,4.6881,4.5248,4.5848,4.5476,4.3791,4.5275,4.5367,4.3761,4.5306,4.6224,4.6196,4.6303,4.6361,4.6191,4.6191,4.6624,4.7432,4.7526,4.8045,4.8821,4.8951,4.9018,4.9018,4.9018,4.9351,4.9949,5.0038,5.0955,5.2202,5.2234,5.2807,5.3518,5.3518,5.3518,5.3518,5.3518,5.3518,5.3518,5.3518,5.3551,5.3619,5.3518,5.3551,5.3618,5.3484,5.3518,5.3518,5.3618,5.3551,5.3518,5.3518,5.3518,5.3518,5.3518,5.3518,5.3518,5.3518,5.3518,5.3518,5.3518,5.3518,5.3518,5.3518,5.3518,5.3518,5.3518,5.3518,5.3518,5.3518,5.3518,5.3518,5.3518,5.3518,5.3518,5.3518,5.3518,5.416,5.5547,5.5683,5.6393,5.7746,5.7848,5.7881,5.7881,5.7881,5.7881,5.7881,5.8017,5.8829,6.0114,6.0216,6.1095,6.2381,6.2381,6.2381,6.2381,6.2381,6.2381,6.2415,4.4587,4.4587,4.4587,4.4587,4.4587,4.4587,4.4587,4.4587,4.4587,4.4587,4.4902,4.523,4.5648,4.6191,4.6406,4.5996,4.5262,4.4725,4.4316,4.4157,4.3818,4.3359,4.4127,4.4157,4.3359,4.4157,4.4557,4.4566,4.5126,4.513,4.4558,4.4558,4.513,4.6045,4.6589,4.7307,4.8225,4.8225,4.8225,4.8225,4.8225,4.8686,4.9452,5.0351,5.1361,5.2369,5.2841,5.3213,5.3518,5.3518,5.3518,5.3518,5.3518,5.3518,5.3518,5.3518,5.3518,5.3518,5.3518,5.3518,5.3518,5.3518,5.3518,5.3518,5.3518,5.3518,5.3518,5.3518,5.3518,5.3518,5.3518,5.3518,5.3518,5.3518,5.3518,5.3518,5.3518,5.3518,5.3518,5.3518,5.3518,5.3518,5.3518,5.3518,5.3518,5.3518,5.3518,5.3518,5.3518,5.3518,5.3518,5.3518,5.3518,5.4025,5.5074,5.5513,5.6258,5.7273,5.7679,5.7881,5.7881,5.7881,5.7881,5.7881,5.7881,5.849,5.9505,5.9505,6.0385,6.1772,6.1772,6.2042,6.2381,6.2381,6.2381,6.2381]},{"header":{"parameterUnit":"m.s-1","parameterCategory":1,"la1":30.6,"la2":28.766,"lo1":-90.7593,"lo2":-88.6598,"dy":0.0162,"dx":0.0183,"nx":116,"ny":114,"refTime":"2024-08-03T12:00:00:Z","depth":0,"parameterNumber":3,"parameterNumberName":"V-component_of_WINDS"},"data":[0.0,0.0,0.0,0.0,0.0,0.0,0.0,0.0,0.0,0.0,0.0,0.0,0.0,0.0,0.0,0.0,0.0,0.0,0.0,0.0,0.0,0.0,0.0,0.0,0.0,0.0,0.0,0.0,0.0,0.0,0.0,0.0,0.0,0.0,0.0,0.0,0.0,0.0,0.0,0.0,0.0,0.0,0.0,0.0,0.0,0.0,0.0,0.0,0.0,0.0,0.0,0.0,0.0,0.0,0.0,0.0,0.0,0.0,0.0,0.0,0.0,0.0,0.0,0.0,0.0,0.0,0.0,0.0,0.0,0.0,0.0,0.0,0.0,0.0,0.0,0.0,0.0,0.0,0.0,0.0,0.0,0.0,0.0,0.0,0.0,0.0,0.0,0.0,0.0,0.0,0.0,0.0,0.0,0.0,0.0,0.0,0.0,0.0,0.0,0.0,0.0,0.0,0.0,0.0,0.0,0.0,0.0,0.0,0.0,0.0,0.0,0.0,0.0,0.0,0.0,0.0,0.0,0.0,0.0,0.0,0.0,0.0,0.0,0.0,0.0,0.0,0.0,0.0,0.0,0.0,0.0,0.0,0.0,0.0,0.0,0.0,0.0,0.0,0.0,0.0,0.0,0.0,0.0,0.0,0.0,0.0,0.0,0.0,0.0,0.0,0.0,0.0,0.0,0.0,0.0,0.0,0.0,0.0,0.0,0.0,0.0,0.0,0.0,0.0,0.0,0.0,0.0,0.0,0.0,0.0,0.0,0.0,0.0,0.0,0.0,0.0,0.0,0.0,0.0,0.0,0.0,0.0,0.0,0.0,0.0,0.0,0.0,0.0,0.0,0.0,0.0,0.0,0.0,0.0,0.0,0.0,0.0,0.0,0.0,0.0,0.0,0.0,0.0,0.0,0.0,0.0,0.0,0.0,0.0,0.0,0.0,0.0,0.0,0.0,0.0,0.0,0.0,0.0,0.0,0.0,0.0,0.0,0.0,0.0,0.0,0.0,0.0,0.0,0.0,0.0,0.0,0.0,0.0,0.0,0.0,0.0,0.0,0.0,0.0,0.0,0.0,0.0,0.0,0.0,0.0,0.0,0.0,0.0,0.0,0.0,0.0,0.0,0.0,0.0,0.0,0.0,0.0,0.0,0.0,0.0,0.0,0.0,0.0,0.0,0.0,0.0,0.0,0.0,0.0,0.0,0.0,0.0,0.0,0.0,0.0,0.0,0.0,0.0,0.0,0.0,0.0,0.0,0.0,0.0,0.0,0.0,0.0,0.0,0.0,0.0,0.0,0.0,0.0,0.0,0.0,0.0,0.0,0.0,0.0,0.0,0.0,0.0,0.0,0.0,0.0,0.0,0.0,0.0,0.0,0.0,0.0,0.0,0.0,0.0,0.0,0.0,0.0,0.0,0.0,0.0,0.0,0.0,0.0,0.0,0.0,0.0,0.0,0.0,0.0,0.0,0.0,0.0,0.0,0.0,0.0,0.0,0.0,0.0,0.0,0.0,0.0,0.0,0.0,0.0,0.0,0.0,0.0,0.0,0.0,0.0,0.0,0.0,0.0,0.0,0.0,0.0,0.0,0.0,0.0,0.0,0.0,0.0,0.0,0.0,0.0,0.0,0.0,0.0,0.0,0.0,0.0,0.0,0.0,0.0,0.0,0.0,0.0,0.0,0.0,0.0,0.0,0.0,0.0,0.0,0.0,0.0,0.0,0.0,0.0,0.0,0.0,0.0,0.0,0.0,0.0,0.0,0.0,0.0,0.0,0.0,0.0,0.0,0.0,0.0,0.0,0.0,0.0,0.0,0.0,0.0,0.0,0.0,0.0,0.0,0.0,0.0,0.0,0.0,0.0,0.0,0.0,0.0,0.0,0.0,0.0,0.0,0.0,0.0,0.0,0.0,0.0,0.0,0.0,0.0,0.0,0.0,0.0,0.0,0.0,0.0,0.0,0.0,0.0,0.0,0.0,0.0,0.0,0.0,0.0,0.0,0.0,0.0,0.0,0.0,0.0,0.0,0.0,0.0,0.0,0.0,0.0,0.0,0.0,0.0,0.0,0.0,0.0,0.0,0.0,0.0,0.0,0.0,0.0,0.0,0.0,0.0,0.0,0.0,0.0,0.0,0.0,0.0,0.0,0.0,0.0,0.0,0.0,0.0,0.0,0.0,0.0,0.0,0.0,0.0,0.0,0.0,0.0,0.0,0.0,0.0,0.0,0.0,0.0,0.0,0.0,0.0,0.0,0.0,0.0,0.0,0.0,0.0,0.0,0.0,0.0,0.0,0.0,0.0,0.0,0.0,0.0,0.0,0.0,0.0,0.0,0.0,0.0,0.0,0.0,0.0,0.0,0.0,0.0,0.0,0.0,0.0,0.0,0.0,0.0,0.0,0.0,0.0,0.0,0.0,0.0,0.0,0.0,0.0,0.0,0.0,0.0,0.0,0.0,0.0,0.0,0.0,0.0,0.0,0.0,0.0,0.0,0.0,0.0,0.0,0.0,0.0,0.0,0.0,0.0,0.0,0.0,0.0,0.0,0.0,0.0,0.0,0.0,0.0,0.0,0.0,0.0,0.0,0.0,0.0,0.0,0.0,0.0,0.0,0.0,0.0,0.0,0.0,0.0,0.0,0.0,0.0,0.0,0.0,0.0,0.0,0.0,0.0,0.0,0.0,0.0,0.0,0.0,0.0,0.0,0.0,0.0,0.0,0.0,0.0,0.0,0.0,0.0,0.0,0.0,0.0,0.0,0.0,0.0,0.0,0.0,0.0,0.0,0.0,0.0,0.0,0.0,0.0,0.0,0.0,0.0,0.0,0.0,0.0,0.0,0.0,0.0,0.0,0.0,0.0,0.0,0.0,0.0,0.0,0.0,0.0,0.0,0.0,0.0,0.0,0.0,0.0,0.0,0.0,0.0,0.0,0.0,0.0,0.0,0.0,0.0,0.0,0.0,0.0,0.0,0.0,0.0,0.0,0.0,0.0,0.0,0.0,0.0,0.0,0.0,0.0,0.0,0.0,0.0,0.0,0.0,0.0,0.0,0.0,0.0,0.0,0.0,0.0,0.0,0.0,0.0,0.0,0.0,0.0,0.0,0.0,0.0,0.0,0.0,0.0,0.0,0.0,0.0,0.0,0.0,0.0,0.0,0.0,0.0,0.0,0.0,0.0,0.0,0.0,0.0,0.0,0.0,0.0,0.0,0.0,0.0,0.0,0.0,0.0,0.0,0.0,0.0,0.0,0.0,0.0,0.0,0.0,0.0,0.0,0.0,0.0,0.0,0.0,0.0,0.0,0.0,0.0,0.0,0.0,0.0,0.0,0.0,0.0,0.0,0.0,0.0,0.0,0.0,0.0,0.0,0.0,0.0,0.0,0.0,0.0,0.0,0.0,0.0,0.0,0.0,0.0,0.0,0.0,0.0,0.0,0.0,0.0,0.0,0.0,0.0,0.0,0.0,0.0,0.0,0.0,0.0,0.0,0.0,0.0,0.0,0.0,0.0,0.0,0.0,0.0,0.0,0.0,0.0,0.0,0.0,0.0,0.0,0.0,0.0,0.0,0.0,0.0,0.0,0.0,0.0,0.0,0.0,0.0,0.0,0.0,0.0,0.0,0.0,0.0,0.0,0.0,0.0,0.0,0.0,0.0,0.0,0.0,0.0,0.0,0.0,0.0,0.0,0.0,0.0,0.0,0.0,0.0,0.0,0.0,0.0,0.0,0.0,0.0,0.0,0.0,0.0,0.0,0.0,0.0,0.0,0.0,0.0,0.0,0.0,0.0,0.0,0.0,0.0,0.0,0.0,0.0,0.0,0.0,0.0,0.0,0.0,0.0,0.0,0.0,0.0,0.0,0.0,0.0,0.0,0.0,0.0,0.0,0.0,0.0,0.0,0.0,0.0,0.0,0.0,0.0,0.0,0.0,0.0,0.0,0.0,0.0,0.0,0.0,0.0,0.0,0.0,0.0,0.0,0.0,0.0,0.0,0.0,0.0,0.0,0.0,0.0,0.0,0.0,0.0,0.0,0.0,0.0,0.0,0.0,0.0,0.0,0.0,0.0,0.0,0.0,0.0,0.0,0.0,0.0,0.0,0.0,0.0,0.0,0.0,0.0,0.0,0.0,0.0,0.0,0.0,0.0,0.0,0.0,0.0,0.0,0.0,0.0,0.0,0.0,0.0,0.0,0.0,0.0,0.0,0.0,0.0,0.0,0.0,0.0,0.0,0.0,0.0,0.0,0.0,0.0,0.0,0.0,0.0,0.0,0.0,0.0,0.0,0.0,0.0,0.0,0.0,0.0,0.0,0.0,0.0,0.0,0.0,0.0,0.0,0.0,0.0,0.0,0.0,0.0,0.0,0.0,0.0,0.0,0.0,0.0,0.0,0.0,0.0,0.0,0.0,0.0,0.0,0.0,0.0,0.0,0.0,0.0,0.0,0.0,0.0,0.0,0.0,0.0,0.0,0.0,0.0,0.0,0.0,0.0,0.0,0.0,0.0,0.0,0.0,0.0,0.0,0.0,0.0,0.0,0.0,0.0,0.0,0.0,0.0,0.0,0.0,0.0,0.0,0.0,0.0,0.0,0.0,0.0,0.0,0.0,0.0,0.0,0.0,0.0,0.0,0.0,0.0,0.0,0.0,0.0,0.0,0.0,0.0,0.0,0.0,0.0,0.0,0.0,0.0,0.0,0.0,0.0,0.0,0.0,0.0,0.0,0.0,0.0,0.0,0.0,0.0,0.0,0.0,0.0,0.0,0.0,0.0,0.0,0.0,0.0,0.0,0.0,0.0,0.0,0.0,0.0,0.0,0.0,0.0,0.0,0.0,0.0,0.0,0.0,0.0,0.0,0.0,0.0,0.0,0.0,0.0,0.0,0.0,0.0,0.0,0.0,0.0,0.0,0.0,0.0,0.0,0.0,0.0,0.0,0.0,0.0,0.0,0.0,0.0,0.0,0.0,0.0,0.0,0.0,0.0,0.0,0.0,0.0,0.0,0.0,0.0,0.0,0.0,0.0,0.0,0.0,0.0,0.0,0.0,0.0,0.0,0.0,0.0,0.0,0.0,0.0,0.0,0.0,0.0,0.0,0.0,0.0,0.0,0.0,0.0,0.0,0.0,0.0,0.0,0.0,0.0,0.0,0.0,0.0,0.0,0.0,0.0,0.0,0.0,0.0,0.0,0.0,0.0,0.0,0.0,0.0,0.0,0.0,0.0,0.0,0.0,0.0,0.0,0.0,0.0,0.0,0.0,0.0,0.0,0.0,0.0,0.0,0.0,0.0,0.0,0.0,0.0,0.0,0.0,0.0,0.0,0.0,0.0,0.0,0.0,0.0,0.0,0.0,0.0,0.0,0.0,0.0,0.0,0.0,0.0,0.0,0.0,0.0,0.0,0.0,0.0,0.0,0.0,0.0,0.0,0.0,0.0,0.0,0.0,0.0,0.0,0.0,0.0,0.0,0.0,0.0,0.0,0.0,0.0,0.0,0.0,0.0,0.0,0.0,0.0,0.0,0.0,0.0,0.0,0.0,0.0,0.0,0.0,0.0,0.0,0.0,0.0,0.0,0.0,0.0,0.0,0.0,0.0,0.0,0.0,0.0,0.0,0.0,0.0,0.0,0.0,0.0,0.0,0.0,0.0,0.0,0.0,0.0,0.0,0.0,0.0,0.0,0.0,0.0,0.0,0.0,0.0,0.0,0.0,0.0,0.0,0.0,0.0,0.0,0.0,0.0,0.0,0.0,0.0,0.0,0.0,0.0,0.0,0.0,0.0,0.0,0.0,0.0,0.0,0.0,0.0,0.0,0.0,0.0,0.0,0.0,0.0,0.0,0.0,0.0,0.0,0.0,0.0,0.0,0.0,0.0,0.0,0.0,0.0,0.0,0.0,0.0,0.0,0.0,0.0,0.0,0.0,0.0,0.0,0.0,0.0,0.0,0.0,0.0,0.0,0.0,0.0,0.0,0.0,0.0,0.0,0.0,0.0,0.0,0.0,0.0,0.0,0.0,0.0,0.0,0.0,0.0,0.0,0.0,0.0,0.0,0.0,0.0,0.0,0.0,0.0,0.0,0.0,0.0,0.0,0.0,0.0,0.0,0.0,0.0,0.0,0.0,0.0,0.0,0.0,0.0,0.0,0.0,0.0,0.0,0.0,0.0,0.0,0.0,0.0,0.0,0.0,0.0,0.0,0.0,0.0,0.0,0.0,0.0,0.0,0.0,-0.2391,-0.3128,-0.3135,-0.2614,-0.2567,-0.3294,0.0,0.0,0.0,0.0,0.0,-0.2644,-0.2489,-0.2474,-0.2668,-0.2021,-0.1149,0.0,0.0,0.0,0.0,0.0,0.0,0.0,0.0,0.0,0.0,0.0,0.0,0.0,0.0,0.0,0.0,0.0,0.0,0.0,0.0,0.0,0.0,0.0,0.0,0.0,0.0,0.0,0.0,0.0,0.0,0.0,0.0,0.0,0.0,0.0,0.0,0.0,0.0,0.0,0.0,0.0,0.0,0.0,0.0,0.0,0.0,0.0,0.0,0.0,0.0,0.0,0.0,0.0,0.0,0.0,0.0,0.0,0.0,0.0,0.0,0.0,0.0,0.0,0.0,0.0,0.0,0.0,0.0,0.0,0.0,0.0,0.0,0.0,0.0,0.0,0.0,0.0,0.0,0.0,0.0,0.0,0.0,0.0,0.0,0.0,0.0,0.0,0.0,0.0,0.0,0.0,0.0,0.0,0.0,0.0,0.0,0.0,-0.2041,-0.2635,-0.3257,-0.365,-0.3754,-0.2724,-0.24,-0.3175,-0.341,0.0,0.0,0.0,-0.326,-0.3542,-0.3573,-0.3589,-0.3623,-0.3585,-0.2364,0.0,0.0,0.0,0.0,0.0,0.0,0.0,0.0,0.0,0.0,0.0,0.0,0.0,0.0,0.0,0.0,0.0,0.0,0.0,0.0,0.0,0.0,0.0,0.0,0.0,0.0,0.0,0.0,0.0,0.0,0.0,0.0,0.0,0.0,0.0,0.0,0.0,0.0,0.0,0.0,0.0,0.0,0.0,0.0,0.0,0.0,0.0,0.0,0.0,0.0,0.0,0.0,0.0,0.0,0.0,0.0,0.0,0.0,0.0,0.0,0.0,0.0,0.0,0.0,0.0,0.0,0.0,0.0,-0.339,-0.1017,0.0,0.0,0.0,0.0,0.0,0.0,0.0,0.0,0.0,0.0,0.0,0.0,0.0,0.0,0.0,0.0,0.0,0.0,0.0,0.0,0.0,0.0,0.0,0.0,0.0,0.0,0.0,-0.2038,-0.263,-0.3224,-0.3796,-0.4346,-0.3605,-0.3282,-0.3774,-0.3398,0.0,0.0,-0.3283,-0.3324,-0.3406,-0.3538,-0.3595,-0.3605,-0.3579,-0.2382,0.0,0.0,0.0,0.0,0.0,0.0,0.0,0.0,0.0,0.0,0.0,0.0,0.0,0.0,0.0,0.0,0.0,0.0,0.0,0.0,0.0,0.0,0.0,0.0,0.0,0.0,0.0,0.0,0.0,0.0,0.0,0.0,0.0,0.0,0.0,0.0,0.0,0.0,0.0,0.0,0.0,0.0,0.0,0.0,0.0,0.0,0.0,0.0,0.0,0.0,0.0,0.0,0.0,0.0,0.0,0.0,0.0,0.0,0.0,0.0,0.0,0.0,0.0,-0.4735,-0.0,0.0,-0.0437,-0.121,-0.5606,-0.5008,0.0,0.0,0.0,0.0,0.0,0.0,0.0,0.0,0.0,0.0,0.0,0.0,0.0,0.0,0.0,0.0,0.0,0.0,0.0,0.0,0.0,0.0,0.0,0.0,0.0,0.0,0.0,0.0,0.0,-0.3354,-0.3855,-0.3975,-0.3766,-0.3656,-0.3704,-0.3493,-0.3407,-0.348,-0.348,-0.3514,-0.364,-0.3624,-0.3579,-0.3614,-0.3961,-0.2699,0.0,0.0,0.0,0.0,0.0,0.0,0.0,0.0,0.0,0.0,0.0,0.0,0.0,0.0,0.0,0.0,0.0,0.0,0.0,0.0,0.0,0.0,0.0,0.0,0.0,0.0,0.0,0.0,0.0,0.0,0.0,0.0,0.0,0.0,0.0,0.0,0.0,0.0,0.0,0.0,0.0,0.0,0.0,0.0,0.0,0.0,0.0,-0.4126,-0.297,-0.0286,0.0,0.0,0.0,0.0,0.0,0.0,0.0,0.0,0.0,0.0,0.0,-0.01,-0.2296,-0.3805,-0.4531,-0.1515,0.0,-0.0,-0.2592,-0.2503,0.0,0.0,0.0,0.0,0.0,0.0,0.0,0.0,0.0,0.0,0.0,0.0,0.0,0.0,0.0,0.0,0.0,0.0,0.0,0.0,0.0,0.0,0.0,0.0,0.0,0.0,0.0,0.0,-0.2899,-0.35,-0.386,-0.3851,-0.3532,-0.3395,0.0,-0.3554,-0.3612,-0.3643,-0.3602,-0.3649,-0.3785,-0.3368,-0.336,-0.3856,-0.3532,-0.2172,0.0,0.0,0.0,0.0,0.0,0.0,0.0,0.0,0.0,0.0,0.0,0.0,0.0,0.0,0.0,0.0,0.0,0.0,0.0,0.0,0.0,0.0,0.0,0.0,0.0,0.0,0.0,0.0,0.0,0.0,0.0,0.0,0.0,0.0,0.0,0.0,0.0,0.0,0.0,0.0,0.0,0.0,0.0,0.0,0.0,0.0,0.0,-0.5718,-0.5208,-0.2208,-0.1372,-0.1063,0.0,0.0,0.0,0.0,0.0,0.0,0.0,-0.3751,-0.479,-0.2138,-0.2553,-0.3823,-0.59,-0.1993,0.0,0.0,0.0,0.0,0.0,0.0,0.0,0.0,0.0,0.0,0.0,0.0,0.0,0.0,0.0,0.0,0.0,0.0,0.0,0.0,0.0,0.0,0.0,0.0,0.0,0.0,0.0,0.0,0.0,0.0,0.0,-0.2905,-0.3479,-0.3609,-0.3851,-0.4392,-0.2912,-0.2235,0.0,0.0,-0.3657,-0.3778,-0.3649,-0.3649,-0.3785,-0.2523,-0.2739,-0.4446,-0.1591,-0.0138,0.0,0.0,0.0,0.0,0.0,0.0,0.0,0.0,0.0,0.0,0.0,0.0,0.0,0.0,0.0,0.0,0.0,0.0,0.0,0.0,0.0,0.0,0.0,0.0,0.0,0.0,0.0,0.0,0.0,0.0,0.0,0.0,0.0,0.0,0.0,0.0,0.0,0.0,0.0,0.0,0.0,0.0,0.0,0.0,0.0,0.0,0.0,0.0,0.0,-0.6512,-0.5003,0.0,0.0,0.0,0.0,-0.7214,-0.2892,0.0,0.0,-0.0229,-0.2609,-0.75,-0.9268,-0.6981,-0.0515,-0.013,0.0,0.0,0.0,0.0,0.0,0.0,0.0,0.0,0.0,0.0,0.0,0.0,0.0,0.0,0.0,0.0,0.0,0.0,0.0,0.0,0.0,0.0,0.0,-0.1792,-0.1792,-0.1792,-0.1799,-0.1788,-0.1934,-0.2335,-0.256,-0.3066,0.0,-0.4183,-0.4249,-0.4478,-0.3928,-0.3554,-0.3632,0.0,-0.3857,-0.385,-0.3799,-0.3784,-0.3912,-0.2685,-0.1888,-0.1593,-0.0495,0.0,0.0,0.0,0.0,0.0,0.0,0.0,0.0,0.0,0.0,0.0,0.0,0.0,0.0,0.0,0.0,0.0,0.0,0.0,0.0,0.0,0.0,0.0,0.0,0.0,0.0,0.0,0.0,0.0,0.0,0.0,0.0,0.0,0.0,0.0,0.0,0.0,0.0,0.0,0.0,0.0,0.0,0.0,0.0,0.0,0.0,0.0,0.0,0.0,0.0,-0.7836,-0.7046,0.0,-0.6565,-0.5698,-0.4553,-0.2969,-0.4302,-0.367,-0.0238,0.0,-0.0875,-0.283,-0.792,-0.9465,-0.6929,-0.2262,0.0,0.0,0.0,0.0,0.0,0.0,0.0,0.0,0.0,0.0,0.0,0.0,0.0,0.0,0.0,0.0,0.0,0.0,0.0,0.0,0.0,-0.238,0.0,-0.2376,-0.2062,-0.1792,-0.1799,-0.1808,-0.2023,-0.263,-0.2714,-0.3168,-0.4368,-0.4496,-0.4068,-0.3081,-0.3929,-0.4401,-0.42,-0.3678,-0.3595,-0.4002,-0.3999,-0.4004,-0.3995,-0.2822,-0.1464,0.0,0.0,0.0,0.0,0.0,0.0,0.0,0.0,0.0,0.0,0.0,0.0,0.0,0.0,0.0,0.0,0.0,0.0,0.0,0.0,0.0,0.0,0.0,0.0,0.0,0.0,0.0,0.0,0.0,0.0,0.0,0.0,0.0,0.0,0.0,0.0,0.0,0.0,0.0,0.0,0.0,0.0,0.0,0.0,0.0,0.0,0.0,0.0,0.0,0.0,0.0,-0.7588,-0.8326,-0.824,-0.8062,-0.8112,-0.7225,-0.5552,-0.2894,-0.4282,-0.3791,-0.0252,0.0,0.0,0.0,-0.4646,-0.8296,-1.0739,-0.593,-0.2418,0.0,0.0,0.0,0.0,0.0,0.0,0.0,0.0,0.0,0.0,0.0,0.0,0.0,0.0,0.0,0.0,0.0,0.0,0.0,-0.3508,-0.3499,-0.349,-0.3446,-0.2526,-0.1806,-0.1813,-0.1814,-0.2015,-0.2606,-0.2724,-0.3209,-0.4375,-0.4481,-0.3329,-0.0387,-0.279,-0.449,-0.4484,-0.3091,-0.287,-0.4148,-0.4402,-0.434,-0.4019,-0.2814,-0.1451,0.0,0.0,0.0,0.0,0.0,0.0,0.0,0.0,0.0,0.0,0.0,0.0,0.0,0.0,0.0,0.0,0.0,0.0,0.0,0.0,0.0,0.0,0.0,0.0,0.0,0.0,0.0,0.0,0.0,0.0,0.0,0.0,0.0,0.0,0.0,0.0,0.0,0.0,0.0,0.0,0.0,0.0,0.0,0.0,0.0,0.0,0.0,0.0,0.0,-0.6959,-0.7468,-0.7957,-0.8262,-0.8696,-0.8752,-0.8425,-0.5656,-0.5011,-0.7547,-0.2884,0.0,0.0,0.0,0.0,0.0,0.0,-0.336,-1.0322,-1.0578,-0.7152,0.0,0.0,0.0,0.0,0.0,0.0,0.0,0.0,0.0,0.0,0.0,0.0,0.0,0.0,0.0,0.0,0.0,0.0,0.0,-0.3511,-0.3503,-0.3232,-0.2402,-0.2011,-0.1811,-0.1807,-0.179,-0.2015,-0.2606,-0.3449,-0.4114,-0.4471,-0.4517,-0.4161,-0.335,-0.4045,-0.4504,-0.4504,-0.4079,-0.4034,-0.4402,-0.4755,-0.4859,-0.4677,-0.3048,-0.1445,0.0,0.0,0.0,0.0,0.0,0.0,0.0,0.0,0.0,0.0,0.0,0.0,0.0,0.0,0.0,0.0,0.0,0.0,0.0,0.0,0.0,0.0,0.0,0.0,0.0,0.0,0.0,0.0,0.0,0.0,0.0,0.0,0.0,0.0,0.0,0.0,0.0,0.0,0.0,0.0,0.0,0.0,0.0,0.0,0.0,0.0,0.0,-0.7082,-0.757,-0.757,-0.8085,-0.8574,-0.8872,-0.932,-0.9493,-0.9155,-0.4189,-0.1391,-0.2197,-0.078,0.0,0.0,0.0,0.0,0.0,0.0,-0.094,-0.2963,-0.8107,-0.7152,0.0,0.0,0.0,0.0,0.0,0.0,0.0,0.0,0.0,0.0,0.0,0.0,0.0,0.0,0.0,0.0,0.0,0.0,0.0,-0.3506,-0.3511,-0.3134,-0.1988,-0.1807,-0.1892,-0.2135,-0.217,-0.2299,-0.2669,-0.3534,-0.4199,-0.4458,-0.4506,-0.449,-0.4497,-0.4504,-0.4219,-0.3593,-0.4187,-0.4678,-0.4889,-0.5087,-0.5239,-0.5256,-0.3423,-0.1645,0.0,0.0,0.0,0.0,0.0,0.0,0.0,0.0,0.0,0.0,0.0,0.0,0.0,0.0,0.0,0.0,0.0,0.0,0.0,0.0,0.0,0.0,0.0,0.0,0.0,0.0,0.0,0.0,0.0,0.0,0.0,0.0,0.0,0.0,0.0,0.0,0.0,0.0,0.0,0.0,0.0,0.0,0.0,0.0,0.0,0.0,0.0,-0.774,-0.8255,-0.8445,-0.8771,-0.9103,-0.9395,-0.962,-0.9764,-0.9784,-0.631,-0.3006,-0.0266,0.0,0.0,0.0,0.0,0.0,0.0,0.0,0.0,0.0,-0.4174,-0.4174,0.0,0.0,0.0,0.0,0.0,0.0,0.0,0.0,0.0,0.0,0.0,0.0,0.0,0.0,0.0,0.0,0.0,0.0,0.0,-0.3506,-0.3503,-0.3146,-0.1995,-0.1799,-0.2004,-0.2611,-0.2696,-0.269,-0.2694,0.0,-0.3837,-0.4444,-0.449,-0.4484,-0.4497,-0.4497,-0.3934,-0.2579,-0.3892,-0.4925,-0.5411,-0.5413,-0.5567,-0.5764,-0.402,-0.207,0.0,0.0,0.0,0.0,0.0,0.0,0.0,0.0,0.0,0.0,0.0,0.0,0.0,0.0,0.0,0.0,0.0,0.0,0.0,0.0,0.0,0.0,0.0,0.0,0.0,0.0,0.0,0.0,0.0,0.0,0.0,0.0,0.0,0.0,0.0,0.0,0.0,0.0,0.0,0.0,0.0,0.0,0.0,0.0,0.0,0.0,0.0,-0.8391,-0.8933,-0.9347,-0.9435,-0.9551,-0.9815,-0.9875,-0.9843,-0.9745,-0.9808,-0.7185,-0.0538,0.0,0.0,0.0,0.0,0.0,0.0,0.0,0.0,0.0,0.0,0.0,0.0,0.0,0.0,0.0,0.0,0.0,0.0,0.0,0.0,0.0,0.0,0.0,0.0,0.0,0.0,0.0,0.0,0.0,0.0,-0.3506,-0.3503,-0.3146,-0.1995,-0.1796,-0.199,-0.2615,-0.27,-0.2712,-0.2712,-0.3217,-0.3841,-0.4442,-0.4488,-0.4497,-0.4497,-0.4504,-0.4439,0.0,0.0,-0.5142,-0.5418,-0.5718,-0.5889,-0.577,-0.5662,-0.3756,0.0,0.0,0.0,0.0,0.0,0.0,0.0,0.0,0.0,0.0,0.0,0.0,0.0,0.0,0.0,0.0,0.0,0.0,0.0,0.0,0.0,0.0,0.0,0.0,0.0,0.0,0.0,0.0,0.0,0.0,0.0,0.0,0.0,0.0,0.0,0.0,0.0,0.0,0.0,0.0,0.0,0.0,0.0,0.0,0.0,0.0,-0.8275,-0.8859,-0.9327,-0.9537,-0.9768,-0.9944,-0.9998,-1.0035,-0.8904,-0.6161,-0.8673,-0.7536,-0.0538,0.0,0.0,0.0,0.0,0.0,0.0,0.0,0.0,0.0,0.0,0.0,0.0,0.0,0.0,0.0,0.0,0.0,0.0,0.0,0.0,0.0,0.0,0.0,0.0,0.0,0.0,0.0,0.0,0.0,0.0,-0.3506,-0.3511,-0.3148,-0.1997,-0.1807,-0.1999,-0.2599,-0.2705,-0.2748,-0.287,-0.3153,-0.3575,-0.4175,-0.4226,-0.3943,-0.3239,-0.3899,0.0,0.0,-0.5013,-0.5205,-0.5513,-0.5815,-0.6023,-0.6046,-0.621,-0.4252,0.0,0.0,0.0,0.0,0.0,0.0,0.0,0.0,0.0,0.0,0.0,0.0,0.0,0.0,0.0,0.0,0.0,0.0,0.0,0.0,0.0,0.0,0.0,0.0,0.0,0.0,0.0,-0.0191,0.0,0.0,0.0,0.0,0.0,0.0,0.0,0.0,0.0,0.0,0.0,0.0,0.0,0.0,-0.7238,-0.7543,0.0,-0.8499,-0.8872,-0.9245,-0.9578,-0.9795,-0.9958,-0.9955,-1.0042,-1.0075,-0.9583,-0.7985,-0.6305,-0.3905,-0.0269,0.0,0.0,0.0,0.0,0.0,0.0,0.0,0.0,0.0,0.0,0.0,0.0,0.0,0.0,0.0,0.0,0.0,0.0,0.0,0.0,0.0,0.0,0.0,0.0,0.0,0.0,0.0,0.0,0.0,0.0,-0.3506,-0.3498,-0.3215,-0.2283,-0.233,-0.2532,-0.2668,-0.269,-0.2769,-0.2988,-0.301,-0.3236,-0.3865,-0.3928,-0.3456,0.0,0.0,0.0,0.0,-0.5081,-0.5306,-0.5669,-0.5544,-0.5701,-0.6329,-0.5526,-0.3388,0.0,0.0,0.0,0.0,0.0,0.0,0.0,0.0,0.0,0.0,0.0,0.0,0.0,0.0,0.0,0.0,0.0,0.0,0.0,0.0,0.0,0.0,0.0,0.0,0.0,0.0,-0.056,-0.1492,-0.297,-0.308,0.0,0.0,0.0,0.0,0.0,0.0,0.0,0.0,0.0,-0.6871,-0.7204,-0.7678,-0.8113,-0.8391,-0.8764,-0.9123,-0.9415,-0.9598,-0.9788,-1.0059,-1.012,-1.0069,-1.0088,-0.9559,-0.9569,-1.0551,-0.4174,0.0,0.0,0.0,0.0,0.0,0.0,0.0,0.0,0.0,0.0,0.0,0.0,0.0,0.0,0.0,0.0,0.0,0.0,0.0,0.0,0.0,0.0,0.0,0.0,0.0,0.0,0.0,0.0,0.0,0.0,0.0,0.0,-0.3506,-0.3506,-0.3468,-0.3347,-0.4186,-0.44,-0.2937,-0.2691,-0.272,-0.2723,-0.2744,-0.2964,-0.3594,-0.3663,-0.3746,0.0,0.0,0.0,-0.4891,-0.5182,-0.5488,-0.5676,-0.4256,-0.4302,-0.625,-0.2594,-0.0476,0.0,0.0,0.0,0.0,0.0,0.0,0.0,0.0,0.0,0.0,0.0,0.0,0.0,0.0,0.0,0.0,0.0,0.0,0.0,0.0,0.0,0.0,0.0,0.0,0.0,0.0,-0.2586,-0.5656,-0.5839,0.0,-0.3188,-0.5527,-0.6162,-0.6254,-0.6532,-0.6614,-0.6865,0.0,0.0,-0.7984,-0.8418,-0.8669,-0.8859,-0.9022,-0.9205,-0.9429,-0.9727,-0.9897,-1.0059,-1.0229,-1.0256,-1.037,-1.0273,-0.7491,-0.6881,-1.0411,-0.4174,0.0,0.0,0.0,0.0,0.0,0.0,0.0,0.0,0.0,0.0,0.0,0.0,0.0,0.0,0.0,0.0,0.0,0.0,0.0,0.0,0.0,0.0,0.0,0.0,0.0,0.0,0.0,0.0,0.0,0.0,0.0,0.0,-0.3506,-0.3506,-0.3507,-0.3495,-0.4488,-0.4718,-0.2959,-0.2708,-0.2686,-0.2704,-0.2695,-0.2857,-0.3202,-0.337,-0.3605,-0.404,-0.4073,-0.4294,-0.4884,-0.5196,-0.5508,-0.5761,-0.4042,-0.2973,-0.2672,-0.0875,0.0,0.0,0.0,0.0,0.0,0.0,0.0,0.0,0.0,0.0,0.0,0.0,0.0,0.0,0.0,0.0,0.0,0.0,0.0,0.0,0.0,0.0,0.0,0.0,0.0,-0.037,-0.2445,-0.4123,-0.5123,-0.463,-0.4533,0.0,-0.6512,-0.6771,-0.6763,0.0,-0.7414,-0.7617,-0.8153,-0.835,-0.8533,-0.8893,-0.9157,-0.9347,-0.9408,-0.9537,-0.9707,0.0,-1.0005,-1.0141,-1.027,-1.0419,-1.046,-1.0582,-0.9252,-0.7294,-0.4708,-0.1749,0.0,0.0,0.0,0.0,0.0,0.0,0.0,0.0,0.0,0.0,0.0,0.0,0.0,0.0,0.0,0.0,0.0,0.0,0.0,0.0,0.0,0.0,0.0,0.0,0.0,0.0,0.0,0.0,0.0,0.0,0.0,0.0,-0.3506,-0.3506,-0.3488,-0.3506,-0.4489,-0.4858,-0.3606,-0.3005,-0.2693,-0.271,-0.2695,-0.2766,-0.3023,-0.3256,-0.3514,-0.3921,-0.3995,-0.4239,-0.4762,-0.5114,-0.5447,-0.5779,-0.4618,0.0,-0.0079,0.0,0.0,0.0,0.0,0.0,0.0,0.0,0.0,0.0,0.0,0.0,0.0,0.0,0.0,0.0,0.0,0.0,0.0,0.0,0.0,0.0,0.0,0.0,0.0,0.0,-0.0643,-0.1932,-0.4549,-0.5109,-0.4671,-0.419,-0.5202,-0.6476,-0.7068,-0.7244,0.0,-0.7821,-0.8113,-0.833,-0.8479,-0.8743,-0.9022,-0.9232,-0.949,-0.9666,-0.9666,-0.9754,-0.9883,-1.008,-1.0114,-1.0229,-1.0424,-0.9676,-0.938,-1.0595,-1.0754,-0.7837,-0.0669,0.0,0.0,0.0,0.0,0.0,0.0,0.0,0.0,0.0,0.0,0.0,0.0,0.0,0.0,0.0,0.0,0.0,0.0,0.0,0.0,0.0,0.0,0.0,0.0,0.0,0.0,0.0,0.0,0.0,0.0,0.0,0.0,0.0,-0.3506,-0.3506,-0.3488,-0.3506,-0.4488,-0.529,-0.5219,-0.3779,-0.2711,-0.2685,-0.2706,-0.2801,-0.3048,-0.3384,-0.3652,-0.3771,-0.3934,-0.4151,-0.4512,-0.4904,-0.5298,-0.5762,-0.6089,-0.4274,-0.0081,0.0,0.0,0.0,0.0,0.0,0.0,0.0,0.0,0.0,0.0,0.0,0.0,0.0,0.0,0.0,0.0,0.0,0.0,0.0,0.0,0.0,0.0,0.0,0.0,0.0,-0.2301,-0.5271,-0.5395,-0.5377,0.0,-0.6277,-0.6878,0.0,0.0,0.0,-0.8045,-0.8214,-0.8587,-0.8947,-0.9089,-0.9361,-0.9585,-0.9591,-0.9713,-0.9815,-0.9815,-0.9815,-0.9917,-1.0222,-1.0276,-1.0385,-1.0704,-0.768,-0.6836,-1.034,-1.0636,-0.7822,-0.0659,0.0,0.0,0.0,0.0,0.0,0.0,0.0,0.0,0.0,0.0,0.0,0.0,0.0,0.0,0.0,0.0,0.0,0.0,0.0,0.0,0.0,0.0,0.0,0.0,0.0,0.0,0.0,0.0,0.0,0.0,0.0,0.0,0.0,-0.3506,-0.3485,-0.3766,-0.4555,-0.5012,-0.5298,-0.5313,-0.4812,-0.4426,-0.4416,-0.4314,0.0,0.0,0.0,0.0,0.0,-0.417,-0.4144,-0.4498,-0.4891,-0.4717,-0.3813,-0.5359,-0.4289,-0.0078,0.0,0.0,0.0,0.0,0.0,0.0,0.0,0.0,0.0,0.0,0.0,0.0,0.0,0.0,0.0,0.0,0.0,0.0,0.0,0.0,0.0,0.0,0.0,0.0,0.0,-0.1593,-0.3599,-0.3614,0.0,0.0,-0.6325,0.0,-0.719,-0.7685,0.0,-0.8275,-0.8628,-0.8899,-0.9144,-0.9401,-0.9537,-0.9612,-0.9612,-0.9564,-0.9496,-0.9395,-0.9381,-0.951,-0.991,-1.0059,-1.0283,-1.0591,-0.7695,-0.6714,-1.0228,-0.6477,-0.2638,-0.0264,0.0,0.0,0.0,0.0,0.0,0.0,0.0,0.0,0.0,0.0,0.0,0.0,0.0,0.0,0.0,0.0,0.0,0.0,0.0,0.0,0.0,0.0,0.0,0.0,0.0,0.0,0.0,0.0,0.0,0.0,0.0,0.0,0.0,-0.3501,-0.3852,-0.4391,-0.5182,-0.5312,0.0,0.0,0.0,0.0,0.0,0.0,0.0,0.0,0.0,0.0,0.0,0.0,-0.4293,-0.434,-0.468,-0.4244,-0.2857,-0.3608,-0.2749,-0.0074,0.0,0.0,0.0,0.0,0.0,0.0,0.0,0.0,0.0,0.0,0.0,0.0,0.0,0.0,0.0,0.0,0.0,0.0,0.0,-0.0683,0.0,0.0,0.0,0.0,-0.1441,-0.2122,0.0,0.0,0.0,0.0,0.0,-0.7,-0.7489,-0.8228,-0.8425,-0.8547,-0.9049,-0.9245,-0.9381,-0.9632,-0.9652,-0.9605,-0.9544,-0.9408,-0.9144,-0.9103,-0.9076,-0.9239,-0.9741,-0.9787,-1.0049,-1.0578,-0.8778,-0.7252,-0.6872,-0.2768,0.0,0.0,0.0,0.0,0.0,0.0,0.0,0.0,0.0,0.0,0.0,0.0,0.0,0.0,0.0,0.0,0.0,0.0,0.0,0.0,0.0,0.0,0.0,0.0,0.0,0.0,0.0,0.0,0.0,0.0,0.0,0.0,0.0,0.0,0.0,-0.3573,-0.4502,-0.532,0.0,0.0,0.0,0.0,0.0,0.0,0.0,0.0,0.0,0.0,0.0,0.0,0.0,0.0,0.0,-0.3995,-0.4307,0.0,-0.3106,-0.1263,-0.0198,-0.0139,-0.014,-0.0072,0.0,0.0,0.0,0.0,0.0,0.0,0.0,0.0,0.0,0.0,0.0,0.0,0.0,0.0,0.0,-0.0,-0.0148,0.0,0.0,0.0,0.0,0.0,0.0,0.0,0.0,0.0,0.0,0.0,0.0,0.0,-0.816,-0.8601,-0.8737,-0.8893,-0.9469,-0.9618,-0.9652,-0.9781,-0.984,-0.9703,-0.9272,-0.9003,-0.8858,-0.8789,-0.8886,-0.9096,-0.968,-0.9579,-0.9692,-1.0399,-1.0677,-0.8065,0.0,0.0,0.0,0.0,0.0,0.0,0.0,0.0,0.0,0.0,0.0,0.0,0.0,0.0,0.0,0.0,0.0,0.0,0.0,0.0,0.0,0.0,0.0,0.0,0.0,0.0,0.0,0.0,0.0,0.0,0.0,0.0,0.0,0.0,0.0,0.0,0.0,0.0,0.0,0.0,0.0,0.0,0.0,0.0,0.0,0.0,0.0,0.0,0.0,0.0,0.0,0.0,0.0,0.0,0.0,-0.3894,0.0,0.0,0.0,0.0,0.0,-0.1642,-0.1611,0.0,0.0,0.0,0.0,0.0,0.0,0.0,0.0,0.0,0.0,0.0,0.0,0.0,0.0,0.0,0.0,-0.0217,0.0,0.0,0.0,0.0,0.0,0.0,0.0,0.0,0.0,0.0,-0.6803,-0.7183,0.0,0.0,-0.8445,-0.8784,-0.9123,-0.9415,-0.9571,-0.97,-0.9774,-0.9827,-0.9836,-0.9149,-0.7054,-0.7594,-0.8397,-0.8011,-0.8214,0.0,-0.9083,-0.9419,0.0,-0.8233,-0.9528,0.0,-0.0801,0.0,0.0,0.0,0.0,0.0,0.0,0.0,0.0,0.0,0.0,0.0,0.0,0.0,0.0,0.0,0.0,0.0,0.0,0.0,0.0,0.0,0.0,0.0,0.0,0.0,0.0,0.0,0.0,0.0,0.0,0.0,0.0,0.0,0.0,0.0,0.0,0.0,0.0,0.0,0.0,0.0,0.0,0.0,0.0,0.0,0.0,0.0,0.0,0.0,0.0,0.0,0.0,0.0,0.0,0.0,0.0,0.0,0.0,0.0,0.0,-0.3209,-0.3206,0.0,0.0,0.0,0.0,0.0,-0.0941,-0.0953,-0.0967,-0.0979,-0.0984,-0.0984,0.0,0.0,0.0,0.0,0.0,0.0,0.0,0.0,0.0,0.0,0.0,0.0,0.0,0.0,-0.6838,-0.7062,-0.7389,-0.7773,-0.8018,0.0,-0.8845,-0.915,-0.9415,-0.9625,-0.97,-0.9741,-0.9447,-0.7985,-0.8431,-0.8523,-0.6044,-0.6776,-0.768,-0.7468,-0.7767,-0.8235,0.0,0.0,0.0,-0.8682,-0.9788,-0.8644,0.0,-0.0956,0.0,0.0,0.0,0.0,0.0,0.0,0.0,0.0,0.0,0.0,0.0,0.0,0.0,0.0,0.0,0.0,0.0,0.0,0.0,0.0,0.0,0.0,0.0,0.0,0.0,0.0,0.0,0.0,0.0,0.0,0.0,0.0,0.0,0.0,0.0,0.0,0.0,0.0,0.0,0.0,0.0,0.0,0.0,0.0,0.0,0.0,0.0,0.0,0.0,0.0,0.0,0.0,0.0,0.0,0.0,0.0,0.0,0.0,0.0,0.0,0.0,0.0,0.0,0.0,0.0,0.0,0.0,0.0,0.0,0.0,0.0,0.0,0.0,0.0,0.0,0.0,0.0,0.0,0.0,0.0,0.0,0.0,0.0,0.0,0.0,-0.6654,-0.7122,-0.738,-0.7943,-0.854,-0.8696,-0.8954,-0.9245,-0.953,-0.9625,-0.9673,-0.9815,-0.9486,-0.8419,-0.5643,-0.6587,-0.7602,-0.5973,0.0,-0.704,-0.7021,-0.7434,-0.795,-0.8554,0.0,-0.9916,-1.0405,-1.067,-0.9344,-0.5873,-0.2196,0.0,0.0,0.0,0.0,0.0,0.0,0.0,0.0,0.0,0.0,0.0,0.0,0.0,0.0,0.0,0.0,0.0,0.0,0.0,0.0,0.0,0.0,0.0,0.0,0.0,0.0,0.0,0.0,0.0,0.0,0.0,0.0,0.0,0.0,0.0,0.0,0.0,0.0,0.0,0.0,0.0,0.0,0.0,0.0,0.0,0.0,0.0,0.0,0.0,0.0,0.0,0.0,0.0,0.0,0.0,0.0,0.0,0.0,0.0,0.0,0.0,0.0,0.0,0.0,0.0,0.0,0.0,0.0,0.0,0.0,0.0,0.0,0.0,0.0,0.0,0.0,0.0,0.0,0.0,0.0,0.0,0.0,0.0,0.0,0.0,-0.717,-0.7855,-0.7909,-0.8269,-0.8703,-0.8852,-0.911,-0.9381,-0.9557,-0.9693,-0.9788,-0.9822,-0.7817,-0.5718,-0.5626,-0.5712,0.0,0.0,-0.6511,-0.6479,-0.662,-0.7061,-0.7645,-0.8248,-0.8852,-0.953,-1.0371,-1.0685,-0.9347,0.0,-0.2213,0.0,0.0,0.0,0.0,0.0,0.0,0.0,0.0,0.0,0.0,0.0,0.0,0.0,0.0,0.0,0.0,0.0,0.0,0.0,0.0,0.0,0.0,0.0,0.0,0.0,0.0,0.0,0.0,0.0,0.0,0.0,0.0,0.0,0.0,0.0,0.0,0.0,0.0,0.0,0.0,0.0,0.0,0.0,0.0,0.0,0.0,0.0,0.0,0.0,0.0,0.0,0.0,0.0,0.0,0.0,0.0,0.0,0.0,0.0,0.0,0.0,0.0,0.0,0.0,0.0,0.0,0.0,0.0,0.0,0.0,0.0,0.0,0.0,0.0,0.0,0.0,0.0,0.0,0.0,0.0,0.0,0.0,0.0,0.0,0.0,-0.6824,-0.7746,-0.8058,-0.8465,-0.8859,-0.9008,-0.9266,-0.953,-0.968,-0.9768,-0.9808,-0.962,-0.8431,-0.6606,-0.4774,0.0,0.0,0.0,-0.6335,-0.6271,-0.6274,-0.6797,0.0,-0.7848,-0.8486,-0.9211,-1.0025,-1.0565,-1.0195,-0.8544,-0.5178,-0.227,-0.0144,0.0,0.0,0.0,0.0,0.0,0.0,0.0,0.0,0.0,0.0,0.0,0.0,0.0,0.0,0.0,0.0,0.0,0.0,0.0,0.0,0.0,0.0,0.0,0.0,0.0,0.0,0.0,0.0,0.0,0.0,0.0,0.0,0.0,0.0,0.0,0.0,0.0,0.0,0.0,0.0,0.0,0.0,0.0,0.0,0.0,0.0,0.0,0.0,0.0,0.0,0.0,0.0,0.0,0.0,0.0,0.0,0.0,0.0,0.0,0.0,0.0,0.0,0.0,0.0,0.0,0.0,0.0,0.0,0.0,0.0,0.0,0.0,0.0,0.0,0.0,0.0,0.0,0.0,0.0,0.0,0.0,0.0,0.0,-0.624,-0.7109,-0.7773,-0.8357,-0.8832,-0.9008,-0.9273,-0.9551,-0.9727,-0.9795,-0.9788,-0.9546,-0.9381,-0.8244,-0.4931,-0.5467,0.0,0.0,-0.6132,-0.6132,-0.6044,0.0,-0.7129,0.0,-0.8147,-0.8859,-0.97,-1.0364,-1.0939,0.0,-0.863,0.0,-0.2912,-0.1766,0.0,-0.1341,-0.0453,0.0,0.0,0.0,0.0,0.0,0.0,0.0,0.0,0.0,0.0,0.0,0.0,0.0,0.0,0.0,0.0,0.0,0.0,0.0,0.0,0.0,0.0,0.0,0.0,0.0,0.0,0.0,0.0,0.0,0.0,0.0,0.0,0.0,0.0,0.0,0.0,0.0,0.0,0.0,0.0,0.0,0.0,0.0,0.0,0.0,0.0,0.0,0.0,0.0,0.0,0.0,0.0,0.0,0.0,0.0,0.0,0.0,0.0,0.0,0.0,0.0,0.0,0.0,0.0,0.0,0.0,0.0,0.0,0.0,0.0,0.0,0.0,0.0,0.0,0.0,0.0,0.0,0.0,0.0,0.0,-0.5908,-0.6776,-0.7645,-0.8384,-0.8669,0.0,0.0,-0.9551,-0.972,-0.9788,-0.9646,-0.9293,-0.8696,-0.7756,0.0,0.0,-0.6315,-0.603,-0.5881,-0.601,-0.6308,-0.677,-0.7482,0.0,-0.8506,-0.9659,-1.0086,-1.0644,-1.1145,0.0,0.0,-1.0963,-0.7851,-0.5648,-0.5716,-0.2133,0.0,0.0,0.0,0.0,0.0,0.0,0.0,0.0,0.0,0.0,0.0,0.0,0.0,0.0,0.0,0.0,0.0,0.0,0.0,0.0,0.0,0.0,0.0,0.0,0.0,0.0,0.0,0.0,0.0,0.0,0.0,0.0,0.0,0.0,0.0,0.0,0.0,0.0,0.0,0.0,0.0,0.0,0.0,0.0,0.0,0.0,0.0,0.0,0.0,0.0,0.0,0.0,0.0,0.0,0.0,0.0,0.0,0.0,0.0,0.0,0.0,0.0,0.0,0.0,0.0,0.0,0.0,0.0,0.0,0.0,0.0,0.0,0.0,0.0,0.0,0.0,0.0,0.0,0.0,0.0,0.0,-0.601,-0.6675,0.0,0.0,-0.8581,-0.8974,-0.9367,-0.9578,-0.9659,-0.951,-0.9205,-0.8737,-0.7957,0.0,-0.6542,-0.622,-0.6023,-0.5956,-0.6017,-0.6274,-0.6661,-0.7231,-0.7502,-0.7991,-0.9008,-0.9408,-0.9897,-1.0683,-1.0989,0.0,0.0,0.0,-0.9833,-1.0042,-0.3874,0.0,0.0,0.0,0.0,0.0,0.0,0.0,0.0,0.0,0.0,0.0,0.0,0.0,0.0,0.0,0.0,0.0,0.0,0.0,0.0,0.0,0.0,0.0,0.0,0.0,0.0,0.0,0.0,0.0,0.0,0.0,0.0,0.0,0.0,0.0,0.0,0.0,0.0,0.0,0.0,0.0,0.0,0.0,0.0,0.0,0.0,0.0,0.0,0.0,0.0,0.0,0.0,0.0,0.0,0.0,0.0,0.0,0.0,0.0,0.0,0.0,0.0,0.0,0.0,0.0,0.0,0.0,0.0,0.0,0.0,0.0,0.0,0.0,0.0,0.0,0.0,0.0,0.0,0.0,0.0,0.0,0.0,0.0,0.0,0.0,-0.816,-0.8621,-0.9117,-0.9361,-0.9442,-0.9286,-0.9062,-0.8635,0.0,-0.7217,-0.6756,-0.6152,-0.603,-0.603,-0.603,-0.624,-0.6559,-0.7007,-0.7244,-0.7685,-0.8581,-0.9042,-0.9571,-1.0337,0.0,-1.1172,-1.1748,-1.206,-1.2332,-1.2414,-0.7041,-0.2656,-0.0156,0.0,0.0,0.0,0.0,0.0,0.0,0.0,0.0,0.0,0.0,0.0,0.0,0.0,0.0,0.0,0.0,0.0,0.0,0.0,0.0,0.0,0.0,0.0,0.0,0.0,0.0,0.0,0.0,0.0,0.0,0.0,0.0,0.0,0.0,0.0,0.0,0.0,0.0,0.0,0.0,0.0,0.0,0.0,0.0,0.0,0.0,0.0,0.0,0.0,0.0,0.0,0.0,0.0,0.0,0.0,0.0,0.0,0.0,0.0,0.0,0.0,0.0,0.0,0.0,0.0,0.0,0.0,0.0,0.0,0.0,0.0,0.0,0.0,0.0,0.0,0.0,0.0,0.0,0.0,0.0,-0.5474,-0.5833,0.0,-0.7692,-0.8174,-0.8777,-0.9049,-0.9123,-0.8981,-0.8825,-0.8479,-0.7577,-0.7143,-0.6756,-0.6152,-0.603,-0.603,-0.603,-0.6159,-0.641,-0.6858,-0.7177,-0.7685,-0.8581,-0.9225,-0.9774,0.0,0.0,-1.1124,-1.1579,-1.2155,-1.2515,-1.2549,-1.2393,-0.8759,-0.0469,0.0,0.0,0.0,0.0,0.0,0.0,0.0,0.0,0.0,0.0,0.0,0.0,0.0,0.0,0.0,0.0,0.0,0.0,0.0,0.0,0.0,0.0,0.0,0.0,0.0,0.0,0.0,0.0,0.0,0.0,0.0,0.0,0.0,0.0,0.0,0.0,0.0,0.0,0.0,0.0,0.0,0.0,0.0,0.0,0.0,0.0,0.0,0.0,0.0,0.0,0.0,0.0,0.0,0.0,0.0,0.0,0.0,0.0,0.0,0.0,0.0,0.0,0.0,0.0,0.0,0.0,0.0,0.0,0.0,0.0,0.0,0.0,0.0,0.0,0.0,0.0,0.0,0.0,0.0,0.0,0.0,0.0,-0.6125,-0.6831,-0.7489,-0.7787,-0.8126,-0.833,-0.8085,-0.8058,-0.7916,-0.7224,-0.6993,-0.679,-0.6288,-0.6186,-0.6186,-0.6186,-0.6227,-0.6505,-0.7265,-0.7468,0.0,-0.8737,0.0,0.0,-1.0215,-1.1124,-1.1762,0.0,-1.2271,-1.2508,-1.2515,-1.2542,-1.1286,-0.8759,-0.5783,-0.2974,-0.0157,0.0,0.0,0.0,0.0,0.0,0.0,0.0,0.0,0.0,0.0,0.0,0.0,0.0,0.0,0.0,0.0,0.0,0.0,0.0,0.0,0.0,0.0,0.0,0.0,0.0,0.0,0.0,0.0,0.0,0.0,0.0,0.0,0.0,0.0,0.0,0.0,0.0,0.0,0.0,0.0,0.0,0.0,0.0,0.0,0.0,0.0,0.0,0.0,0.0,0.0,0.0,0.0,0.0,0.0,0.0,0.0,0.0,0.0,0.0,0.0,0.0,0.0,0.0,0.0,0.0,0.0,-0.6966,0.0,0.0,0.0,0.0,0.0,0.0,0.0,0.0,0.0,0.0,0.0,0.0,0.0,-0.6023,-0.6661,0.0,-0.7489,-0.7672,-0.7543,-0.7584,-0.7502,-0.6966,-0.6844,-0.6729,-0.6342,-0.6338,-0.6338,-0.6338,-0.6302,-0.6559,-0.7238,-0.7441,-0.7807,0.0,0.0,0.0,-1.0439,0.0,0.0,-1.1972,-1.2291,-1.2501,-1.2501,-1.2522,-1.2542,-1.2556,-1.0025,-0.7361,-0.4863,-0.1725,-0.1569,-0.4711,-0.157,0.0,0.0,0.0,0.0,0.0,0.0,0.0,0.0,0.0,0.0,0.0,0.0,0.0,0.0,0.0,0.0,0.0,0.0,0.0,0.0,0.0,0.0,0.0,0.0,0.0,0.0,0.0,0.0,0.0,0.0,0.0,0.0,0.0,0.0,0.0,0.0,0.0,0.0,0.0,0.0,0.0,0.0,0.0,0.0,0.0,0.0,0.0,0.0,-0.9604,-0.9287,-0.9301,0.0,0.0,0.0,0.0,0.0,0.0,0.0,0.0,0.0,-0.8804,-0.8368,0.0,0.0,0.0,0.0,0.0,0.0,0.0,0.0,0.0,0.0,0.0,0.0,0.0,0.0,0.0,0.0,0.0,-0.7034,-0.7088,-0.7217,-0.7258,-0.7163,-0.6736,-0.6647,0.0,-0.6302,-0.6247,-0.6254,-0.6302,-0.641,-0.6607,-0.6966,-0.7265,0.0,0.0,-0.9096,0.0,0.0,-1.1375,-1.1701,-1.1837,-1.2244,-1.2501,-1.2501,-1.2501,-1.2515,-1.2549,-1.2549,-1.2562,-1.244,-0.5006,-0.4539,-1.1998,-0.4554,-0.0784,-0.0469,-0.0157,0.0,0.0,0.0,0.0,0.0,0.0,0.0,0.0,0.0,0.0,0.0,0.0,0.0,0.0,0.0,0.0,0.0,0.0,0.0,0.0,0.0,0.0,0.0,0.0,0.0,0.0,0.0,0.0,0.0,0.0,0.0,0.0,0.0,0.0,0.0,0.0,0.0,0.0,0.0,0.0,0.0,0.0,0.0,0.0,-1.0688,-1.0234,-1.0042,-1.0057,-0.9824,0.0,0.0,0.0,0.0,0.0,0.0,0.0,0.0,-0.8804,-0.8699,0.0,0.0,0.0,0.0,-0.6804,-0.648,0.0,0.0,0.0,0.0,0.0,0.0,0.0,0.0,-0.535,-0.5182,-0.565,0.0,-0.6247,-0.6057,-0.6179,-0.6288,0.0,-0.6105,-0.6166,-0.6098,0.0,-0.6227,-0.6688,-0.6702,-0.6932,-0.7814,0.0,-0.8486,-0.9239,0.0,0.0,-1.1233,-1.1681,-1.1972,-1.2006,-1.2305,-1.2501,-1.2501,-1.2501,-1.2508,-1.2515,-1.2515,-1.2528,-1.2562,-1.0653,-0.8925,-0.7833,-0.8949,-0.7998,-0.4847,-0.1565,0.0,0.0,0.0,0.0,0.0,0.0,0.0,0.0,0.0,0.0,0.0,0.0,0.0,0.0,0.0,0.0,0.0,0.0,0.0,0.0,0.0,0.0,0.0,0.0,0.0,0.0,0.0,0.0,0.0,0.0,0.0,0.0,0.0,0.0,0.0,0.0,0.0,0.0,0.0,0.0,0.0,0.0,0.0,0.0,0.0,0.0,-1.0647,0.0,0.0,0.0,0.0,0.0,0.0,0.0,0.0,0.0,0.0,-0.8804,0.0,0.0,0.0,0.0,0.0,-0.7783,-0.7396,0.0,-0.7128,-0.6858,-0.6534,0.0,0.0,0.0,0.0,-0.5035,-0.4863,-0.5094,-0.5583,-0.6023,-0.6003,-0.6166,-0.6315,-0.6234,0.0,0.0,0.0,0.0,-0.6274,-0.6736,-0.6865,0.0,0.0,-0.8343,0.0,0.0,0.0,-1.1084,-1.145,-1.183,-1.206,-1.206,-1.2332,-1.2501,-1.2501,-1.2501,-1.2501,-1.2501,-1.2501,-1.2508,-1.2528,-1.2528,-1.143,-0.9236,-1.1317,-1.1317,-0.908,-0.6893,-0.3758,0.0,0.0,0.0,0.0,0.0,0.0,0.0,0.0,0.0,0.0,0.0,0.0,0.0,0.0,0.0,0.0,0.0,0.0,0.0,0.0,0.0,0.0,0.0,0.0,0.0,0.0,0.0,0.0,0.0,0.0,0.0,0.0,0.0,0.0,0.0,0.0,0.0,0.0,0.0,0.0,0.0,0.0,0.0,0.0,0.0,0.0,0.0,0.0,0.0,0.0,0.0,0.0,0.0,0.0,0.0,0.0,-0.8804,0.0,0.0,0.0,0.0,0.0,0.0,0.0,0.0,-0.7889,-0.745,-0.6804,-0.6091,0.0,0.0,0.0,0.0,0.0,-0.5135,-0.5733,-0.6331,-0.6366,-0.6505,-0.6654,-0.6607,0.0,0.0,0.0,0.0,0.0,0.0,-0.7082,0.0,0.0,0.0,0.0,-1.0229,-1.0724,-1.1138,-1.1565,-1.1857,-1.2033,-1.206,-1.2311,-1.2481,-1.2501,-1.2501,-1.2501,-1.2501,-1.2501,-1.2501,-1.2501,-1.2501,-1.2515,-1.2542,-1.2576,-1.2576,-1.2549,-1.244,-0.848,-0.125,-0.0313,0.0,0.0,0.0,0.0,0.0,0.0,0.0,0.0,0.0,0.0,0.0,0.0,0.0,0.0,0.0,0.0,0.0,0.0,0.0,0.0,0.0,0.0,0.0,0.0,0.0,0.0,0.0,0.0,0.0,0.0,0.0,0.0,0.0,0.0,0.0,0.0,0.0,0.0,0.0,0.0,0.0,0.0,0.0,0.0,-1.2546,-1.2671,-1.2295,0.0,0.0,0.0,0.0,0.0,0.0,-0.8804,-0.8804,0.0,0.0,0.0,0.0,0.0,0.0,0.0,0.0,-0.8646,-0.854,-0.8315,-0.761,0.0,0.0,0.0,0.0,0.0,-0.6205,-0.712,-0.7551,-0.6093,-0.6118,-0.6444,-0.6193,0.0,0.0,0.0,0.0,0.0,0.0,-0.7706,-0.8099,0.0,0.0,-1.0053,0.0,0.0,-1.1253,-1.1579,-1.1769,-1.1918,-1.2047,-1.2223,-1.2372,-1.2494,-1.2501,-1.2501,-1.2501,-1.2501,-1.2501,-1.2501,-1.2501,-1.2501,-1.2508,-1.2515,-1.2515,-1.2508,-1.2549,-1.0653,-0.6863,-0.2188,0.0,0.0,0.0,0.0,0.0,0.0,0.0,0.0,0.0,0.0,0.0,0.0,0.0,0.0,0.0,0.0,0.0,0.0,0.0,0.0,0.0,0.0,0.0,0.0,0.0,0.0,0.0,0.0,0.0,0.0,0.0,0.0,0.0,0.0,0.0,0.0,0.0,0.0,0.0,0.0,0.0,0.0,0.0,-1.3257,-1.3253,-1.2694,-1.189,-1.0989,0.0,0.0,0.0,0.0,0.0,-0.8804,0.0,0.0,0.0,0.0,0.0,0.0,0.0,0.0,0.0,0.0,-0.8804,-0.8593,-0.745,0.0,0.0,0.0,0.0,0.0,-0.675,-0.7377,-0.7741,-0.7698,-0.794,-0.7895,-0.7076,0.0,0.0,0.0,0.0,0.0,0.0,0.0,-0.8438,-0.9279,0.0,-1.0541,-1.09,-1.1145,-1.1369,-1.1592,-1.1742,-1.1891,-1.2047,-1.2203,-1.2345,-1.2488,-1.2501,-1.2501,-1.2501,-1.2501,-1.2501,-1.2501,-1.2501,-1.2501,-1.2501,-1.2501,-1.2501,-1.2501,-1.2535,-1.1759,-1.0486,-0.7985,-0.5477,-0.3439,-0.3443,-0.2036,0.0,0.0,0.0,0.0,0.0,0.0,0.0,0.0,0.0,0.0,0.0,0.0,0.0,0.0,0.0,0.0,0.0,0.0,0.0,0.0,0.0,0.0,0.0,0.0,0.0,0.0,0.0,0.0,0.0,0.0,0.0,0.0,0.0,0.0,0.0,0.0,0.0,-1.3516,-1.3613,-1.3666,-1.3717,-1.2729,-1.1839,0.0,0.0,0.0,0.0,0.0,0.0,-0.8804,0.0,0.0,0.0,0.0,0.0,0.0,0.0,0.0,0.0,0.0,0.0,0.0,0.0,0.0,0.0,-0.6406,-0.6027,-0.6257,-0.742,-0.7861,-0.8265,-0.9296,0.0,-0.9466,-0.8824,0.0,0.0,0.0,0.0,0.0,0.0,-1.012,0.0,-1.0499,-1.1034,-1.1354,-1.1511,-1.1497,-1.145,-1.1599,-1.1714,-1.1843,-1.1993,-1.2149,-1.2298,-1.244,-1.2481,-1.2501,-1.2501,-1.2501,-1.2501,-1.2501,-1.2501,-1.2501,-1.2501,-1.2501,-1.2501,-1.2501,-1.2528,-1.2542,-1.2542,-1.2576,-1.0832,-0.7821,-0.7829,-0.5945,-0.2816,-0.1876,-0.0939,0.0,0.0,0.0,0.0,0.0,0.0,0.0,0.0,0.0,0.0,0.0,0.0,0.0,0.0,0.0,0.0,0.0,0.0,0.0,0.0,0.0,0.0,0.0,0.0,0.0,0.0,0.0,0.0,0.0,0.0,0.0,0.0,-1.3047,-1.3477,-1.3516,-1.3854,-1.4068,-1.4053,-1.3594,-1.333,-1.3221,0.0,0.0,0.0,0.0,0.0,-0.8804,-0.8804,0.0,0.0,0.0,0.0,0.0,0.0,0.0,0.0,0.0,0.0,0.0,0.0,0.0,-0.8593,-0.7771,-0.7557,-0.7766,-0.8634,-0.9502,-1.011,-0.9776,-0.9863,0.0,-1.1497,-1.166,0.0,-1.2646,0.0,0.0,0.0,-1.3396,-1.3663,-1.2756,-1.3085,-1.3385,-1.3559,-1.2388,-1.145,-1.1599,-1.1626,-1.1687,-1.1837,-1.1986,-1.2142,-1.2291,-1.2427,-1.2501,-1.2501,-1.2501,-1.2501,-1.2501,-1.2501,-1.2501,-1.2501,-1.2501,-1.2501,-1.2501,-1.2501,-1.2508,-1.2508,-1.2542,-1.2393,-1.2076,-1.2109,-1.181,-1.1323,-0.7361,-0.3595,0.0,0.0,0.0,0.0,0.0,0.0,0.0,0.0,0.0,0.0,0.0,0.0,0.0,0.0,0.0,0.0,0.0,0.0,0.0,0.0,0.0,0.0,0.0,0.0,0.0,0.0,0.0,0.0,0.0,0.0,-1.3467,-1.3363,-1.3459,-1.3516,-1.3516,-1.3873,-1.3951,-1.373,-1.3574,0.0,0.0,0.0,0.0,0.0,0.0,0.0,-0.8804,-0.8804,-0.8804,0.0,0.0,0.0,0.0,0.0,0.0,0.0,0.0,-0.8804,-0.8646,0.0,-0.8209,-0.8646,-0.7943,-0.7717,-0.7948,-0.9125,-1.0048,-1.0864,-1.1635,-1.2338,0.0,0.0,-1.2443,-1.305,-1.3677,-1.413,0.0,0.0,0.0,-1.5763,-1.4576,-1.4789,-1.487,-1.3985,-1.3351,-1.27,-1.1743,-1.1619,-1.1674,-1.1816,-1.1884,-1.202,-1.2271,-1.2338,-1.2406,-1.2494,-1.2501,-1.2501,-1.2501,-1.2501,-1.2501,-1.2501,-1.2501,-1.2501,-1.2501,-1.2501,-1.2501,-1.2501,-1.2515,-1.2522,-1.2522,-1.2535,-1.2556,-1.2414,-1.0814,-0.9246,-0.7525,-0.5006,-0.2347,0.0,0.0,0.0,0.0,0.0,0.0,0.0,0.0,0.0,0.0,0.0,0.0,0.0,0.0,0.0,0.0,0.0,0.0,0.0,0.0,0.0,0.0,0.0,0.0,0.0,0.0,0.0,-1.3867,-1.433,-1.3778,-1.3611,-1.3781,-1.3893,-1.373,-1.3301,0.0,0.0,0.0,0.0,0.0,0.0,0.0,0.0,0.0,-0.8804,-0.8804,0.0,0.0,0.0,0.0,0.0,0.0,0.0,0.0,-0.8804,-0.8699,0.0,0.0,0.0,0.0,-0.8221,-0.8695,-0.9702,-1.0626,-1.1624,-1.2962,0.0,0.0,-1.386,-1.4286,-1.5036,-1.5726,-1.6058,-1.617,-1.5729,0.0,0.0,-1.6425,-1.6636,-1.6594,-1.5605,-1.5128,-1.45,-1.3428,-1.3317,-1.3213,-1.2612,-1.267,-1.25,-1.2128,-1.2237,-1.2332,-1.2427,-1.2474,-1.2501,-1.2501,-1.2501,-1.2501,-1.2501,-1.2501,-1.2501,-1.2501,-1.2501,-1.2501,-1.2501,-1.2501,-1.2501,-1.2501,-1.2501,-1.2515,-1.2535,-1.2535,-1.2556,-1.2271,-0.9412,-0.6417,-0.3756,-0.2502,-0.1098,0.0,0.0,0.0,0.0,0.0,0.0,0.0,0.0,0.0,0.0,0.0,0.0,0.0,0.0,0.0,0.0,0.0,0.0,0.0,0.0,0.0,0.0,0.0,0.0,-1.3633,-1.4754,-1.4019,-1.3876,-1.439,-1.3781,-1.3281,-1.2891,-1.2891,0.0,0.0,0.0,0.0,0.0,0.0,0.0,0.0,-0.8804,-0.8804,-0.8804,0.0,0.0,0.0,0.0,0.0,0.0,0.0,-0.8804,-0.8804,0.0,0.0,0.0,-0.8804,-0.9432,-1.018,-1.0537,-1.141,-1.2532,0.0,0.0,0.0,-1.7261,-1.7595,-1.8023,-1.9506,-1.9586,-1.9076,-1.8143,-1.9013,0.0,-1.8541,-1.8559,-1.8851,-1.9107,-1.7852,-1.6985,-1.7217,-1.7248,-1.6404,-1.4574,-1.4601,-1.3849,-1.1976,-1.2115,-1.2284,-1.2291,-1.2427,-1.2501,-1.2501,-1.2501,-1.2501,-1.2501,-1.2501,-1.2501,-1.2501,-1.2501,-1.2501,-1.2501,-1.2501,-1.2501,-1.2501,-1.2501,-1.2501,-1.2501,-1.2501,-1.2522,-1.2556,-1.2434,-1.2447,-1.1966,-0.7829,-0.378,-0.016,0.0,0.0,0.0,0.0,0.0,0.0,0.0,0.0,0.0,0.0,0.0,0.0,0.0,0.0,0.0,0.0,0.0,0.0,0.0,0.0,0.0,0.0,0.0,0.0,0.0,0.0,-1.3779,-1.3781,-1.3303,-1.3008,0.0,0.0,0.0,-1.1384,0.0,0.0,0.0,0.0,0.0,0.0,0.0,-0.8804,-0.8804,0.0,0.0,0.0,0.0,0.0,0.0,0.0,0.0,0.0,-0.8804,0.0,0.0,-0.8991,-0.9579,-1.0408,-1.0274,-1.157,0.0,-1.3788,0.0,0.0,0.0,-1.8544,0.0,0.0,-2.0494,-2.0212,-1.9879,-2.0222,-2.0345,-2.0009,-2.0219,-2.0027,-1.8982,-1.8696,-1.8123,-1.6975,-1.7157,-1.6404,-1.4574,-1.4483,-1.3714,-1.1969,-1.1918,-1.206,-1.2277,-1.2332,-1.24,-1.2501,-1.2501,-1.2501,-1.2501,-1.2501,-1.2501,-1.2501,-1.2501,-1.2501,-1.2501,-1.2501,-1.2501,-1.2501,-1.2501,-1.2501,-1.2501,-1.2501,-1.2508,-1.2515,-1.2528,-1.2549,-1.2407,-1.1131,-0.9949,-0.8791,0.0,0.0,0.0,0.0,0.0,0.0,0.0,0.0,0.0,0.0,0.0,0.0,0.0,0.0,0.0,0.0,0.0,0.0,0.0,0.0,0.0,0.0,0.0,0.0,0.0,-1.3233,-1.3361,0.0,0.0,0.0,0.0,0.0,0.0,-1.1633,0.0,-1.0762,0.0,0.0,0.0,0.0,0.0,-0.8804,-0.8804,0.0,0.0,0.0,0.0,0.0,0.0,0.0,0.0,0.0,0.0,0.0,0.0,-0.9379,-1.0074,-1.0969,-1.1263,-1.2599,0.0,-1.4923,-1.6233,-1.7649,-1.8891,0.0,0.0,0.0,-2.0882,-2.0708,-2.0828,-2.0762,-2.0708,-2.0828,-2.0989,-2.0821,-1.9918,-1.9973,-1.9808,-1.9061,-1.9107,-1.8261,-1.5689,-1.5557,-1.4483,-1.188,-1.1796,-1.1911,-1.2094,-1.2223,-1.2332,-1.2413,-1.2474,-1.2501,-1.2501,-1.2501,-1.2501,-1.2501,-1.2501,-1.2501,-1.2501,-1.2501,-1.2501,-1.2501,-1.2501,-1.2501,-1.2501,-1.2501,-1.2501,-1.2501,-1.2501,-1.2515,-1.2535,-1.2535,-1.2684,-1.2582,0.0,0.0,-0.7705,-0.7705,0.0,0.0,0.0,0.0,0.0,0.0,0.0,-0.9196,0.0,0.0,0.0,-1.0148,0.0,0.0,0.0,0.0,0.0,0.0,0.0,0.0,0.0,0.0,0.0,0.0,0.0,0.0,0.0,0.0,-1.2871,-1.2774,0.0,-1.1747,0.0,0.0,0.0,0.0,-0.9013,-0.8764,-0.8778,-0.8791,0.0,0.0,0.0,0.0,0.0,0.0,0.0,0.0,-0.8804,-0.8858,-0.9072,-0.982,-1.0715,-1.1703,-1.2786,0.0,0.0,-1.638,-1.7208,0.0,-1.9853,-2.0468,-2.0762,-2.1042,0.0,-2.0802,-2.1069,-2.0895,-2.0802,-2.1069,-2.1109,-2.1203,-2.147,-2.1537,-2.175,-2.2271,-2.2392,-2.1145,-1.7757,-1.7518,-1.5849,-1.2187,-1.2025,-1.2102,-1.2122,-1.2244,-1.2409,-1.2567,-1.256,-1.2481,-1.2481,-1.2494,-1.2501,-1.2501,-1.2501,-1.2501,-1.2501,-1.2501,-1.2501,-1.2501,-1.2501,-1.2501,-1.2501,-1.2501,-1.2501,-1.2501,-1.2501,-1.2501,-1.2501,-1.2501,-1.2712,-1.2842,0.0,0.0,-0.7705,-0.7705,0.0,0.0,0.0,0.0,-0.7695,-0.7684,-0.7967,-0.8047,-0.7744,-0.7698,0.0,-1.0156,-1.2095,0.0,0.0,0.0,0.0,0.0,0.0,0.0,0.0,0.0,0.0,0.0,0.0,0.0,0.0,0.0,0.0,-1.203,0.0,-1.1094,0.0,0.0,0.0,-0.8331,-0.8414,-0.847,-0.8497,-0.8724,-0.8804,0.0,0.0,0.0,0.0,0.0,0.0,0.0,-0.8804,-0.9285,-0.978,-0.9455,-1.0541,-1.1837,-1.2091,-1.336,0.0,0.0,-1.7689,-1.9199,-2.004,-2.0468,-2.0762,-2.1042,-2.1056,-2.1029,-2.1096,-2.1056,-2.1042,-2.1096,-2.1109,-2.1136,-2.1189,-2.1403,-2.1603,-2.1724,-2.2138,-2.1475,-1.9335,-1.9381,-1.7949,-1.4014,-1.3761,-1.3842,-1.4131,-1.2765,-1.2712,-1.4308,-1.3,-1.2338,-1.2338,-1.2447,-1.2501,-1.2501,-1.2501,-1.2501,-1.2501,-1.2501,-1.2501,-1.2501,-1.2501,-1.2501,-1.2501,-1.2501,-1.2501,-1.2501,-1.2501,-1.2501,-1.2501,-1.2501,-1.2698,-1.2969,0.0,0.0,0.0,0.0,0.0,0.0,0.0,0.0,-0.7715,-0.7694,-0.7695,-0.7715,-0.7694,-0.7696,0.0,0.0,-1.0763,-1.1822,0.0,0.0,0.0,0.0,0.0,0.0,0.0,0.0,0.0,0.0,0.0,0.0,0.0,0.0,0.0,-1.2626,0.0,-1.1904,0.0,0.0,0.0,-0.8348,-0.8242,-0.8163,-0.8176,-0.8323,-0.839,-0.8404,-0.855,0.0,0.0,0.0,0.0,0.0,0.0,0.0,-0.9512,-0.9633,-1.0514,-1.1637,0.0,0.0,0.0,-1.6941,0.0,-1.9693,-2.0134,-2.0468,-2.0762,-2.1042,-2.1109,-2.1109,-2.1109,-2.1109,-2.1109,-2.1109,-2.1109,-2.1109,-2.1109,-2.1243,-2.139,-2.1537,-2.1817,-2.1434,-1.9776,-1.9793,-1.8666,-1.5971,-1.5698,-1.5744,-1.5855,-1.5093,-1.4608,-1.4855,-1.4011,-1.3064,-1.2182,-1.2325,-1.24,-1.24,-1.2467,-1.2501,-1.2501,-1.2501,-1.2501,-1.2501,-1.2501,-1.2501,-1.2501,-1.2501,-1.2501,-1.2501,-1.2501,-1.2501,-1.2508,-1.2583,-1.2759,-1.2969,0.0,0.0,0.0,0.0,0.0,0.0,0.0,0.0,0.0,-0.7705,-0.7705,-0.7705,-0.7705,-0.7696,-0.7704,0.0,0.0,0.0,-1.0262,0.0,0.0,0.0,0.0,0.0,0.0,0.0,0.0,0.0,0.0,0.0,0.0,0.0,0.0,-1.3516,0.0,0.0,0.0,0.0,-0.9611,-0.8533,-0.8003,-0.7856,-0.7856,-0.7862,-0.7888,-0.7928,-0.827,-0.8427,-0.8417,-0.8711,0.0,0.0,0.0,0.0,-0.879,-0.9681,-1.0381,-1.1182,0.0,0.0,-1.5885,-1.7903,-1.9038,0.0,-2.008,-2.0388,-2.0681,-2.0975,-2.1069,-2.1109,-2.1109,-2.1109,-2.1109,-2.1109,-2.1109,-2.1109,-2.1109,-2.1109,-2.1203,-2.1443,-2.1523,-2.1228,-2.011,-2.0059,-1.9358,-1.7798,-1.7669,-1.7669,-1.7669,-1.7561,-1.6806,-1.5246,-1.4992,-1.3916,-1.202,-1.2203,-1.2291,-1.2291,-1.2433,-1.2501,-1.2501,-1.2501,-1.2501,-1.2501,-1.2501,-1.2501,-1.2501,-1.2501,-1.2501,-1.2501,-1.2501,-1.2501,-1.2515,-1.2644,-1.2807,-1.2976,0.0,0.0,0.0,0.0,0.0,0.0,0.0,0.0,0.0,0.0,-0.7705,-0.7705,-0.7705,-0.7715,-0.7681,-0.7697,-0.7922,-0.867,0.0,0.0,0.0,0.0,0.0,0.0,0.0,0.0,0.0,0.0,0.0,0.0,0.0,0.0,0.0,0.0,0.0,0.0,0.0,0.0,0.0,-0.729,-0.7459,-0.7567,-0.7562,-0.7829,-0.7888,-0.7928,-0.827,-0.8427,-0.8417,-0.8711,-0.8368,0.0,0.0,0.0,-0.8057,-0.9023,-0.9766,-1.0394,0.0,0.0,-1.5832,0.0,-1.8571,-1.9185,0.0,0.0,-2.0374,0.0,-2.0935,-2.1109,-2.1109,-2.1109,-2.1109,-2.1109,-2.1109,-2.1109,-2.1109,-2.1109,-2.1122,-2.1162,-2.1403,-2.1683,-2.1608,-2.1857,-2.1429,-1.99,-1.9773,-1.9773,-1.9773,-1.8121,-1.7157,-1.6875,-1.5516,-1.3743,-1.1864,-1.2149,-1.2291,-1.2291,-1.2433,-1.2501,-1.2501,-1.2501,-1.2501,-1.2501,-1.2501,-1.2501,-1.2501,-1.2501,-1.2501,-1.2501,-1.2501,-1.2501,-1.2501,-1.2522,-1.2712,-1.2963,0.0,0.0,0.0,0.0,0.0,0.0,0.0,0.0,0.0,0.0,0.0,-0.7705,-0.7705,-0.7705,-0.7704,-0.7689,-0.7704,0.0,0.0,0.0,0.0,0.0,0.0,0.0,0.0,0.0,0.0,0.0,0.0,0.0,0.0,-1.4199,-1.4473,0.0,0.0,0.0,0.0,0.0,0.0,-0.7268,-0.7228,-0.7615,-0.8163,0.0,-0.7842,-0.839,-0.819,-0.8123,-0.819,-0.8657,-0.8593,-0.8368,-0.8699,0.0,0.0,0.0,-0.9419,0.0,-1.2011,-1.3908,-1.5778,0.0,-1.8237,-1.8838,-1.9426,0.0,-2.012,-2.0588,-2.0775,-2.0922,-2.1082,-2.1109,-2.1109,-2.1109,-2.1109,-2.1109,-2.1109,-2.1109,-2.1109,-2.1109,-2.1229,-2.1416,-2.171,-2.1857,-2.1846,-2.1467,-2.1369,-2.1432,-2.1596,-2.0894,-1.9912,-1.8798,-1.7066,-1.5123,-1.3274,-1.236,-1.2121,-1.2291,-1.2433,-1.2501,-1.2501,-1.2501,-1.2501,-1.2501,-1.2501,-1.2501,-1.2501,-1.2501,-1.2501,-1.2501,-1.2501,-1.2556,-1.263,-1.263,-1.282,-1.3078,0.0,0.0,0.0,0.0,0.0,0.0,0.0,0.0,0.0,0.0,0.0,-0.7705,-0.7705,0.0,0.0,0.0,-0.7708,0.0,0.0,0.0,0.0,0.0,0.0,0.0,0.0,0.0,0.0,0.0,0.0,0.0,-1.4022,-1.4554,-1.543,0.0,-1.5664,0.0,0.0,0.0,0.0,-0.8147,-0.7734,-0.8123,-0.8858,-0.8257,-0.8537,-0.9192,-0.8671,0.0,0.0,0.0,-0.8699,-0.854,-0.8752,-0.8646,0.0,0.0,0.0,0.0,0.0,0.0,-1.5003,-1.662,-1.7542,-1.821,0.0,0.0,-1.972,-2.0241,-2.0468,-2.0655,-2.0949,-2.1056,-2.1109,-2.1109,-2.1109,-2.1109,-2.1109,-2.1109,-2.1109,-2.1109,-2.1109,-2.1229,-2.1523,-2.155,-2.1764,-2.2271,-2.2378,-2.2512,-2.2739,-2.2819,-2.2022,-2.0201,-1.8229,-1.6263,-1.4432,-1.2656,-1.2026,-1.2291,-1.2433,-1.2501,-1.2501,-1.2501,-1.2501,-1.2501,-1.2501,-1.2501,-1.2501,-1.2501,-1.2501,-1.2501,-1.2501,-1.2569,-1.2671,-1.2671,-1.2861,-1.3119,0.0,0.0,0.0,0.0,0.0,0.0,0.0,0.0,0.0,0.0,0.0,-0.7705,-0.7705,-0.7705,-0.7705,-0.7705,-0.7695,0.0,0.0,0.0,0.0,0.0,0.0,0.0,0.0,0.0,0.0,0.0,0.0,0.0,-1.3719,-1.4465,-1.5898,-1.7871,-1.7012,-1.5117,-1.2638,0.0,0.0,0.0,-0.9328,-0.911,-0.9269,-1.0381,-1.0661,-1.0497,0.0,0.0,0.0,0.0,0.0,0.0,-0.8593,-0.8315,-0.7889,0.0,0.0,0.0,0.0,-1.1784,0.0,-1.5003,-1.6166,0.0,0.0,0.0,-1.9052,-1.9372,-1.9867,-2.0347,-2.0641,-2.0922,-2.1109,-2.1109,-2.1109,-2.1109,-2.1109,-2.1109,-2.1109,-2.1109,-2.1109,-2.1229,-2.1523,-2.155,-2.1683,-2.1991,-2.2258,-2.2432,-2.2445,-2.2712,-2.2022,-2.0201,-1.8229,-1.6263,-1.4432,-1.2919,-1.2128,-1.2291,-1.2433,-1.2501,-1.2501,-1.2501,-1.2501,-1.2501,-1.2501,-1.2501,-1.2501,-1.2501,-1.2501,-1.2501,-1.2501,-1.2508,-1.2515,-1.2515,-1.2712,-1.2969,0.0,0.0,0.0,0.0,0.0,0.0,0.0,0.0,0.0,0.0,0.0,0.0,0.0,-0.7705,-0.7705,-0.7705,-0.7705,0.0,0.0,0.0,0.0,0.0,0.0,0.0,0.0,0.0,0.0,0.0,0.0,-1.1447,-1.2769,-1.3568,-1.4668,-1.5937,-1.5898,-1.525,-1.4102,-1.2319,0.0,0.0,-1.0053,-1.0203,0.0,-1.0701,-1.1303,-1.1948,0.0,0.0,0.0,0.0,0.0,0.0,-0.8976,-0.8736,-0.8474,-0.8699,-0.9072,0.0,0.0,0.0,0.0,-1.3895,-1.507,-1.6046,-1.6754,-1.7662,-1.849,-1.8985,-1.9399,-1.9826,-2.0307,-2.0628,-2.0895,-2.1082,-2.1109,-2.1109,-2.1109,-2.1109,-2.1109,-2.1109,-2.1109,-2.1149,-2.1256,-2.1269,-2.139,-2.1683,-2.1804,-2.2031,-2.2392,-2.2512,-2.2387,-2.1872,-1.8787,-1.5707,-1.2602,-1.2102,-1.1938,-1.1999,-1.225,-1.2366,-1.2372,-1.2461,-1.2501,-1.2501,-1.2501,-1.2501,-1.2501,-1.2501,-1.2501,-1.2501,-1.2501,-1.2562,-1.2651,-1.2651,-1.284,-1.3098,0.0,0.0,0.0,-0.7806,0.0,-0.7703,-0.7695,0.0,0.0,0.0,0.0,0.0,0.0,0.0,-0.7703,-0.7681,0.0,0.0,0.0,0.0,0.0,0.0,0.0,0.0,0.0,0.0,0.0,0.0,0.0,0.0,0.0,0.0,-1.3828,-1.4785,-1.4629,-1.4811,0.0,0.0,0.0,-1.139,0.0,0.0,-1.161,0.0,-1.2661,-1.3253,0.0,0.0,0.0,0.0,0.0,0.0,-0.974,-0.9285,-0.8804,-0.8804,-0.9152,0.0,-1.0007,0.0,0.0,0.0,0.0,-1.4816,-1.6005,-1.6807,-1.7528,-1.8303,-1.8798,-1.9252,-1.984,-2.0187,-2.0508,-2.0895,-2.1042,-2.1109,-2.1109,-2.1109,-2.1109,-2.1109,-2.1109,-2.1109,-2.1109,-2.1109,-2.1189,-2.139,-2.1496,-2.1724,-2.2111,-2.2311,-2.2281,-2.2009,-1.8787,-1.5707,-1.2602,-1.2046,-1.183,-1.1837,-1.2142,-1.2291,-1.2298,-1.2433,-1.2501,-1.2501,-1.2501,-1.2501,-1.2501,-1.2501,-1.2501,-1.2501,-1.2501,-1.2562,-1.2651,-1.2651,-1.2807,-1.303,-0.8534,-0.8868,-0.8781,-0.7918,-0.7721,-0.7723,-0.7704,-0.7695,0.0,0.0,0.0,0.0,0.0,0.0,0.0,0.0,0.0,0.0,0.0,0.0,0.0,0.0,0.0,0.0,0.0,0.0,0.0,0.0,0.0,0.0,0.0,0.0,-1.3496,0.0,-1.3418,-1.3789,-1.5293,0.0,-1.3862,-1.3169,0.0,-1.2643,-1.2144,0.0,0.0,0.0,-1.4229,-1.3935,0.0,-1.2665,0.0,0.0,0.0,-0.9766,-0.8818,-0.8818,-0.9031,0.0,0.0,0.0,0.0,0.0,0.0,0.0,-1.5645,0.0,-1.6112,-1.7288,-1.8009,-1.8624,-1.9212,-1.9573,-1.996,-2.0548,-2.0895,-2.1096,-2.1096,-2.1109,-2.1109,-2.1109,-2.1109,-2.1109,-2.1109,-2.1109,-2.1109,-2.1109,-2.1376,-2.1537,-2.155,-2.2111,-2.1726,-2.019,-1.8229,-1.6404,-1.4432,-1.275,-1.1823,-1.183,-1.2128,-1.2277,-1.2291,-1.2433,-1.2501,-1.2501,-1.2501,-1.2501,-1.2501,-1.2501,-1.2501,-1.2501,-1.2501,-1.2501,-1.2501,-1.2508,-1.2603,-1.2759,-0.945,-0.9884,-0.9858,-0.9612,-0.8537,-0.7717,-0.7694,0.0,0.0,0.0,0.0,0.0,0.0,0.0,0.0,0.0,0.0,0.0,0.0,0.0,0.0,0.0,0.0,0.0,0.0,0.0,0.0,0.0,0.0,0.0,0.0,0.0,0.0,0.0,-1.2158,-1.2643,-1.3931,-1.2628,0.0,0.0,-1.236,-1.2431,0.0,0.0,0.0,0.0,0.0,-1.471,-1.4242,0.0,-1.308,-1.1877,0.0,0.0,0.0,-0.907,-0.9472,0.0,-0.9296,0.0,0.0,0.0,0.0,0.0,0.0,-1.4162,-1.4897,-1.6072,-1.678,-1.7448,-1.8263,-1.8824,-1.9292,-1.9666,-2.0334,-2.0802,-2.0802,-2.0975,-2.1109,-2.1109,-2.1109,-2.1109,-2.1109,-2.1109,-2.1109,-2.1109,-2.1189,-2.1323,-2.1537,-2.2111,-2.1726,-2.019,-1.9634,-1.7669,-1.4432,-1.3912,-1.2949,-1.1681,-1.187,-1.202,-1.2128,-1.2277,-1.2406,-1.2501,-1.2501,-1.2501,-1.2501,-1.2501,-1.2501,-1.2501,-1.2501,-1.2501,-1.2515,-1.2623,-1.2766,-1.2915,-0.8925,-0.9797,-1.0311,-1.0305,-0.9469,-0.8783,-0.8795,0.0,0.0,0.0,0.0,0.0,0.0,0.0,0.0,0.0,0.0,0.0,0.0,0.0,0.0,0.0,0.0,0.0,0.0,0.0,0.0,0.0,0.0,0.0,0.0,0.0,0.0,0.0,-1.0941,-1.1315,-1.245,-1.0828,0.0,0.0,-1.2689,0.0,0.0,-1.4095,-1.4803,0.0,0.0,0.0,-1.507,-1.507,-1.4082,0.0,0.0,-1.0755,-1.0247,-0.9753,-1.0194,0.0,0.0,0.0,0.0,0.0,0.0,0.0,-1.3213,-1.3601,-1.4122,-1.5538,-1.6192,-1.6767,-1.7528,-1.805,-1.8464,-1.8771,-1.9452,-2.008,-2.0441,-2.0748,-2.0922,-2.0922,-2.1042,-2.1109,-2.1109,-2.1109,-2.1109,-2.1109,-2.1109,-2.1243,-2.1537,-2.1991,-2.1828,-2.1133,-2.0419,-1.8648,-1.5557,-1.4858,-1.3452,-1.1619,-1.1762,-1.1911,-1.2067,-1.2223,-1.2366,-1.2501,-1.2501,-1.2501,-1.2501,-1.2501,-1.2501,-1.2501,-1.2501,-1.2501,-1.2515,-1.2603,-1.2732,-1.2888,0.0,-0.9241,-1.0272,-1.0298,-1.0309,-1.039,0.0,0.0,0.0,0.0,0.0,0.0,0.0,0.0,0.0,0.0,0.0,0.0,0.0,0.0,0.0,0.0,0.0,0.0,0.0,0.0,0.0,0.0,0.0,0.0,0.0,0.0,0.0,0.0,-0.9833,-1.0058,-1.1006,-0.9408,-1.0089,-1.2413,-1.3304,-1.336,0.0,0.0,-1.5364,-1.5484,-1.5738,-1.5832,-1.5832,-1.5832,-1.4937,0.0,0.0,-1.2064,-1.1797,-1.0688,-1.1142,0.0,-1.1343,-1.1423,0.0,0.0,-1.2184,0.0,-1.3841,-1.3694,-1.3654,-1.5217,-1.5778,-1.6166,-1.6754,-1.7141,-1.7475,-1.7756,-1.8343,-1.9092,-2.0013,-2.0414,-2.0628,-2.0628,-2.0882,-2.1069,-2.1069,-2.1096,-2.1109,-2.1109,-2.1109,-2.1243,-2.1537,-2.1804,-2.2084,-2.2405,-2.1009,-1.9461,-1.7529,-1.5839,-1.4156,-1.2187,-1.2177,-1.2178,-1.2338,-1.2347,-1.2345,-1.2481,-1.2494,-1.2501,-1.2501,-1.2501,-1.2501,-1.2501,-1.2501,-1.2501,-1.2501,-1.2522,-1.2623,-1.2779,-0.9429,-1.0057,-1.0312,-1.0307,-1.0302,-1.0777,0.0,0.0,0.0,0.0,0.0,0.0,0.0,0.0,0.0,0.0,0.0,0.0,0.0,0.0,0.0,0.0,0.0,0.0,0.0,0.0,0.0,0.0,0.0,0.0,0.0,0.0,0.0,0.0,-0.9306,-0.9537,-1.0623,-0.9333,0.0,-1.1735,-1.1619,0.0,-1.3895,-1.4469,-1.5124,-1.5752,-1.5805,-1.5832,-1.5832,-1.5832,-1.5484,-1.4897,0.0,-1.3333,-1.2812,-1.2091,-1.2385,-1.2866,-1.2505,-1.2799,-1.308,-1.2532,-1.2799,0.0,-1.2505,-1.2812,-1.3307,-1.3654,-1.3948,-1.4335,-1.4923,-1.5658,-1.6192,-1.6246,-1.7154,-1.8237,-1.9372,-1.9987,-2.0321,-2.0321,-2.0575,-2.0762,-2.0762,-2.0975,-2.1109,-2.1109,-2.1109,-2.1243,-2.1537,-2.1603,-2.1884,-2.2405,-2.2054,-2.1233,-1.9495,-1.9217,-1.8089,-1.6131,-1.4608,-1.4018,-1.4205,-1.277,-1.2189,-1.2338,-1.2454,-1.2501,-1.2501,-1.2501,-1.2501,-1.2501,-1.2501,-1.2501,-1.2515,-1.2637,-1.2786,-1.2935,-0.9867,-1.0293,-1.031,-1.0307,-1.1029,0.0,0.0,0.0,0.0,0.0,0.0,0.0,0.0,0.0,0.0,0.0,0.0,0.0,0.0,0.0,0.0,0.0,0.0,0.0,0.0,0.0,0.0,0.0,0.0,0.0,0.0,0.0,0.0,0.0,-0.9736,-0.9575,-0.9596,0.0,-0.9275,-1.0573,-1.1695,0.0,-1.4162,-1.4897,-1.5444,-1.5832,-1.5832,-1.5925,-1.6032,-1.5885,-1.5725,0.0,-1.4576,-1.4402,-1.4349,0.0,-1.3213,-1.3322,-1.3583,-1.3425,-1.3231,-1.353,0.0,0.0,0.0,-1.279,-1.2705,-1.3878,-1.3529,-1.3341,-1.4542,-1.5097,-1.5444,-1.5591,-1.6473,-1.7408,-1.8156,-1.9025,-1.9573,-1.9573,-1.9973,-2.0241,-2.0241,-2.0628,-2.0949,-2.1096,-2.1109,-2.1176,-2.1323,-2.147,-2.1683,-2.1977,-2.2271,-2.1526,-1.9863,-1.9992,-1.9077,-1.7248,-1.6263,-1.5381,-1.472,-1.3806,-1.2955,-1.2291,-1.2366,-1.2433,-1.2501,-1.2501,-1.2501,-1.2501,-1.2501,-1.2501,-1.2522,-1.2671,-1.2827,-1.2983,-0.9313,-0.9654,-0.9785,-1.022,0.0,0.0,0.0,0.0,0.0,0.0,0.0,0.0,0.0,0.0,0.0,0.0,0.0,0.0,0.0,0.0,0.0,0.0,-1.0309,-1.0308,0.0,0.0,0.0,0.0,0.0,0.0,0.0,0.0,0.0,0.0,0.0,0.0,0.0,0.0,0.0,-0.9944,0.0,-1.3454,-1.3978,-1.511,-1.5618,-1.5685,-1.5858,-1.6099,-1.6326,-1.6072,-1.6032,-1.5925,-1.5044,-1.5337,0.0,0.0,0.0,-1.3731,0.0,0.0,-1.3207,-1.4602,0.0,-1.4175,0.0,0.0,0.0,-1.4282,-1.3484,-1.2991,-1.4441,-1.475,-1.487,-1.511,-1.5885,-1.6513,-1.67,-1.7702,-1.8477,-1.8651,-1.9185,-1.9573,-1.9626,-2.0107,-2.0561,-2.0922,-2.0882,-2.0909,-2.1015,-2.1309,-2.1496,-2.155,-2.2004,-2.1616,-2.0219,-2.0436,-1.9727,-1.8229,-1.7949,-1.7066,-1.5669,-1.4992,-1.4032,-1.2842,-1.2429,-1.2372,-1.2501,-1.2501,-1.2501,-1.2501,-1.2501,-1.2501,-1.2522,-1.2671,-1.2807,-1.2942,-0.7324,-0.7387,-0.7979,-0.9967,0.0,0.0,0.0,0.0,0.0,0.0,0.0,0.0,0.0,0.0,0.0,0.0,0.0,0.0,-1.2644,0.0,0.0,-1.0299,-1.0284,-1.0299,-1.0296,0.0,0.0,0.0,0.0,0.0,0.0,0.0,-1.0321,-1.0361,-1.1911,0.0,0.0,0.0,-0.9248,0.0,-1.2335,-1.2934,0.0,-1.422,-1.483,-1.5164,-1.5939,-1.6406,-1.6647,0.0,-1.678,-1.6847,0.0,-1.6112,-1.6223,-1.4072,0.0,0.0,0.0,0.0,0.0,0.0,-1.5271,-1.5511,-1.3761,0.0,-1.4005,-1.3547,0.0,-1.3543,-1.3692,0.0,0.0,-1.4229,-1.4977,-1.5471,-1.5244,-1.5992,-1.686,-1.7649,-1.8263,-1.8744,-1.8998,-1.9319,-1.9746,-2.0294,-2.0094,-2.0174,-2.0695,-2.1002,-2.1283,-2.155,-2.1617,-2.1766,-2.2136,-2.2176,-2.2185,-2.2297,-2.0617,-1.9646,-1.9401,-1.6215,-1.4683,-1.4588,-1.2971,-1.2372,-1.2501,-1.2501,-1.2501,-1.2501,-1.2501,-1.2501,-1.2522,-1.2671,-1.2739,-1.2793,-0.7017,-0.8028,-0.9544,-1.1446,0.0,0.0,0.0,0.0,0.0,0.0,0.0,0.0,0.0,0.0,0.0,0.0,0.0,-1.7535,0.0,0.0,0.0,-1.1808,-1.1832,-1.1332,-1.0337,0.0,0.0,0.0,-1.0273,0.0,0.0,0.0,-0.9632,-0.8424,-0.9869,0.0,-1.2854,0.0,-1.0277,0.0,0.0,0.0,0.0,-1.5113,-1.5351,-1.5565,-1.6273,-1.6607,-1.67,-1.67,-1.678,0.0,0.0,0.0,0.0,-1.5511,0.0,0.0,0.0,0.0,0.0,0.0,0.0,-1.5312,-1.3573,-1.3188,-1.3151,-1.2965,0.0,0.0,0.0,0.0,0.0,0.0,-1.4643,-1.4843,-1.4723,-1.503,-1.5645,-1.67,-1.7194,-1.7769,-1.8597,-1.8624,-1.8918,-1.9679,-1.9452,-1.9626,-2.0374,-2.0695,-2.0989,-2.1283,-2.147,-2.175,-2.2164,-2.2338,-2.2565,-2.2859,-2.216,-2.1183,-2.0063,-1.7349,-1.5659,-1.4692,-1.2977,-1.2244,-1.2386,-1.2467,-1.2501,-1.2501,-1.2501,-1.2501,-1.2522,-1.2671,-1.2732,-1.2773,-0.6989,0.0,0.0,0.0,0.0,0.0,-1.2626,-1.2871,-1.3421,0.0,0.0,0.0,-1.7193,-1.9703,0.0,0.0,-2.2363,-2.1285,0.0,0.0,-1.3387,-1.2902,-1.3334,-1.2772,-1.1068,-1.0531,0.0,0.0,0.0,0.0,0.0,0.0,-0.8716,-0.7535,0.0,-1.2118,-1.6731,0.0,-1.3112,-0.9935,-1.2123,-1.4117,-1.5771,-1.5611,-1.5738,-1.6019,-1.6526,-1.6754,-1.6834,-1.6834,-1.6834,-1.6807,-1.6727,-1.662,-1.654,0.0,0.0,0.0,-1.3682,-1.397,-1.4347,-1.3778,-1.454,-1.4996,-1.3363,-1.2721,-1.2406,-1.2246,-1.2468,0.0,0.0,0.0,-1.4402,0.0,0.0,-1.4496,-1.4416,-1.4402,-1.4776,-1.5792,-1.638,-1.7074,-1.8036,-1.7782,-1.7969,-1.8931,-1.8651,-1.8931,-2.0054,-2.0388,-2.0722,-2.1096,-2.1323,-2.1577,-2.1857,-2.2151,-2.2445,-2.2739,-2.2819,-2.216,-2.0756,-1.8938,-1.7369,-1.6164,-1.4473,-1.3476,-1.3043,-1.3202,-1.2958,-1.2501,-1.2501,-1.2501,-1.2515,-1.2623,-1.2664,-1.2712,-0.698,-0.8763,0.0,0.0,0.0,0.0,-1.2613,-1.2921,-1.4712,-1.9679,0.0,0.0,0.0,0.0,0.0,0.0,0.0,-2.2296,-2.0561,0.0,-1.4604,-1.297,-1.4483,-1.4552,-1.2846,-1.1155,-1.029,-1.031,-1.031,0.0,0.0,0.0,0.0,0.0,-0.9978,-1.4209,-2.0534,-2.2094,-1.8618,-1.2175,-1.1889,-1.341,-1.5765,0.0,-1.5524,-1.6299,-1.6593,-1.6887,-1.7141,-1.7141,-1.7141,-1.7088,-1.6794,-1.6901,-1.6856,-1.534,-1.5029,-1.4815,-1.2888,-1.3635,-1.4489,-1.3286,-1.4251,-1.4878,-1.2793,-1.2557,-1.2383,-1.1169,-1.2385,-1.3564,-1.3415,-1.428,0.0,0.0,0.0,0.0,0.0,-1.4095,-1.4322,-1.4937,-1.6005,-1.6834,-1.7154,-1.6673,-1.682,-1.7996,-1.7542,-1.7969,-1.972,-2.0094,-2.0508,-2.1096,-2.1122,-2.1269,-2.1563,-2.1857,-2.2151,-2.2432,-2.2726,-2.2859,-2.2722,-2.0894,-2.0064,-2.0037,-1.8383,-1.6711,-1.4985,-1.5311,-1.433,-1.2501,-1.2501,-1.2501,-1.2501,-1.2508,-1.2508,-1.2556,0.0,0.0,0.0,0.0,0.0,-1.2239,-1.2831,-1.3867,-1.52,0.0,-1.7667,0.0,0.0,-2.0742,-2.3075,0.0,0.0,-2.2594,-2.1537,-1.9839,0.0,-1.4693,-1.6217,-1.63,-1.4582,-1.2894,-1.2043,-1.2012,-1.2012,0.0,0.0,0.0,0.0,0.0,0.0,-1.4656,0.0,0.0,0.0,0.0,0.0,-1.4932,-1.5805,0.0,-1.5845,-1.6313,-1.6607,-1.6901,-1.7181,-1.7368,-1.7315,-1.7168,-1.7261,-1.7088,-1.6773,-1.6445,-1.6304,-1.5885,-1.4364,-1.5246,-1.6164,-1.4064,-1.4779,-1.5402,-1.3157,-1.3631,-1.4085,-1.2449,-1.3857,-1.5281,-1.4807,0.0,0.0,0.0,0.0,0.0,0.0,-1.3507,-1.3654,-1.4041,0.0,0.0,-1.5979,-1.5979,-1.6313,-1.7101,-1.7154,-1.7756,-1.9145,-1.9867,-2.0414,-2.0815,-2.1002,-2.1256,-2.155,-2.1844,-2.2124,-2.2418,-2.2726,-2.2859,-2.2859,-2.0894,-2.011,-2.0075,-1.8608,-1.7507,-1.7016,-1.7369,-1.7208,-1.6456,-1.5089,-1.4475,-1.4322,-1.2958,-1.2501,-1.2549,-0.763,0.0,0.0,0.0,0.0,0.0,-1.3711,-1.5226,0.0,0.0,-1.8328,0.0,-1.9789,0.0,-2.3063,0.0,-2.309,-2.2928,-2.239,-2.1776,0.0,-1.6478,-1.8569,-1.8701,-1.6389,-1.4666,-1.3793,-1.38,-1.3194,-1.288,0.0,0.0,0.0,0.0,0.0,-1.4822,-1.8241,-2.1673,-2.1309,0.0,0.0,-1.5888,0.0,-1.5992,-1.6166,-1.646,-1.6754,-1.7048,-1.7328,-1.7515,-1.7462,-1.7341,-1.7528,-1.7328,-1.7061,-1.7248,-1.7168,-1.6688,-1.5336,-1.6264,-1.7029,-1.4763,-1.5455,-1.6006,-1.3817,-1.4198,-1.4634,-1.2963,-1.4123,-1.5524,-1.5358,-1.5245,0.0,0.0,0.0,0.0,0.0,-1.3307,-1.34,-1.348,0.0,0.0,0.0,-1.5284,-1.5578,-1.6486,-1.654,-1.7181,-1.8691,-1.9506,-2.016,-2.0655,-2.0962,-2.1203,-2.139,-2.1683,-2.1977,-2.2271,-2.2565,-2.2752,-2.2859,-2.1596,-2.1044,-2.1069,-2.0306,-1.9503,-1.8966,-1.9436,-1.9176,-1.8421,-1.7056,-1.6599,-1.6294,-1.3568,-1.2569,-1.2691,-0.8805,0.0,0.0,0.0,-1.2958,0.0,0.0,0.0,-1.8081,0.0,-2.1093,-2.3083,-2.3125,-2.3081,-2.3072,-2.3086,-2.3144,-2.313,-2.3122,-2.3063,0.0,0.0,-2.135,-2.1573,-1.8318,-1.6555,-1.5661,-1.5685,-1.3793,0.0,0.0,0.0,0.0,0.0,-1.2873,0.0,-1.8213,-2.1624,-2.2928,-2.2282,-1.7695,-1.6005,-1.6384,-1.6384,-1.6473,-1.6767,-1.7048,-1.7341,-1.7582,-1.7582,-1.7582,-1.7582,-1.7582,-1.7582,-1.7582,-1.7582,-1.7582,-1.7305,-1.5768,-1.6441,-1.716,-1.5438,-1.6126,-1.6751,-1.4716,-1.4441,-1.4251,-1.2769,-1.3467,-1.4507,-1.516,-1.5426,-1.5538,0.0,0.0,0.0,0.0,0.0,-1.3574,0.0,0.0,0.0,0.0,-1.4589,-1.471,-1.6099,-1.5738,-1.6339,-1.8343,-1.9038,-1.976,-2.0601,-2.0949,-2.1109,-2.1109,-2.1403,-2.1697,-2.1991,-2.2285,-2.2579,-2.2859,-2.2859,-2.2859,-2.2899,-2.3487,-2.2729,-2.0873,-2.1526,-2.068,-1.8874,-1.8723,-1.8723,-1.8118,-1.4176,-1.3005,-1.3116,-0.879,-0.8805,-1.008,0.0,-1.3756,-1.3921,0.0,0.0,0.0,0.0,-2.2542,-2.3084,-2.3071,-2.3063,-2.3142,-2.3125,-2.3144,0.0,0.0,0.0,0.0,-2.1778,-2.2649,-2.2674,-2.1839,-2.0134,-1.9302,-1.9276,-1.4965,0.0,-1.2912,0.0,0.0,0.0,0.0,0.0,-1.8215,-2.1636,-2.1033,-1.7553,-1.635,-1.5994,-1.641,-1.6513,-1.678,-1.7048,-1.7128,-1.7341,-1.7582,-1.7582,-1.7582,-1.7582,-1.7582,-1.7582,-1.7582,-1.7582,-1.7582,-1.7463,-1.7068,-1.7635,-1.8008,-1.7081,-1.7371,-1.753,-1.6649,-1.6743,-1.6884,-1.61,-1.665,-1.7145,-1.6432,-1.6368,-1.6179,0.0,0.0,0.0,0.0,0.0,0.0,-1.4162,0.0,0.0,-1.4122,-1.4482,-1.4897,-1.5271,-1.5965,-1.6794,-1.7769,-1.8798,-1.9573,-2.0013,-2.0735,-2.1109,-2.1109,-2.1403,-2.1697,-2.1991,-2.2285,-2.2579,-2.2859,-2.2859,-2.2859,-2.2886,-2.3273,-2.3271,-2.3054,-2.3417,-2.3382,-2.2967,-2.144,-1.993,-1.8421,-1.736,-1.6233,-1.5154,-0.8808,0.0,0.0,-1.5984,0.0,0.0,-1.672,-1.7483,0.0,-2.2618,-2.308,0.0,-2.3103,-2.3055,-2.3144,-2.3144,-2.3144,0.0,-2.3122,0.0,0.0,-2.3083,-2.3119,-2.3063,-2.3125,-2.2205,0.0,-1.8307,-1.4538,0.0,-1.2894,0.0,0.0,0.0,0.0,-1.4769,-1.8233,-2.1696,-2.0278,-1.5819,-1.6101,-1.6319,0.0,-1.6794,-1.7088,-1.7341,-1.7341,-1.7448,-1.7582,-1.7582,-1.7582,-1.7582,-1.7582,-1.7582,-1.7582,-1.7582,-1.7582,-1.7609,-1.7742,-1.813,-1.8437,-1.8223,-1.8397,-1.8464,-1.7876,-1.7996,-1.8103,-1.7622,-1.7836,-1.7969,-1.7555,-1.6954,-1.6233,0.0,0.0,0.0,0.0,0.0,0.0,0.0,-1.4442,-1.4242,-1.352,-1.4135,-1.4629,-1.4763,-1.5498,-1.6259,-1.6967,-1.8263,-1.9172,-1.9599,-2.0468,-2.0975,-2.1109,-2.1269,-2.151,-2.1804,-2.2084,-2.2378,-2.2672,-2.2806,-2.2859,-2.2886,-2.3193,-2.35,-2.3794,-2.4088,-2.4369,-2.4488,-2.3413,-2.2198,-2.1291,-2.1291,-1.9622,-1.7344,-0.9166,0.0,0.0,0.0,0.0,0.0,0.0,-1.7677,0.0,-2.208,0.0,-2.2601,-2.3012,-2.3103,-2.3086,-2.3086,-2.3086,-2.3057,-2.313,-2.3066,-2.3086,-2.3051,-2.3095,-2.3095,-2.3077,-2.3079,-2.0762,-1.6069,-1.3819,-1.278,-1.2898,0.0,0.0,0.0,0.0,0.0,0.0,-2.0623,-1.9601,-1.6043,-1.6512,-1.6796,-1.6894,-1.7048,-1.7328,-1.7582,-1.7582,-1.7582,-1.7582,-1.7582,-1.7582,-1.7582,-1.7582,-1.7582,-1.7582,-1.7582,-1.7609,-1.7702,-1.7969,-1.829,-1.8611,-1.8865,-1.9145,-1.9239,-1.8718,-1.8611,-1.8531,-1.825,-1.7996,-1.7956,-1.841,-1.7341,-1.6112,0.0,0.0,0.0,0.0,0.0,0.0,0.0,0.0,0.0,-1.3307,-1.3774,-1.4215,-1.4389,-1.475,-1.5351,-1.6219,-1.7569,-1.8637,-1.9345,-2.0187,-2.0775,-2.1109,-2.1109,-2.1256,-2.155,-2.1844,-2.2138,-2.2432,-2.2726,-2.2859,-2.2873,-2.3153,-2.346,-2.3794,-2.4035,-2.4342,-2.4636,-2.4636,-2.4636,-2.4636,-2.4636,-2.27,-2.0022,-1.1311,0.0,0.0,0.0,0.0,-2.052,-2.159,-2.2009,-2.141,-1.9151,-1.8936,-1.9932,-2.2753,-2.3142,-2.3107,-2.3107,-2.3107,0.0,0.0,0.0,0.0,-2.3102,-2.3066,-2.3105,-2.3047,-2.3061,-2.1967,-1.9713,-1.6449,-1.4195,-1.2902,0.0,0.0,0.0,0.0,0.0,-1.3417,-1.4991,0.0,-1.7203,-1.6842,-1.7032,-1.7422,-1.7244,-1.7328,-1.7582,-1.7582,-1.7582,-1.7582,-1.7582,-1.7582,-1.7582,-1.7582,-1.7582,-1.7582,-1.7582,-1.7756,-1.7956,-1.8023,-1.8437,-1.8865,-1.8905,-1.9145,-1.9345,-1.9239,-1.9212,-1.9199,-1.9145,-1.9092,-1.8945,-1.8557,-1.7675,-1.6794,-1.6152,-1.6046,0.0,0.0,0.0,0.0,0.0,0.0,-1.471,-1.3347,-1.3961,-1.4269,-1.3828,-1.4522,-1.5351,-1.6219,-1.6981,-1.7996,-1.9319,-1.9987,-2.0575,-2.1109,-2.1109,-2.1256,-2.155,-2.1844,-2.2138,-2.2432,-2.2726,-2.2859,-2.2859,-2.2926,-2.326,-2.3768,-2.3821,-2.4155,-2.4636,-2.4636,-2.4636,-2.4636,-2.4636,-2.4547,-2.4099,-1.3777,0.0,0.0,0.0,0.0,0.0,0.0,-2.3841,-2.3567,-2.0948,-2.1471,-2.2593,-2.4227,-2.4421,-2.4434,-2.4434,-2.4434,-2.4434,-2.4434,-2.4461,-2.401,-2.3142,-2.3081,-2.3108,-2.3133,-2.3117,-2.2291,-2.0615,-1.7086,-1.4515,-1.2915,-1.2887,-1.2909,-1.2927,0.0,-1.4563,0.0,0.0,-1.833,-1.7572,-1.7244,-1.7341,-1.762,-1.7432,-1.7462,-1.7582,-1.7582,-1.7582,-1.7582,-1.7582,-1.7582,-1.7582,-1.7582,-1.7582,-1.7609,-1.7769,-1.7916,-1.8103,-1.841,-1.8704,-1.8958,-1.9118,-1.9265,-1.9372,-1.9372,-1.9372,-1.9319,-1.9172,-1.9132,-1.8905,-1.8156,-1.7422,-1.682,-1.654,-1.6366,-1.6273,0.0,0.0,-1.5792,0.0,0.0,0.0,-1.3347,-1.4001,-1.4215,-1.348,-1.4095,-1.4897,-1.5778,-1.6513,-1.7528,-1.8865,-1.9626,-2.0294,-2.0882,-2.1029,-2.1176,-2.1323,-2.1777,-2.2058,-2.2205,-2.2659,-2.2859,-2.2859,-2.2859,-2.3113,-2.3567,-2.3875,-2.4249,-2.4636,-2.4636,-2.4636,-2.4636,-2.4636,-2.481,-2.4953,0.0,-1.43,0.0,0.0,-2.1225,-2.2138,-2.348,-2.4842,-2.5165,-2.3781,-2.4873,-2.5674,-2.5668,-2.5666,-2.5712,-2.5712,-2.5712,-2.5712,-2.5712,-2.5724,-2.506,-2.3708,-2.3613,-2.3664,-2.3687,-2.3279,-2.2428,-2.1145,-1.7623,-1.5125,-1.3438,-1.3095,-1.3094,-1.3515,-1.5195,-1.7081,-1.9243,-2.1981,-2.1427,-1.8737,-1.7974,-1.7594,-1.7612,-1.7607,-1.7582,-1.7582,-1.7582,-1.7582,-1.7582,-1.7582,-1.7582,-1.7595,-1.7662,-1.7689,-1.7742,-1.805,-1.8183,-1.833,-1.8798,-1.8971,-1.9078,-1.9305,-1.9372,-1.9372,-1.9372,-1.9319,-1.9212,-1.8971,-1.8878,-1.8571,-1.7742,-1.7261,-1.6927,-1.674,-1.6567,-1.642,-1.6286,0.0,0.0,0.0,0.0,0.0,-1.3507,-1.3854,-1.3935,-1.344,-1.3828,-1.4496,-1.5444,-1.6086,-1.7034,-1.8357,-1.9185,-1.9893,-2.0481,-2.0909,-2.1109,-2.1122,-2.171,-2.1991,-2.2004,-2.2592,-2.2859,-2.2859,-2.2859,-2.3073,-2.346,-2.3995,-2.4369,-2.4636,-2.4636,-2.4636,-2.4636,-2.4636,-2.4676,-2.481,0.0,0.0,0.0,0.0,0.0,-2.5329,-2.5421,-2.565,-2.5622,-2.5456,-2.5625,-2.569,-2.572,-2.5702,-2.5741,-2.5741,-2.5741,-2.5741,-2.5741,-2.5734,-2.563,-2.5496,-2.5498,-2.541,-2.5482,-2.3926,-2.3047,-2.29,-1.944,-1.6883,-1.5109,-1.3638,-1.3718,-1.5239,-1.6967,-1.9602,-2.2674,-2.2952,-2.2922,-2.2253,-1.897,-1.7551,-1.7555,-1.7569,-1.7582,-1.7582,-1.7582,-1.7582,-1.7582,-1.7582,-1.7582,-1.7635,-1.7916,-1.8009,-1.8063,-1.8357,-1.8637,-1.8851,-1.8905,-1.9118,-1.9332,-1.9359,-1.9372,-1.9372,-1.9372,-1.9158,-1.8958,-1.8931,-1.8718,-1.8343,-1.7702,-1.7769,-1.7649,-1.6834,-1.6914,-1.6887,-1.6353,0.0,-1.5952,-1.507,0.0,0.0,-1.4041,-1.3347,-1.3213,-1.3948,-1.4055,-1.4589,-1.5725,-1.5618,-1.6313,-1.8036,-1.8691,-1.9292,-1.988,-2.0695,-2.1109,-2.1122,-2.171,-2.1991,-2.2004,-2.2592,-2.2859,-2.2859,-2.2859,-2.3193,-2.3754,-2.4075,-2.4369,-2.4636,-2.4636,-2.4636,-2.4636,-2.4636,-2.481,-2.5077,0.0,0.0,-2.2167,-2.343,-2.4809,-2.5716,-2.5661,-2.5684,-2.4492,-2.1312,-2.3626,-2.5664,-2.5742,-2.5742,-2.5742,-2.5742,-2.5742,-2.5742,-2.5742,-2.5702,-2.572,-2.572,-2.5698,-2.571,-2.5698,-2.5006,-2.4157,-2.3072,-2.1722,-2.0216,-1.8496,-1.677,-1.6893,-1.8594,-2.0272,-2.1808,-2.3133,-2.4215,-2.4629,-2.4207,-1.9506,-1.7618,-1.763,-1.7647,-1.7582,-1.7582,-1.7582,-1.7702,-1.7862,-1.7862,-1.7862,-1.7876,-1.8009,-1.817,-1.837,-1.8664,-1.8838,-1.8958,-1.9145,-1.9279,-1.9372,-1.9372,-1.9372,-1.9372,-1.9372,-1.9132,-1.8878,-1.8704,-1.8277,-1.7876,-1.7622,-1.7542,-1.7448,-1.7261,-1.7181,-1.7007,-1.6593,0.0,0.0,-1.5324,0.0,-1.4856,0.0,-1.4015,-1.3961,-1.4322,-1.3854,-1.4148,-1.5498,-1.5618,-1.6219,-1.7475,-1.8597,-1.9305,-1.9533,-2.0588,-2.1109,-2.1122,-2.171,-2.1991,-2.2004,-2.2592,-2.2859,-2.2859,-2.2859,-2.3207,-2.3781,-2.3901,-2.4222,-2.4636,-2.4636,-2.4636,-2.4636,-2.4636,-2.4716,-2.4877,-1.6355,-2.0136,-2.3783,-2.5388,-2.574,-2.5678,-2.5737,-2.4309,-2.1896,-1.8138,-2.0978,-2.3954,-2.5546,-2.5684,-2.5742,-2.5742,-2.5742,-2.5742,-2.5742,-2.5742,-2.5742,-2.5742,-2.5742,-2.5722,-2.5658,-2.5749,-2.5093,-2.3859,-2.3381,-2.2489,-2.1343,-2.0095,-2.0115,-2.1403,-2.2591,-2.3342,-2.3919,-2.5209,-2.571,-2.5333,-2.0686,-1.8369,-1.7626,-1.7607,-1.7582,-1.7595,-1.7689,-1.7862,-1.8063,-1.8143,-1.8237,-1.8303,-1.8303,-1.845,-1.8677,-1.8971,-1.9052,-1.9105,-1.9319,-1.9372,-1.9372,-1.9372,-1.9372,-1.9372,-1.9372,-1.9065,-1.8691,-1.8303,-1.7876,-1.7582,-1.7582,-1.7422,-1.7315,-1.7435,-1.7355,-1.7114,-1.6647,-1.6647,0.0,-1.5618,-1.5378,-1.5177,-1.4923,-1.4589,-1.4536,-1.4883,-1.4255,-1.4376,-1.5591,-1.5765,-1.6313,-1.7382,-1.8677,-1.9412,-1.9492,-2.0575,-2.1109,-2.1122,-2.171,-2.1991,-2.2004,-2.2592,-2.2859,-2.2859,-2.2859,-2.3207,-2.3768,-2.3768,-2.4115,-2.4636,-2.4636,-2.4636,-2.4636,-2.4636,-2.4636,-2.4716,-1.757,-1.7609,-1.9377,-2.4758,-2.5718,-2.5714,-2.5661,-2.1146,-1.7633,-1.7618,-1.7691,-1.9714,-2.5126,-2.5702,-2.5742,-2.5742,-2.5742,-2.5742,-2.5742,-2.5742,-2.5742,-2.5742,-2.5742,-2.5742,-2.5742,-2.5678,-2.569,-2.567,-2.3986,-2.3114,-2.3086,-2.3011,-2.3051,-2.3105,-2.3102,-2.4088,-2.567,-2.569,-2.5663,-2.55,-2.2754,-1.999,-1.7626,-1.7607,-1.7582,-1.7622,-1.7929,-1.805,-1.809,-1.8384,-1.8677,-1.8918,-1.8918,-1.8918,-1.8971,-1.9279,-1.9359,-1.9359,-1.9372,-1.9372,-1.9372,-1.9372,-1.9372,-1.9372,-1.9372,-1.8918,-1.8317,-1.7716,-1.7582,-1.7582,-1.7582,-1.7582,-1.7488,-1.7194,-1.7395,-1.7275,-1.6406,-1.6526,0.0,-1.5899,-1.5324,-1.519,-1.5752,-1.4776,-1.4576,-1.5725,-1.5538,-1.5631,-1.6233,-1.5992,-1.6513,-1.7983,-1.8905,-1.9506,-1.9786,-2.0668,-2.1109,-2.1122,-2.171,-2.1991,-2.2004,-2.2592,-2.2859,-2.2859,-2.2859,-2.3207,-2.3768,-2.3768,-2.4115,-2.4636,-2.4636,-2.4636,-2.4636,-2.4636,-2.4636,-2.4716,-2.2384,-2.3097,-2.3622,-2.5447,-2.2619,-2.0155,-2.0184,-1.8729,-1.7626,-1.759,-1.7551,-1.9674,-2.5069,-2.5701,-2.5742,-2.5742,-2.5742,-2.5742,-2.5742,-2.5742,-2.5742,-2.5742,-2.5742,-2.5742,-2.5742,-2.5722,-2.5737,-2.569,-2.513,-2.4888,-2.4856,-2.4496,-2.4496,-2.4877,-2.4848,-2.5184,-2.571,-2.5661,-2.5684,-2.5585,-2.472,-2.1976,-1.8192,-1.8115,-1.8144,-1.821,-1.8317,-1.8477,-1.8664,-1.8758,-1.8985,-1.9225,-1.9225,-1.9225,-1.9239,-1.9332,-1.9372,-1.9372,-1.9372,-1.9372,-1.9372,-1.9372,-1.9372,-1.9372,-1.9372,-1.8918,-1.8384,-1.7983,-1.7729,-1.7582,-1.7582,-1.7582,-1.7555,-1.7462,-1.7355,-1.7114,-1.6633,-1.6473,-1.6273,-1.5872,-1.5671,-1.5631,-1.5805,-1.5498,-1.5431,-1.5805,-1.5565,-1.5658,-1.6246,-1.6754,-1.7235,-1.7716,-1.8985,-1.9706,-1.98,-2.0668,-2.1109,-2.1122,-2.171,-2.2191,-2.2592,-2.2779,-2.2859,-2.2859,-2.2859,-2.3207,-2.3768,-2.3768,-2.4115,-2.4636,-2.4636,-2.4636,-2.4636,-2.4636,-2.4636,-2.4716,-2.1969,-2.4307,-2.5098,-2.2963,-1.9857,-1.7579,-1.7576,-1.7617,-1.763,-1.7566,-1.7571,-1.9709,-2.5117,-2.5691,-2.566,-2.5741,-2.5739,-2.566,-2.5722,-2.5722,-2.5664,-2.5742,-2.5742,-2.5742,-2.5742,-2.5742,-2.5722,-2.5698,-2.5698,-2.5694,-2.5684,-2.5417,-2.5417,-2.5684,-2.5714,-2.5698,-2.5717,-2.5741,-2.5703,-2.5662,-2.5699,-2.2722,-1.8163,-1.8401,-1.8453,-1.8628,-1.8611,-1.8771,-1.8945,-1.9052,-1.9212,-1.9372,-1.9372,-1.9372,-1.9372,-1.9372,-1.9372,-1.9372,-1.9372,-1.9372,-1.9372,-1.9372,-1.9372,-1.9332,-1.9225,-1.8918,-1.8544,-1.813,-1.7889,-1.7716,-1.7609,-1.7582,-1.7582,-1.7582,-1.7341,-1.7048,-1.674,-1.646,-1.6206,-1.6019,-1.5992,-1.6046,-1.6152,-1.6259,-1.6326,-1.6326,-1.6473,-1.6673,-1.6927,-1.7355,-1.7836,-1.8397,-1.9533,-2.0187,-2.0294,-2.0842,-2.1109,-2.1122,-2.171,-2.2298,-2.2859,-2.2859,-2.2859,-2.2859,-2.2859,-2.3207,-2.3768,-2.3768,-2.4115,-2.4636,-2.4636,-2.4636,-2.4636,-2.4636,-2.4703,-2.4877,-1.7612,-2.1636,-2.3542,-1.8508,-1.7612,-1.7576,-1.7555,-1.7582,-1.762,-1.7549,-1.7901,-2.0101,-2.5368,-2.5926,-2.585,-2.5848,-2.5876,-2.5914,-2.591,-2.5772,-2.5718,-2.5723,-2.5703,-2.5703,-2.5703,-2.5703,-2.5703,-2.5684,-2.5645,-2.5742,-2.5742,-2.5742,-2.5742,-2.5742,-2.5781,-2.5781,-2.5684,-2.5703,-2.5681,-2.571,-2.5788,-2.2606,-1.7836,-1.8577,-1.8793,-1.8834,-1.8865,-1.8958,-1.8998,-1.9279,-1.9372,-1.9372,-1.9372,-1.9372,-1.9372,-1.9372,-1.9372,-1.9372,-1.9372,-1.9372,-1.9372,-1.9372,-1.9372,-1.9292,-1.9011,-1.8945,-1.8771,-1.8223,-1.809,-1.7983,-1.7675,-1.7609,-1.7595,-1.7555,-1.7301,-1.7021,-1.6714,-1.6446,-1.6273,-1.6273,-1.6313,-1.6433,-1.6714,-1.7007,-1.7181,-1.7181,-1.7956,-1.833,-1.809,-1.7836,-1.8343,-1.976,-2.0374,-2.0815,-2.1109,-2.1109,-2.1136,-2.1176,-2.1724,-2.2298,-2.2859,-2.2859,-2.2859,-2.2859,-2.2886,-2.3233,-2.3768,-2.3794,-2.4128,-2.4636,-2.4636,-2.4636,-2.4636,-2.4636,-2.4823,-2.5117,-1.7639,-1.8651,-1.9063,-1.786,-1.763,-1.7634,-1.7582,-1.7582,-1.7582,-1.7569,-2.1186,-2.4765,-2.7402,-2.7727,-2.7727,-2.7648,-2.7696,-2.766,-2.7682,-2.6454,-2.5737,-2.5661,-2.5661,-2.5661,-2.5661,-2.5661,-2.5748,-2.5698,-2.5664,-2.5742,-2.5742,-2.5742,-2.5742,-2.5762,-2.6369,-2.6349,-2.5718,-2.5667,-2.5699,-2.585,-2.716,-2.417,-1.9014,-1.9152,-1.9226,-1.9287,-1.9239,-1.9265,-1.9279,-1.9345,-1.9372,-1.9372,-1.9372,-1.9372,-1.9372,-1.9372,-1.9372,-1.9372,-1.9372,-1.9372,-1.9372,-1.9372,-1.9372,-1.9345,-1.9279,-1.9092,-1.8878,-1.8744,-1.8544,-1.829,-1.7996,-1.7943,-1.7782,-1.7328,-1.7007,-1.6714,-1.642,-1.6313,-1.6273,-1.6273,-1.6673,-1.6967,-1.7034,-1.7301,-1.7475,-1.7475,-1.7675,-1.7969,-1.837,-1.8744,-1.9212,-1.9786,-2.0374,-2.0815,-2.1109,-2.1109,-2.1336,-2.1777,-2.1924,-2.2298,-2.2859,-2.2859,-2.2859,-2.2873,-2.3113,-2.3434,-2.3794,-2.4008,-2.4315,-2.4636,-2.4636,-2.4636,-2.4636,-2.4636,-2.4823,-2.5117,-1.7553,-1.762,-1.7555,-1.7553,-1.7644,-1.7553,-1.7553,-1.7555,-1.7569,-1.7603,-2.3005,-2.7266,-2.8192,-2.8351,-2.8344,-2.8344,-2.8291,-2.8341,-2.8304,-2.7447,-2.6943,-2.689,-2.689,-2.689,-2.689,-2.689,-2.6492,-2.5724,-2.6187,-2.6447,-2.6328,-2.619,-2.619,-2.6328,-2.6702,-2.668,-2.6439,-2.6372,-2.6564,-2.6956,-2.7949,-2.4698,-1.943,-1.9429,-1.9388,-1.9372,-1.9372,-1.9372,-1.9372,-1.9372,-1.9372,-1.9372,-1.9372,-1.9372,-1.9372,-1.9372,-1.9372,-1.9372,-1.9372,-1.9372,-1.9372,-1.9372,-1.9372,-1.9372,-1.9372,-1.9239,-1.9092,-1.8958,-1.8798,-1.8557,-1.813,-1.805,-1.7849,-1.7248,-1.6901,-1.6647,-1.6486,-1.6353,-1.642,-1.682,-1.7154,-1.7462,-1.7742,-1.8023,-1.8143,-1.8009,-1.8877,-1.9292,-1.8991,-2.0787,-2.1672,-2.1166,-2.1652,-2.2405,-2.3311,-2.2577,-2.2157,-2.1991,-2.1991,-2.2298,-2.2859,-2.2859,-2.2859,-2.2886,-2.3193,-2.35,-2.3794,-2.4088,-2.4369,-2.4636,-2.4636,-2.4636,-2.4636,-2.4636,-2.4903,-2.5304,-1.7582,-1.7582,-1.7569,-1.7647,-1.7617,-1.7846,-1.8683,-1.8793,-1.8583,-1.7956,-2.3946,-2.831,-2.8265,-2.8337,-2.8301,-2.8301,-2.8301,-2.829,-2.8331,-2.8311,-2.8296,-2.8327,-2.8307,-2.8307,-2.8307,-2.8267,-2.7535,-2.604,-2.7051,-2.7436,-2.7172,-2.6871,-2.6871,-2.7172,-2.6948,-2.6968,-2.7129,-2.7187,-2.7565,-2.8331,-2.831,-2.5269,-2.0676,-1.9765,-1.9388,-1.9372,-1.9372,-1.9372,-1.9372,-1.9372,-1.9372,-1.9372,-1.9372,-1.9372,-1.9372,-1.9372,-1.9372,-1.9372,-1.9372,-1.9372,-1.9372,-1.9372,-1.9372,-1.9372,-1.9372,-1.9372,-1.9292,-1.9038,-1.8985,-1.8824,-1.8277,-1.8143,-1.7903,-1.7248,-1.6941,-1.674,-1.6647,-1.654,-1.674,-1.7488,-1.7702,-1.7983,-1.8504,-1.8784,-1.8964,-1.9027,-2.043,-2.096,-2.028,-2.3006,-2.429,-2.3479,-2.3856,-2.4655,-2.5984,-2.4425,-2.3145,-2.2372,-2.2109,-2.2298,-2.2859,-2.2859,-2.2859,-2.2886,-2.3233,-2.3541,-2.3794,-2.4128,-2.4409,-2.4636,-2.4636,-2.4636,-2.4636,-2.4636,-2.501,-2.5518,-1.7582,-1.7582,-1.7634,-1.7576,-1.7626,-1.9169,-2.3722,-2.4417,-2.3131,-1.9564,-2.4456,-2.8262,-2.8329,-2.8262,-2.8301,-2.8301,-2.8301,-2.8262,-2.8329,-2.8329,-2.831,-2.8251,-2.8251,-2.8251,-2.8251,-2.8311,-2.8133,-2.7845,-2.8041,-2.8126,-2.8106,-2.7294,-2.7314,-2.8126,-2.8078,-2.7272,-2.6068,-2.7516,-2.8144,-2.8349,-2.8319,-2.7767,-2.6363,-2.1338,-1.9388,-1.9372,-1.9372,-1.9372,-1.9372,-1.9372,-1.9372,-1.9372,-1.9372,-1.9372,-1.9372,-1.9372,-1.9372,-1.9372,-1.9372,-1.9372,-1.9372,-1.9372,-1.9372,-1.9372,-1.9372,-1.9372,-1.9359,-1.9305,-1.9292,-1.9199,-1.8851,-1.8584,-1.8143,-1.7288,-1.7114,-1.6901,-1.6406,-1.6941,-1.7435,-1.7569,-1.825,-1.8758,-1.8851,-1.8905,-1.9663,-2.1465,-2.0456,-2.1046,-2.4017,-2.3722,-2.454,-2.7158,-2.6131,-2.5741,-2.5984,-2.4425,-2.3777,-2.4027,-2.2621,-2.2298,-2.2859,-2.2859,-2.2859,-2.2899,-2.346,-2.3728,-2.3808,-2.4342,-2.4596,-2.4636,-2.4636,-2.4636,-2.4636,-2.4636,-2.501,-2.5518,-1.7582,-1.7582,-1.762,-1.7639,-2.0036,-2.2775,-2.5274,-2.655,-2.639,-2.4456,-2.6598,-2.833,-2.8301,-2.8301,-2.8301,-2.8301,-2.8301,-2.8301,-2.8301,-2.8301,-2.8301,-2.8301,-2.8301,-2.8301,-2.8301,-2.8251,-2.8278,-2.8278,-2.8351,-2.8271,-2.8271,-2.7859,-2.7859,-2.8271,-2.8325,-2.7863,-2.716,-2.7931,-2.8301,-2.8301,-2.833,-2.8346,-2.7622,-2.1638,-1.9439,-1.9428,-1.9435,-1.9372,-1.9372,-1.9372,-1.9372,-1.9372,-1.9372,-1.9372,-1.9372,-1.9372,-1.9372,-1.9372,-1.9372,-1.9372,-1.9372,-1.9372,-1.9372,-1.9372,-1.9372,-1.9372,-1.9372,-1.9372,-1.9372,-1.9279,-1.8985,-1.8811,-1.849,-1.7756,-1.7488,-1.7341,-1.7248,-1.7435,-1.8075,-1.9405,-1.9209,-1.9312,-2.0246,-2.0516,-2.1075,-2.215,-2.3137,-2.4185,-2.5277,-2.6302,-2.7317,-2.8138,-2.8455,-2.8188,-2.7314,-2.6608,-2.6117,-2.5817,-2.4157,-2.3587,-2.4331,-2.3393,-2.2859,-2.2899,-2.35,-2.3768,-2.3808,-2.4396,-2.4636,-2.4636,-2.4636,-2.4636,-2.4636,-2.4636,-2.501,-2.5518,-1.7582,-1.7647,-1.7553,-1.7571,-2.2114,-2.5691,-2.568,-2.7168,-2.8341,-2.8336,-2.8281,-2.8319,-2.832,-2.8301,-2.8301,-2.8301,-2.8301,-2.8301,-2.8301,-2.8301,-2.8301,-2.8301,-2.8301,-2.8301,-2.8301,-2.8301,-2.8301,-2.8301,-2.8301,-2.8301,-2.8301,-2.8301,-2.8301,-2.8301,-2.8301,-2.8301,-2.8301,-2.8301,-2.8301,-2.8301,-2.8301,-2.8242,-2.7763,-2.3164,-2.0569,-1.9394,-1.9394,-1.9372,-1.9372,-1.9372,-1.9372,-1.9372,-1.9372,-1.9372,-1.9372,-1.9372,-1.9412,-1.9452,-1.9386,-1.9372,-1.9372,-1.9372,-1.9372,-1.9372,-1.9372,-1.9372,-1.9372,-1.9372,-1.9372,-1.9292,-1.9065,-1.8971,-1.8758,-1.8237,-1.7956,-1.7849,-1.8023,-1.7956,-1.8564,-2.0477,-1.9707,-1.9759,-2.1561,-2.2105,-2.2681,-2.3441,-2.569,-2.6848,-2.688,-2.8676,-2.9543,-2.902,-3.0274,-3.0274,-2.9039,-2.8545,-2.82,-2.7596,-2.5817,-2.5136,-2.5517,-2.406,-2.3256,-2.2899,-2.35,-2.3768,-2.3808,-2.4396,-2.4636,-2.4636,-2.4636,-2.4636,-2.4636,-2.4636,-2.501,-2.5518,-1.7582,-1.7644,-1.7558,-1.7645,-2.2046,-2.5676,-2.5733,-2.7199,-2.8307,-2.8296,-2.8337,-2.832,-2.8301,-2.8301,-2.8301,-2.8301,-2.8301,-2.8301,-2.8301,-2.8301,-2.8301,-2.8301,-2.8301,-2.8301,-2.8301,-2.8301,-2.8301,-2.8301,-2.8301,-2.8301,-2.8301,-2.8301,-2.8301,-2.8301,-2.8301,-2.8301,-2.8301,-2.8301,-2.8301,-2.8301,-2.8301,-2.8242,-2.8205,-2.7863,-2.4165,-1.9394,-1.9394,-1.9372,-1.9372,-1.9372,-1.9372,-1.9372,-1.9372,-1.9372,-1.9372,-1.9372,-1.9559,-1.9706,-1.9439,-1.9372,-1.9372,-1.9372,-1.9372,-1.9372,-1.9372,-1.9372,-1.9372,-1.9372,-1.9372,-1.9359,-1.9332,-1.9105,-1.8824,-1.8504,-1.8437,-1.833,-1.809,-1.849,-1.8851,-1.9018,-1.9515,-2.0427,-2.2034,-2.2466,-2.4086,-2.7374,-2.6471,-2.7134,-3.0334,-2.9238,-2.9238,-3.0645,-3.0898,-3.0898,-3.0762,-2.9157,-2.8684,-2.935,-2.7723,-2.6438,-2.5517,-2.5383,-2.4452,-2.2899,-2.35,-2.3768,-2.3808,-2.4396,-2.4636,-2.4636,-2.4636,-2.4636,-2.4636,-2.4636,-2.501,-2.5518,-1.7582,-1.7603,-1.8657,-2.2046,-2.4362,-2.5662,-2.5676,-2.6218,-2.7046,-2.8152,-2.8298,-2.8301,-2.8301,-2.8301,-2.8301,-2.8301,-2.8301,-2.8301,-2.8301,-2.8301,-2.8301,-2.8301,-2.8301,-2.8301,-2.8301,-2.8301,-2.8301,-2.8301,-2.8301,-2.8301,-2.8301,-2.8301,-2.8301,-2.8301,-2.8301,-2.8301,-2.8301,-2.8301,-2.8301,-2.8301,-2.8301,-2.8252,-2.828,-2.8243,-2.4548,-1.9431,-1.9353,-1.9374,-1.9401,-1.9435,-1.9372,-1.9399,-1.9442,-1.9508,-1.9679,-1.9853,-1.9987,-2.004,-1.9933,-1.9773,-1.9586,-1.9412,-1.9372,-1.9372,-1.9372,-1.9372,-1.9372,-1.9372,-1.9372,-1.9372,-1.9372,-1.9279,-1.9158,-1.9052,-1.8878,-1.8784,-1.8851,-1.9065,-2.0044,-2.2146,-2.1891,-2.2629,-2.5158,-2.5744,-2.6503,-2.7948,-2.8553,-2.9498,-3.0879,-3.0274,-3.0274,-3.0898,-3.0898,-3.0898,-3.0898,-3.0524,-3.0566,-3.1134,-2.9726,-2.8956,-2.8804,-2.7635,-2.6839,-2.6218,-2.6893,-2.7185,-2.7107,-2.6661,-2.7055,-2.8038,-2.6779,-2.7055,-2.8182,-2.8182,-2.8612,-2.9195,-1.7607,-1.7599,-1.9343,-2.4711,-2.5739,-2.5723,-2.5739,-2.5724,-2.6321,-2.8097,-2.8344,-2.8301,-2.8301,-2.8301,-2.8301,-2.8301,-2.8301,-2.8301,-2.8301,-2.8301,-2.8301,-2.8301,-2.8301,-2.8301,-2.8301,-2.8301,-2.8301,-2.8301,-2.8301,-2.8301,-2.8301,-2.8301,-2.8301,-2.8301,-2.8301,-2.8301,-2.8301,-2.8301,-2.8301,-2.8301,-2.8301,-2.8301,-2.832,-2.8288,-2.5755,-2.2198,-2.2193,-2.094,-1.9384,-1.9448,-1.9367,-1.9412,-1.9351,-1.9668,-2.0133,-2.0294,-2.0374,-2.0374,-2.0374,-2.0227,-2.0,-1.9706,-1.9639,-1.9639,-1.9639,-1.9639,-1.9613,-1.9519,-1.9506,-1.9479,-1.9386,-1.9891,-2.0294,-2.0294,-2.0197,-2.0197,-2.0419,-2.0447,-2.1321,-2.3709,-2.3709,-2.4622,-2.7319,-2.7911,-2.8381,-2.8867,-3.0102,-3.0898,-3.0898,-3.0898,-3.0898,-3.0898,-3.0898,-3.0898,-3.0898,-3.1309,-3.1738,-3.2168,-3.1426,-3.0919,-3.0771,-2.9605,-2.8689,-2.8213,-2.8923,-2.9237,-2.9149,-2.8617,-2.9186,-3.0168,-2.89,-2.9186,-3.031,-3.031,-3.0689,-3.1234,-1.7639,-1.764,-1.9381,-2.4771,-2.5722,-2.5742,-2.5742,-2.5691,-2.6327,-2.8106,-2.8311,-2.8281,-2.8301,-2.8301,-2.8301,-2.8301,-2.8301,-2.8301,-2.8301,-2.8301,-2.8301,-2.8301,-2.8301,-2.8301,-2.8301,-2.8301,-2.8301,-2.8301,-2.8301,-2.8301,-2.8301,-2.8301,-2.8301,-2.8301,-2.8301,-2.8301,-2.8301,-2.8301,-2.8301,-2.8301,-2.8301,-2.8301,-2.832,-2.8288,-2.8295,-2.8334,-2.8309,-2.4513,-1.9487,-1.9487,-1.948,-1.9412,-1.9412,-1.9918,-2.0564,-2.0725,-2.0681,-2.0681,-2.0681,-2.0681,-2.0601,-2.0307,-2.0227,-2.0227,-2.0227,-2.0227,-2.0147,-1.9867,-1.98,-1.972,-1.9426,-2.0959,-2.218,-2.218,-2.2481,-2.2706,-2.2706,-2.2721,-2.2721,-2.2721,-2.4412,-2.6152,-2.7831,-2.831,-2.9157,-3.0762,-3.0898,-3.0898,-3.0898,-3.0898,-3.0898,-3.0898,-3.0898,-3.0898,-3.0898,-3.1309,-3.1738,-3.2168,-3.2598,-3.2093,-3.0771,-3.0771,-2.9865,-2.8345,-2.8923,-2.9237,-2.9286,-3.0012,-3.031,-3.031,-3.031,-3.031,-3.031,-3.031,-3.0541,-3.0904,-1.7639,-2.0625,-2.3806,-2.5419,-2.5722,-2.5742,-2.5742,-2.5698,-2.6299,-2.8086,-2.8321,-2.8259,-2.8262,-2.8301,-2.8301,-2.8301,-2.8301,-2.8301,-2.8301,-2.8301,-2.8301,-2.8301,-2.8301,-2.8301,-2.8301,-2.8301,-2.8301,-2.8301,-2.8301,-2.8301,-2.8301,-2.8301,-2.8301,-2.8301,-2.8301,-2.8301,-2.8301,-2.8301,-2.8301,-2.8301,-2.8301,-2.8301,-2.8301,-2.8272,-2.831,-2.828,-2.8271,-2.7196,-2.5604,-2.5646,-2.5673,-2.5078,-2.1651,-2.0686,-2.0902,-2.0909,-2.0975,-2.0975,-2.0975,-2.0975,-2.0855,-2.0361,-2.0227,-2.047,-2.1646,-2.106,-2.0563,-2.1651,-2.186,-2.1831,-2.1744,-2.3052,-2.4266,-2.4266,-2.4363,-2.4327,-2.4327,-2.4537,-2.5173,-2.6251,-2.7051,-2.8246,-2.9849,-3.0081,-3.0392,-3.0898,-3.0898,-3.0898,-3.0898,-3.0898,-3.0898,-3.0898,-3.0898,-3.0898,-3.0898,-3.1601,-3.2031,-3.2187,-3.2891,-3.3029,-3.2619,-3.2619,-3.2365,-3.1891,-3.2711,-3.3047,-3.2988,-3.2552,-3.317,-3.4158,-3.2874,-3.3152,-3.4296,-3.4296,-3.4557,-3.4948,-1.7606,-2.1928,-2.5691,-2.572,-2.5742,-2.5742,-2.5742,-2.572,-2.6126,-2.7114,-2.7831,-2.8246,-2.8262,-2.8301,-2.8301,-2.8301,-2.8301,-2.8301,-2.8301,-2.8301,-2.8301,-2.8301,-2.8301,-2.8301,-2.8301,-2.8301,-2.8301,-2.8301,-2.8301,-2.8301,-2.8301,-2.8301,-2.8301,-2.8301,-2.8301,-2.8301,-2.8301,-2.8301,-2.8301,-2.8301,-2.8301,-2.8301,-2.8301,-2.8301,-2.8272,-2.8319,-2.8267,-2.8703,-2.9327,-2.9355,-2.9316,-2.8824,-2.589,-2.407,-2.2965,-2.2572,-2.2284,-2.2215,-2.2827,-2.2577,-2.2117,-2.2457,-2.2019,-2.1775,-2.2855,-2.2734,-2.281,-2.3634,-2.3841,-2.3794,-2.3654,-2.5027,-2.6295,-2.6295,-2.6299,-2.6403,-2.6403,-2.6592,-2.7103,-2.8066,-2.8891,-2.9785,-3.0762,-3.0898,-3.0898,-3.0898,-3.0898,-3.0898,-3.0898,-3.0898,-3.0898,-3.0898,-3.0898,-3.0898,-3.0898,-3.1738,-3.2168,-3.2187,-3.3027,-3.3418,-3.3418,-3.3418,-3.3418,-3.3476,-3.4336,-3.4707,-3.4634,-3.4388,-3.5021,-3.5879,-3.4727,-3.5021,-3.6016,-3.6016,-3.6191,-3.6445,-1.8253,-2.2264,-2.566,-2.5684,-2.5742,-2.5742,-2.5742,-2.5681,-2.5691,-2.5711,-2.7201,-2.8311,-2.8329,-2.8281,-2.8301,-2.8301,-2.8301,-2.8281,-2.8349,-2.8262,-2.8262,-2.829,-2.8262,-2.8262,-2.829,-2.8262,-2.8301,-2.8301,-2.8301,-2.8301,-2.8301,-2.8301,-2.8301,-2.8301,-2.8301,-2.8301,-2.8301,-2.8301,-2.8301,-2.8301,-2.8301,-2.8301,-2.8301,-2.8301,-2.8388,-2.8372,-2.8391,-2.9538,-3.0842,-3.0882,-3.0849,-3.0879,-3.0901,-2.881,-2.6227,-2.523,-2.4454,-2.4317,-2.5619,-2.4901,-2.4178,-2.5619,-2.5024,-2.4054,-2.4054,-2.5024,-2.6006,-2.5913,-2.5846,-2.5746,-2.5411,-2.6936,-2.8253,-2.8253,-2.8428,-2.8664,-2.8664,-2.8664,-2.8664,-2.8664,-3.002,-3.0898,-3.0898,-3.0898,-3.0898,-3.0898,-3.0898,-3.0898,-3.0898,-3.0898,-3.0898,-3.0898,-3.0898,-3.0918,-3.0937,-3.1758,-3.2168,-3.2187,-3.3027,-3.3418,-3.3418,-3.3418,-3.3418,-3.3476,-3.4277,-3.4668,-3.4766,-3.5605,-3.5996,-3.6016,-3.6016,-3.6016,-3.6016,-3.6016,-3.6016,-3.6094,-2.3085,-2.4889,-2.566,-2.5684,-2.5742,-2.5742,-2.5742,-2.5703,-2.5662,-2.5672,-2.7176,-2.8304,-2.8311,-2.8251,-2.8301,-2.8301,-2.8301,-2.827,-2.8252,-2.8337,-2.8325,-2.8309,-2.8265,-2.8305,-2.8288,-2.8285,-2.8301,-2.8301,-2.8301,-2.8301,-2.8301,-2.8301,-2.8301,-2.8301,-2.8301,-2.8301,-2.8301,-2.8301,-2.8301,-2.8301,-2.8301,-2.8301,-2.8301,-2.8301,-2.8702,-2.9391,-2.9597,-3.0162,-3.0883,-3.0932,-3.0878,-3.084,-3.0873,-3.0395,-2.9822,-2.9525,-2.8149,-2.6671,-2.6139,-2.5741,-2.5619,-2.5863,-2.6712,-2.7331,-2.7331,-2.6591,-2.6315,-2.7586,-2.7807,-2.7789,-2.77,-2.909,-3.0257,-3.0257,-3.0334,-3.0392,-3.0392,-3.0392,-3.0392,-3.0392,-3.0645,-3.0898,-3.0898,-3.0898,-3.0898,-3.0898,-3.0898,-3.0898,-3.0898,-3.0898,-3.0898,-3.0898,-3.0898,-3.1055,-3.1387,-3.1894,-3.2168,-3.2187,-3.3027,-3.3418,-3.3418,-3.3418,-3.3418,-3.3457,-3.3984,-3.4394,-3.4746,-3.5293,-3.5723,-3.6016,-3.6016,-3.6016,-3.6016,-3.6016,-3.6016,-3.6094,-2.5107,-2.5739,-2.5702,-2.5664,-2.5742,-2.5742,-2.5742,-2.5742,-2.5664,-2.5676,-2.6462,-2.7377,-2.8152,-2.8285,-2.8337,-2.8281,-2.8337,-2.8331,-2.8321,-3.0766,-3.097,-2.845,-3.076,-3.0949,-2.8329,-3.0803,-3.0934,-2.8341,-2.8331,-2.8331,-2.8341,-2.8341,-2.8341,-2.8341,-2.8331,-2.8325,-2.8325,-2.831,-2.8301,-2.8301,-2.8301,-2.8301,-2.832,-2.879,-2.9144,-2.9447,-2.9858,-3.0443,-3.0876,-3.0956,-3.0898,-3.0918,-3.0858,-3.0917,-3.0936,-3.0873,-3.0118,-2.901,-2.8498,-2.7692,-2.7314,-2.8188,-2.892,-2.9412,-2.8545,-2.8426,-2.8545,-2.9412,-2.953,-2.953,-2.953,-3.0274,-3.0898,-3.0898,-3.0898,-3.0898,-3.0898,-3.0898,-3.0898,-3.0898,-3.0898,-3.0898,-3.0898,-3.0898,-3.0898,-3.0898,-3.0898,-3.0898,-3.0898,-3.0898,-3.0898,-3.0898,-3.0898,-3.1094,-3.1504,-3.1953,-3.2266,-3.248,-3.3105,-3.3418,-3.3418,-3.3418,-3.3418,-3.3437,-3.3887,-3.4316,-3.4726,-3.5195,-3.5644,-3.6016,-3.6016,-3.6016,-3.6016,-3.6016,-3.6016,-3.6094,-2.572,-2.5683,-2.5742,-2.5742,-2.5742,-2.5742,-2.5742,-2.5742,-2.5742,-2.5698,-2.5676,-2.6261,-2.7648,-2.8133,-2.8311,-2.8298,-2.8271,-2.8672,-2.96,-3.3945,-3.438,-2.9842,-3.404,-3.4256,-2.9821,-3.4063,-3.3738,-2.8309,-2.9209,-2.9641,-2.9711,-2.9711,-2.9653,-2.9737,-2.9663,-2.9207,-2.8336,-2.8251,-2.8301,-2.8301,-2.8301,-2.832,-2.8418,-2.9233,-2.9518,-2.9556,-2.9906,-3.0353,-3.0898,-3.0898,-3.0898,-3.0898,-3.0898,-3.0898,-3.0898,-3.0898,-3.0839,-3.0876,-3.084,-2.9903,-2.9157,-3.0528,-3.0898,-3.0528,-2.9157,-2.9903,-3.0898,-3.0898,-3.0898,-3.0898,-3.0898,-3.0898,-3.0898,-3.0898,-3.0898,-3.0898,-3.0898,-3.0898,-3.0898,-3.0898,-3.0898,-3.0898,-3.0898,-3.0898,-3.0898,-3.0898,-3.0898,-3.0898,-3.0898,-3.0898,-3.0898,-3.0898,-3.0898,-3.1133,-3.1621,-3.1992,-3.2422,-3.291,-3.3262,-3.3418,-3.3418,-3.3418,-3.3418,-3.3437,-3.3809,-3.4238,-3.4726,-3.5117,-3.5566,-3.6016,-3.6016,-3.6016,-3.6016,-3.6016,-3.6016,-3.6074,-2.5684,-2.5664,-2.5742,-2.5742,-2.5742,-2.5742,-2.5742,-2.5742,-2.5664,-2.5703,-2.5739,-2.5772,-2.6025,-2.7369,-2.8321,-2.8309,-2.8284,-3.03,-3.5035,-3.5982,-3.6012,-3.5304,-3.6013,-3.6086,-3.5279,-3.6038,-3.3738,-2.8309,-3.3027,-3.5254,-3.5283,-3.5283,-3.5294,-3.5258,-3.5328,-3.2713,-2.8329,-2.8262,-2.8301,-2.8301,-2.8301,-2.8349,-2.8404,-2.9035,-2.9865,-3.0596,-3.0309,-3.0488,-3.0898,-3.0898,-3.0898,-3.0898,-3.0898,-3.0898,-3.0898,-3.0898,-3.0918,-3.0957,-3.0898,-3.0762,-3.0645,-3.0879,-3.0898,-3.0898,-3.0645,-3.0762,-3.0898,-3.0898,-3.0898,-3.0898,-3.0898,-3.0898,-3.0898,-3.0898,-3.0898,-3.0898,-3.0898,-3.0898,-3.0898,-3.0898,-3.0898,-3.0898,-3.0898,-3.0898,-3.0898,-3.0898,-3.0898,-3.0898,-3.0898,-3.0898,-3.0898,-3.0898,-3.0898,-3.1269,-3.207,-3.2148,-3.2559,-3.334,-3.3398,-3.3418,-3.3418,-3.3418,-3.3418,-3.3418,-3.3496,-3.3965,-3.4707,-3.4766,-3.5273,-3.6016,-3.6016,-3.6016,-3.6016,-3.6016,-3.6016,-3.6035,-2.5742,-2.5742,-2.5742,-2.5742,-2.5742,-2.5742,-2.5742,-2.5742,-2.5742,-2.5742,-2.5664,-2.572,-2.5695,-2.64,-2.7199,-2.8186,-3.1108,-3.3856,-3.6207,-3.64,-3.6443,-3.6383,-3.6376,-3.64,-3.6383,-3.64,-3.5284,-3.2827,-3.5256,-3.6382,-3.6405,-3.6405,-3.6382,-3.6299,-3.3232,-3.0575,-2.8265,-2.8265,-2.8265,-2.8265,-2.8265,-2.8251,-2.8408,-2.9659,-3.0254,-3.0388,-3.0508,-3.0723,-3.0898,-3.0898,-3.0898,-3.0898,-3.0898,-3.0898,-3.0898,-3.0898,-3.0898,-3.0898,-3.0898,-3.0898,-3.0898,-3.0898,-3.0898,-3.0898,-3.0898,-3.0898,-3.0898,-3.0898,-3.0898,-3.0898,-3.0898,-3.0898,-3.0898,-3.0898,-3.0898,-3.0898,-3.0898,-3.0898,-3.0898,-3.0898,-3.0898,-3.0898,-3.0898,-3.0898,-3.0898,-3.0898,-3.0898,-3.0898,-3.0898,-3.0898,-3.0898,-3.0898,-3.0898,-3.1191,-3.1797,-3.2051,-3.248,-3.3066,-3.3301,-3.3418,-3.3418,-3.3418,-3.3418,-3.3418,-3.3418,-3.3769,-3.4355,-3.4355,-3.4863,-3.5664,-3.5664,-3.582,-3.6016,-3.6016,-3.6016,-3.6016]}]]